     2              OBSERVATION DATA    GPS                 RINEX VERSION / TYPE
teqc 1997Sep10 19971031 21:10:07UTC                         PGM / RUN BY / DATE
                                                            COMMENT
Original Marker Name: unknown                               COMMENT
Campaign Name: NGS Imperial Valley 1990                     COMMENT
4-Character Station Name: HAMA                              COMMENT
6-Character Antenna Code: TI4100                            COMMENT
Vertical Measurement Point: PAE                             COMMENT
Vertical Offset to Rinex Ref. Point: 0.0000                 COMMENT
Radial Measurement Point: RRP                               COMMENT
Radial Offset to Rinex Ref. Point: 0.0000                   COMMENT
Antenna Height from Field Measurement: 1.5560 m             COMMENT
Original XYZ: -2304224.3473 -4830738.0168 3457400.3106      COMMENT
New XYZ position is based on association with SCEC monument COMMENT
E1C8Z2L6+0011. Position of that monument is believed to be  COMMENT
valid to within 1 m horizontally; vertical accuracy         COMMENT
should be no worse than 3-times this value.                 COMMENT
                                                            COMMENT
Revised Rinex header created by UCSD GPS archive for        COMMENT
GSAC on 10-Apr-1999 (1999:100) 08:08:17 GMT                 COMMENT
For assistance contact dagnew@ucsd.edu or hjohnson@ucsd.edu COMMENT
                                                            COMMENT
HAMAR 2 1967 1979                                           MARKER NAME
unknown NATIONAL GEODETIC SURVEY                            OBSERVER / AGENCY
89 TI 4100 1.9                                              REC # / TYPE / VERS
4078 TI 4100                                                ANT # / TYPE
 -2304222.0000 -4830736.0000  3457398.0000                  APPROX POSITION XYZ
        1.5560        0.0000        0.0000                  ANTENNA: DELTA H/E/N
     1     1     0                                          WAVELENGTH FACT L1/2
     4    P1    P2    L1    L2                              # / TYPES OF OBSERV
     0                                                      INTERVAL
  1990     2    22     4    47   59.000000                  TIME OF FIRST OBS
  1990     2    22     8    59   59.000000                  TIME OF LAST OBS
     0                                                      # OF SATELLITES
                                                            END OF HEADER
 90  2 22  4 47 59.0800000  0  4G 6G 9G11G13
  20535347.368    20535349.729     1269579.921 9  -1542538.706 8
  22026998.020    22026999.431      479805.118 9  -1141313.806 8
  20879164.154    20879168.845      709846.273 8   -868299.133 8
  23702227.395    23702234.699      339799.843 9  -1111106.694 7
 90  2 22  4 48 14.0800000  0  4G 6G 9G11G13
  20532349.225    20532352.268     1253824.741 9  -1554815.469 8
  22018412.370    22018415.787      434693.581 9  -1176465.639 8
  20874779.047    20874782.426      686798.802 9   -886258.197 7
  23691125.809    23691131.641      281456.282 9  -1156569.155 7
 90  2 22  4 48 29.0800000  0  4G 6G 9G11G13
  20529371.969    20529374.842     1238176.848 8  -1567008.626 8
  22009837.234    22009839.282      389630.698 9  -1211579.563 8
  20870418.396    20870423.441      663882.972 8   -904114.673 7
  23680034.295    23680041.249      223170.728 8  -1201986.414 7
 90  2 22  4 48 44.0800000  0  4G 6G 9G11G13
  20526415.366    20526417.008     1222636.704 9  -1579117.826 9
  22001271.719    22001273.799      344616.842 9  -1246655.281 8
  20866082.470    20866085.197      641099.001 8   -921868.414 7
  23668952.629    23668959.522      164943.564 9  -1247358.161 7
 90  2 22  4 48 59.0800000  0  4G 6G 9G11G13
  20523478.251    20523481.091     1207204.413 9  -1591142.973 8
  21992715.661    21992717.722      299652.397 9  -1281692.497 9
  20861772.352    20861775.529      618446.757 8   -939519.480 8
  23657883.294    23657889.647      106774.693 9  -1292684.499 8
 90  2 22  4 49 44.0800000  0  4G 6G 9G11G13
  20514792.343    20514794.598     1161557.586 9  -1626711.923 8
  21967102.840    21967105.160      165058.513 9  -1386570.785 9
  20848989.648    20848995.158      551281.381 8   -991856.116 8
  23624743.642    23624749.856      -67378.843 9  -1428388.378 7
 90  2 22  4 49 59.0800000  0  4G 6G 9G11G13
  20511938.871    20511939.995     1146560.211 9  -1638398.175 9
  21958584.637    21958586.900      120295.488 9  -1421451.030 8
  20844779.755    20844785.277      529157.513 8  -1009095.472 8
  23613719.309    23613725.682     -125310.638 9  -1473529.978 7
 90  2 22  4 50 14.0800000  0  4G 6G 9G11G13
  20509105.706    20509107.992     1131672.198 9  -1649999.225 8
  21950076.361    21950079.133       75583.610 9  -1456291.428 8
  20840595.158    20840600.933      507165.775 8  -1026231.881 7
  23602706.620    23602712.631     -183182.723 8  -1518625.048 7
 90  2 22  4 50 29.0800000  0  4G 6G 9G11G13
  20506293.235    20506295.401     1116893.212 9  -1661515.313 8
  21941577.359    21941580.439       30922.410 9  -1491092.340 8
  20836435.513    20836440.385      485305.543 8  -1043265.811 8
  23591704.433    23591711.266     -240995.403 9  -1563673.801 7
 90  2 22  4 50 44.0800000  0  4G 6G 9G11G13
  20503501.120    20503504.517     1102224.091 9  -1672945.801 9
  21933089.525    21933091.222      -13686.880 9  -1525852.822 8
  20832302.475    20832304.822      463577.478 9  -1060196.757 8
  23580715.116    23580721.728     -298747.487 8  -1608675.377 8
 90  2 22  4 50 59.0800000  0  4G 6G 9G11G13
  20500730.633    20500733.830     1087664.880 9  -1684290.629 8
  21924609.858    21924612.207      -58244.279 9  -1560572.848 9
  20828191.375    20828195.855      441981.498 8  -1077024.788 7
  23569737.515    23569742.909     -356438.817 9  -1653629.599 7
 90  2 22  4 51 14.0800000  0  4G 6G 9G11G13
  20497980.292    20497983.460     1073216.253 8  -1695549.301 9
  21916140.595    21916142.632     -102749.098 9  -1595251.907 8
  20824106.649    20824111.155      420517.911 8  -1093749.642 8
  23558770.614    23558775.971     -414068.912 8  -1698536.120 8
 90  2 22  4 51 29.0800000  0  4G 6G 9G11G13
  20495253.236    20495254.831     1058878.478 8  -1706721.592 8
  21907682.460    21907684.407     -147200.957 9  -1629889.705 8
  20820048.278    20820051.829      399186.609 8  -1110371.426 8
  23547815.056    23547820.471     -471637.289 8  -1743394.527 8
 90  2 22  4 51 44.0800000  0  4G 6G 9G11G13
  20492545.889    20492547.894     1044651.984 9  -1717807.185 8
  21899232.809    21899234.892     -191599.412 9  -1664485.899 9
  20816013.200    20816017.969      377987.913 9  -1126889.879 7
  23536872.383    23536878.161     -529143.682 9  -1788204.630 7
 90  2 22  4 51 59.0800000  0  4G 6G 9G11G13
  20489859.844    20489862.125     1030536.714 9  -1728806.085 8
  21890793.963    21890797.162     -235944.484 9  -1699040.471 9
  20812005.262    20812009.073      356921.622 9  -1143305.157 8
  23525941.689    23525947.542     -586588.093 9  -1832966.451 8
 90  2 22  4 52 14.0800000  0  4G 6G 9G11G13
  20487194.270    20487197.434     1016533.146 8  -1739717.953 8
  21882365.948    21882367.562     -280235.594 9  -1733553.013 7
  20808022.057    20808025.579      335987.851 8  -1159617.163 8
  23515021.241    23515026.235     -643970.246 9  -1877679.743 7
 90  2 22  4 52 29.0800000  0  4G 6G 9G11G13
  20484551.086    20484553.253     1002641.374 9  -1750542.716 8
  21873947.785    21873950.638     -324472.481 9  -1768023.296 8
  20804062.976    20804066.967      315186.511 8  -1175825.990 8
  23504114.207    23504119.612     -701289.796 9  -1922344.267 7
 90  2 22  4 52 44.0800000  0  4G 6G 9G11G13
  20481929.851    20481930.945      988861.703 9  -1761280.115 6
  21865540.190    21865542.613     -368654.679 9  -1802450.972 9
  20800130.066    20800134.222      294517.507 8  -1191931.691 8
  23493218.424    23493224.136     -758546.339 9  -1966959.689 7
 90  2 22  4 52 59.0800000  0  4G 6G 9G11G13
  20479328.564    20479330.898      975194.546 9  -1771929.838 8
  21857143.131    21857146.096     -412782.090 9  -1836835.954 8
  20796223.291    20796225.404      273981.194 8  -1207933.992 7
  23482334.921    23482340.266     -815739.510 9  -2011525.739 8
 90  2 22  4 53 14.0800000  0  4G 6G 9G11G13
  20476749.189    20476751.232      961640.099 8  -1782491.736 9
  21848756.251    21848759.822     -456853.952 9  -1871177.658 8
  20792340.058    20792344.843      253577.491 8  -1223832.982 8
  23471463.190    23471468.879     -872868.979 8  -2056042.142 7
 90  2 22  4 53 29.0800000  0  4G 6G 9G11G13
  20474191.297    20474192.944      948198.832 9  -1792965.448 8
  21840380.269    21840381.702     -500870.264 9  -1905476.058 8
  20788481.796    20788485.728      233306.555 9  -1239628.499 8
  23460603.785    23460610.714     -929934.777 9  -2100508.921 6
 90  2 22  4 53 44.0800000  0  4G 6G 9G11G13
  20471654.783    20471657.031      934870.714 8  -1803350.988 9
  21832015.461    21832019.217     -544830.633 9  -1939730.882 8
  20784650.105    20784652.744      213168.157 9  -1255320.740 7
  23449756.951    23449762.471     -986936.544 9  -2144925.832 7
 90  2 22  4 53 59.0800000  0  4G 6G 9G11G13
  20469140.353    20469142.205      921656.184 8  -1813648.029 9
  21823660.993    21823663.023     -588734.656 9  -1973941.789 8
  20780842.989    20780847.283      193162.362 8  -1270909.658 7
  23438921.651    23438927.984    -1043873.956 9  -2189292.578 8
 90  2 22  4 54 14.0800000  0  4G 6G 9G11G13
  20466647.262    20466649.982      908555.602 8  -1823856.277 9
  21815315.740    21815320.056     -632581.743 9  -2008108.333 8
  20777060.716    20777065.149      173289.451 9  -1286395.046 8
  23428098.435    23428103.779    -1100746.543 8  -2233608.810 8
 90  2 22  4 54 29.0800000  0  4G 6G 9G11G13
  20464176.789    20464178.913      895569.162 9  -1833975.573 9
  21806983.823    21806986.432     -676371.771 9  -2042230.434 9
  20773304.212    20773308.855      153549.321 9  -1301776.941 9
  23417289.231    23417293.829    -1157554.073 8  -2277874.343 8
 90  2 22  4 54 44.0800000  0  4G 6G 9G11G13
  20461727.132    20461728.602      882696.936 8  -1844005.871 9
  21798660.806    21798664.886     -720104.554 9  -2076307.909 8
  20769573.336    20769577.709      133941.750 9  -1317055.560 7
  23406490.472    23406496.576    -1214296.299 9  -2322089.019 7
 90  2 22  4 54 59.0800000  0  4G 6G 9G11G13
  20459298.566    20459301.816      869938.975 8  -1853947.140 9
  21790350.438    21790353.029     -763779.789 9  -2110340.552 8
  20765867.429    20765870.932      114466.634 9  -1332230.959 7
  23395705.099    23395710.737    -1270973.252 9  -2366252.821 6
 90  2 22  4 55 14.0800000  0  4G 6G 9G11G13
  20456893.191    20456895.591      857295.834 9  -1863798.934 8
  21782049.517    21782053.268     -807397.107 9  -2144328.045 8
  20762187.312    20762190.309       95124.114 9  -1347303.043 9
  23384931.659    23384938.238    -1327584.281 8  -2410365.276 6
 90  2 22  4 55 29.0800000  0  4G 6G 9G11G13
  20454508.230    20454511.584      844767.781 8  -1873561.047 8
  21773761.403    21773763.815     -850956.077 9  -2178270.089 8
  20758531.321    20758534.025       75914.212 9  -1362271.768 7
  23374171.640    23374177.832    -1384129.388 8  -2454426.321 7
 90  2 22  4 55 44.0800000  0  4G 6G 9G11G13
  20452146.002    20452149.833      832354.734 9  -1883233.555 9
  21765482.990    21765485.683     -894456.541 9  -2212166.543 8
  20754901.451    20754903.818       56836.779 9  -1377137.299 7
  23363425.123    23363430.158    -1440608.455 8  -2498435.930 8
 90  2 22  4 55 59.0800000  0  4G 6G 9G11G13
  20449806.268    20449808.239      820057.223 9  -1892816.025 9
  21757216.686    21757219.556     -937897.873 9  -2246016.911 8
  20751296.452    20751299.201       37891.938 8  -1391899.507 8
  23352691.173    23352695.299    -1497020.888 8  -2542393.594 7
 90  2 22  4 56 14.0800000  0  4G 6G 9G11G13
  20447487.997    20447490.545      807875.675 9  -1902308.141 9
  21748961.214    21748964.503     -981279.907 8  -2279821.081 8
  20747715.863    20747719.692       19079.952 8  -1406558.183 8
  23341968.642    23341973.474    -1553365.947 8  -2586298.779 7
 90  2 22  4 56 29.0800000  0  4G 6G 9G11G13
  20445192.974    20445195.041      795810.145 9  -1911709.856 8
  21740717.833    21740720.283    -1024602.206 8  -2313578.707 9
  20744161.982    20744165.308         400.754 8  -1421113.392 8
  23331258.116    23331264.021    -1609643.863 8  -2630151.646 7
 90  2 22  4 56 44.0800000  0  4G 6G 9G11G13
  20442917.584    20442920.924      783861.007 9  -1921020.879 8
  21732485.225    21732488.006    -1067864.433 9  -2347289.508 8
  20740631.396    20740634.434      -18145.823 8  -1435565.249 7
  23320561.955    23320568.119    -1665854.416 9  -2673952.024 8
 90  2 22  4 56 59.0800000  0  4G 6G 9G11G13
  20440666.814    20440668.752      772028.489 9  -1930241.015 8
  21724263.927    21724267.180    -1111065.990 9  -2380953.047 8
  20737128.353    20737131.691      -36559.665 8  -1449913.681 8
  23309878.725    23309884.645    -1721997.156 9  -2717699.557 7
 90  2 22  4 57 14.0800000  0  4G 6G 9G11G13
  20438437.919    20438439.528      760312.952 9  -1939370.009 9
  21716054.887    21716056.963    -1154206.868 9  -2414569.301 8
  20733649.777    20733652.900      -54840.843 9  -1464158.745 8
  23299207.820    23299212.936    -1778071.862 9  -2761394.069 8
 90  2 22  4 57 29.0800000  0  4G 6G 9G11G13
  20436231.031    20436232.459      748714.717 9  -1948407.604 8
  21707856.706    21707860.006    -1197286.376 9  -2448137.750 8
  20730195.945    20730199.446      -72989.247 9  -1478300.339 8
  23288550.866    23288555.403    -1834077.936 9  -2805035.107 8
 90  2 22  4 57 44.0800000  0  4G 6G 9G11G13
  20434045.865    20434047.894      737233.816 9  -1957353.757 9
  21699671.410    21699672.970    -1240304.278 9  -2481658.191 8
  20726767.005    20726771.476      -91004.991 8  -1492338.573 8
  23277906.012    23277911.585    -1890015.340 9  -2848622.635 8
 90  2 22  4 57 59.0800000  0  4G 6G 9G11G13
  20431884.042    20431886.046      725870.320 9  -1966208.428 8
  21691496.650    21691499.450    -1283260.635 9  -2515130.659 8
  20723364.329    20723367.779     -108888.365 9  -1506273.663 8
  23267273.845    23267281.445    -1945884.242 9  -2892156.807 7
 90  2 22  4 58 14.0800000  0  4G 6G 9G11G13
  20429743.167    20429745.792      714624.444 9  -1974971.448 8
  21683334.057    21683336.113    -1326155.087 9  -2548554.884 9
  20719986.241    20719990.552     -126639.221 9  -1520105.485 8
  23256656.106    23256662.346    -2001684.272 9  -2935637.301 8
 90  2 22  4 58 29.0800000  0  4G 6G 9G11G13
  20427625.340    20427628.427      703496.393 9  -1983642.651 8
  21675183.662    21675184.765    -1368987.405 9  -2581930.709 8
  20716633.509    20716637.558     -144257.738 9  -1533834.187 7
  23246050.141    23246055.264    -2057415.141 9  -2979063.908 8
 90  2 22  4 58 44.0800000  0  4G 6G 9G11G13
  20425530.751    20425533.194      692486.575 9  -1992221.728 8
  21667044.453    21667047.906    -1411756.834 8  -2615257.529 9
  20713305.914    20713311.405     -161743.800 9  -1547459.676 8
  23235458.122    23235463.890    -2113076.414 9  -3022436.285 7
 90  2 22  4 58 59.0800000  0  4G 6G 9G11G13
  20423457.969    20423460.026      681595.367 9  -2000708.371 8
  21658917.043    21658920.578    -1454463.114 9  -2648535.142 8
  20710004.592    20710008.087     -179097.200 9  -1560981.791 7
  23224879.913    23224886.438    -2168667.809 9  -3065754.223 8
 90  2 22  4 59 14.0800000  0  4G 6G 9G11G13
  20421408.597    20421410.811      670823.143 9  -2009102.311 9
  21650802.373    21650804.880    -1497105.727 9  -2681763.129 8
  20706726.644    20706730.226     -196317.858 9  -1574400.465 8
  23214313.339    23214321.165    -2224188.835 9  -3109017.295 8
 90  2 22  4 59 29.0800000  0  4G 6G 9G11G13
  20419381.070    20419383.990      660170.061 9  -2017403.423 9
  21642700.310    21642702.907    -1539684.269 9  -2714941.201 8
  20703475.751    20703478.715     -213405.787 8  -1587715.734 8
  23203762.190    23203768.801    -2279639.313 8  -3152225.407 7
 90  2 22  4 59 44.0800000  0  4G 6G 9G11G13
  20417376.991    20417379.435      649636.105 9  -2025611.693 8
  21634609.986    21634613.205    -1582198.872 9  -2748069.451 8
  20700248.470    20700252.497     -230361.346 9  -1600927.838 8
  23193223.335    23193230.035    -2335019.493 9  -3195378.744 8
 90  2 22  4 59 59.0800000  0  4G 6G 9G11G13
  20415394.290    20415397.435      639221.480 8  -2033726.996 9
  21626531.685    21626534.756    -1624649.200 9  -2781147.619 9
  20697048.169    20697050.379     -247184.640 8  -1614036.883 8
  23182699.076    23182704.523    -2390328.800 9  -3238476.863 8
 90  2 22  5  0 14.0800000  0  4G 6G 9G11G13
  20413435.782    20413438.511      628926.543 8  -2041749.021 8
  21618467.328    21618469.409    -1667034.465 9  -2814175.079 9
  20693872.342    20693873.948     -263875.495 9  -1627042.731 7
  23172187.127    23172192.517    -2445566.958 9  -3281519.524 8
 90  2 22  5  0 29.0800000  0  4G 6G 9G11G13
  20411498.651    20411502.468      618751.763 9  -2049677.418 9
  21610413.915    21610416.168    -1709354.541 9  -2847151.740 8
  20690720.084    20690724.588     -280433.744 9  -1639945.259 8
  23161689.924    23161695.139    -2500733.479 8  -3324506.376 7
 90  2 22  5  0 44.0800000  0  4G 6G 9G11G13
  20409585.912    20409589.210      608697.263 9  -2057512.092 8
  21602373.148    21602374.801    -1751608.955 9  -2880077.246 9
  20687594.431    20687598.146     -296859.587 9  -1652744.599 9
  23151205.346    23151210.889    -2555828.371 8  -3367437.408 9
 90  2 22  5  0 59.0800000  0  4G 6G 9G11G13
  20407695.801    20407698.774      598763.259 8  -2065252.872 9
  21594344.982    21594346.400    -1793797.274 9  -2912951.230 9
  20684494.392    20684498.768     -313153.083 9  -1665440.825 8
  23140734.893    23140741.064    -2610851.300 8  -3410312.360 8
 90  2 22  5  1 14.0800000  0  4G 6G 9G11G13
  20405827.650    20405830.957      588950.053 8  -2072899.533 8
  21586329.114    21586331.596    -1835919.414 9  -2945773.666 9
  20681418.448    20681422.284     -329314.036 8  -1678033.746 8
  23130278.590    23130283.546    -2665801.631 9  -3453130.746 8
 90  2 22  5  1 29.0800000  0  4G 6G 9G11G13
  20403984.188    20403986.178      579258.064 9  -2080451.724 8
  21578326.357    21578328.810    -1877974.503 9  -2978543.859 9
  20678368.822    20678372.072     -345342.360 8  -1690523.339 7
  23119835.750    23119841.247    -2720679.038 9  -3495892.308 8
 90  2 22  5  1 44.0800000  0  4G 6G 9G11G13
  20402162.704    20402165.510      569687.381 9  -2087909.395 8
  21570336.564    21570339.075    -1919962.557 9  -3011261.804 8
  20675343.003    20675347.136     -361238.324 8  -1702909.807 8
  23109405.474    23109411.494    -2775483.536 9  -3538597.045 8
 90  2 22  5  1 59.0800000  0  4G 6G 9G11G13
  20400364.286    20400366.820      560237.811 9  -2095272.704 9
  21562359.091    21562361.101    -1961883.535 9  -3043927.491 8
  20672343.109    20672347.742     -377002.379 8  -1715193.466 9
  23098990.969    23098995.238    -2830215.285 8  -3581245.109 8
 90  2 22  5  2 14.0800000  0  4G 6G 9G11G13
  20398588.935    20398592.151      550909.642 9  -2102541.393 9
  21554395.153    21554395.888    -2003736.912 9  -3076540.503 8
  20669368.097    20669373.064     -392634.421 8  -1727374.275 9
  23088590.243    23088595.030    -2884873.962 9  -3623836.235 8
 90  2 22  5  2 29.0800000  0  4G 6G 9G11G13
  20396836.498    20396839.585      541703.634 9  -2109714.914 8
  21546441.961    21546445.016    -2045522.296 9  -3109100.543 8
  20666419.261    20666424.019     -408134.098 8  -1739451.924 8
  23078203.107    23078208.216    -2939458.924 8  -3666369.908 8
 90  2 22  5  2 44.0800000  0  4G 6G 9G11G13
  20395109.130    20395111.488      532619.509 8  -2116793.442 9
  21538504.353    21538506.758    -2087239.201 9  -3141607.204 8
  20663494.748    20663499.286     -423501.748 8  -1751426.711 7
  23067829.724    23067834.904    -2993969.931 7  -3708845.981 9
 90  2 22  5  2 59.0800000  0  4G 6G 9G11G13
  20393403.331    20393406.519      523657.515 9  -2123776.810 9
  21530578.436    21530581.080    -2128887.712 9  -3174060.574 7
  20660596.405    20660599.826     -438737.477 8  -1763298.695 8
  23057470.625    23057475.775    -3048407.104 9  -3751264.513 8
 90  2 22  5  3 14.0800000  0  4G 6G 9G11G13
  20391721.486    20391724.254      514818.110 9  -2130664.658 9
  21522665.958    21522668.208    -2170467.005 9  -3206460.016 8
  20657720.985    20657725.241     -453841.151 8  -1775067.771 8
  23047125.476    23047129.851    -3102769.987 8  -3793625.139 8
 90  2 22  5  3 29.0800000  0  4G 6G 9G11G13
  20390062.583    20390065.494      506101.392 9  -2137456.913 8
  21514767.587    21514769.393    -2211977.267 9  -3238805.663 8
  20654872.937    20654875.963     -468812.981 9  -1786734.132 8
  23036794.563    23036800.343    -3157058.384 9  -3835927.768 8
 90  2 22  5  3 44.0800000  0  4G 6G 9G11G13
  20388427.300    20388429.887      497507.584 9  -2144153.381 8
  21506881.209    21506883.594    -2253417.699 9  -3271096.900 8
  20652049.517    20652051.972     -483652.966 8  -1798297.755 8
  23026477.561    23026483.872    -3211271.931 9  -3878172.041 8
 90  2 22  5  3 59.0800000  0  4G 6G 9G11G13
  20386815.932    20386817.947      489036.786 8  -2150753.997 8
  21499008.918    21499012.031    -2294788.057 9  -3303333.524 8
  20649250.646    20649253.500     -498361.209 8  -1809758.713 8
  23016175.274    23016181.757    -3265410.492 9  -3920357.878 7
 90  2 22  5  4 14.0800000  0  4G 6G 9G11G13
  20385227.268    20385229.784      480689.282 8  -2157258.547 9
  21491148.980    21491153.130    -2336088.328 8  -3335515.543 8
  20646476.010    20646480.686     -512937.729 8  -1821117.025 8
  23005887.411    23005893.642    -3319473.833 8  -3962485.104 8
 90  2 22  5  4 29.0800000  0  4G 6G 9G11G13
  20383662.530    20383665.579      472465.405 9  -2163666.768 8
  21483303.250    21483307.350    -2377317.833 9  -3367642.408 8
  20643726.442    20643731.446     -527382.524 8  -1832372.696 8
  22995613.759    22995619.099    -3373461.479 8  -4004553.349 7
 90  2 22  5  4 44.0800000  0  4G 6G 9G11G13
  20382120.895    20382122.933      464365.364 8  -2169978.496 8
  21475471.590    21475473.844    -2418476.322 9  -3399713.948 9
  20641003.025    20641006.437     -541695.598 8  -1843525.727 8
  22985354.399    22985360.254    -3427373.316 8  -4046562.533 7
 90  2 22  5  4 59.0800000  0  4G 6G 9G11G13
  20380602.757    20380604.661      456389.361 8  -2176193.568 8
  21467653.346    21467655.124    -2459563.018 9  -3431729.549 8
  20638304.788    20638308.384     -555876.891 9  -1854576.076 9
  22975109.622    22975116.013    -3481209.137 9  -4088512.479 7
 90  2 22  5  5 14.0800000  0  4G 6G 9G11G13
  20379108.534    20379111.173      448537.832 8  -2182311.636 8
  21459848.056    21459850.319    -2500577.554 9  -3463688.920 8
  20635630.722    20635635.158     -569926.516 8  -1865523.824 8
  22964879.679    22964884.859    -3534968.613 8  -4130402.920 7
 90  2 22  5  5 29.0800000  0  4G 6G 9G11G13
  20377637.367    20377641.351      440810.803 9  -2188332.703 9
  21452056.439    21452059.510    -2541520.401 8  -3495592.431 8
  20632983.231    20632987.177     -583844.478 8  -1876368.966 8
  22954663.219    22954671.044    -3588651.347 8  -4172233.579 7
 90  2 22  5  5 44.0800000  0  4G 6G 9G11G13
  20376191.433    20376193.905      433208.730 9  -2194256.396 9
  21444279.054    21444282.952    -2582390.585 9  -3527439.313 8
  20630360.070    20630362.375     -597630.799 8  -1887111.549 8
  22944463.177    22944469.373    -3642257.027 8  -4214004.171 8
 90  2 22  5  5 59.0800000  0  4G 6G 9G11G13
  20374768.841    20374771.638      425731.560 9  -2200082.748 8
  21436516.148    21436519.012    -2623187.635 8  -3559229.220 9
  20627761.510    20627764.162     -611285.726 8  -1897751.749 8
  22934277.493    22934282.040    -3695785.528 8  -4255714.644 8
 90  2 22  5  6 14.0800000  0  4G 6G 9G11G13
  20373369.221    20373372.247      418379.322 8  -2205811.762 9
  21428766.822    21428770.331    -2663911.808 9  -3590962.321 9
  20625186.910    20625189.969     -624809.468 8  -1908289.714 8
  22924107.129    22924111.935    -3749236.950 8  -4297365.062 8
 90  2 22  5  6 29.0800000  0  4G 6G 9G11G13
  20371993.946    20371997.229      411152.172 8  -2211443.306 8
  21421031.132    21421033.325    -2704562.584 9  -3622638.230 9
  20622638.622    20622642.430     -638202.114 8  -1918725.523 8
  22913949.230    22913954.549    -3802610.945 9  -4338955.148 8
 90  2 22  5  6 44.0800000  0  4G 6G 9G11G13
  20370642.223    20370645.077      404050.480 8  -2216977.105 8
  21413310.040    21413312.887    -2745139.342 9  -3654256.478 8
  20620115.541    20620119.764     -651463.611 8  -1929059.163 8
  22903807.864    22903813.013    -3855907.331 8  -4380484.756 7
 90  2 22  5  6 59.0800000  0  4G 6G 9G11G13
  20369314.606    20369317.360      397074.245 8  -2222413.134 8
  21405602.420    21405605.102    -2785642.786 9  -3685817.583 8
  20617615.895    20617621.041     -664594.213 9  -1939290.780 8
  22893680.284    22893685.476    -3909125.900 9  -4421953.718 8
 90  2 22  5  7 14.0800000  0  4G 6G 9G11G13
  20368010.781    20368015.133      390223.841 9  -2227751.101 8
  21397908.455    21397911.509    -2826071.447 9  -3717320.424 9
  20615142.663    20615146.979     -677593.947 8  -1949420.440 8
  22883567.372    22883572.705    -3962266.451 9  -4463361.907 8
 90  2 22  5  7 29.0800000  0  4G 6G 9G11G13
  20366731.196    20366734.641      383499.427 9  -2232990.913 9
  21390230.876    21390232.424    -2866425.259 9  -3748764.961 9
  20612692.242    20612698.614     -690462.729 8  -1959448.046 8
  22873469.809    22873475.452    -4015328.664 9  -4504709.036 8
 90  2 22  5  7 44.0800000  0  4G 6G 9G11G13
  20365476.547    20365480.026      376901.216 9  -2238132.370 9
  21382565.169    21382567.023    -2906703.904 9  -3780150.907 8
  20610269.424    20610273.404     -703200.759 8  -1969373.769 8
  22863388.101    22863393.888    -4068312.251 9  -4545994.903 7
 90  2 22  5  7 59.0800000  0  4G 6G 9G11G13
  20364245.575    20364248.386      370429.440 9  -2243175.311 8
  21374915.094    21374916.810    -2946906.965 9  -3811477.959 8
  20607870.987    20607874.336     -715808.008 7  -1979197.604 8
  22853320.092    22853324.830    -4121217.132 9  -4587219.437 8
 90  2 22  5  8 14.0800000  0  4G 6G 9G11G13
  20363038.642    20363040.480      364084.455 8  -2248119.449 9
  21367279.306    21367280.397    -2987034.183 9  -3842745.908 8
  20605495.496    20605500.875     -728284.447 7  -1988919.490 8
  22843268.208    22843273.287    -4174042.742 9  -4628382.213 8
 90  2 22  5  8 29.0800000  0  4G 6G 9G11G13
  20361853.860    20361856.113      357866.329 9  -2252964.745 8
  21359657.572    21359658.379    -3027085.217 9  -3873954.491 8
  20603146.401    20603150.953     -740630.284 8  -1998539.623 8
  22833231.094    22833235.781    -4226789.020 9  -4669483.152 8
 90  2 22  5  8 44.0800000  0  4G 6G 9G11G13
  20360695.559    20360698.380      351775.198 9  -2257711.088 8
  21352050.761    21352052.641    -3067059.796 9  -3905103.504 8
  20600823.053    20600826.854     -752845.624 8  -2008058.048 8
  22823208.646    22823212.460    -4279455.801 9  -4710522.160 7
 90  2 22  5  8 59.0800000  0  4G 6G 9G11G13
  20359560.134    20359564.266      345811.276 9  -2262358.293 9
  21344458.324    21344460.787    -3106957.253 8  -3936192.425 7
  20598522.183    20598527.763     -764930.609 8  -2017474.916 8
  22813202.568    22813206.207    -4332042.682 8  -4751498.919 8
 90  2 22  5  9 14.0800000  0  4G 6G 9G11G13
  20358449.598    20358453.281      339974.806 9  -2266906.186 9
  21336880.262    21336883.188    -3146777.561 9  -3967221.234 8
  20596247.498    20596251.897     -776885.201 8  -2026790.174 7
  22803210.169    22803215.236    -4384549.499 9  -4792413.276 8
 90  2 22  5  9 29.0800000  0  4G 6G 9G11G13
  20357363.740    20357365.630      334265.889 9  -2271354.707 7
  21329317.970    21329320.356    -3186520.301 9  -3998189.583 7
  20593997.738    20594002.190     -788709.491 8  -2036003.905 8
  22793232.476    22793238.353    -4436975.986 9  -4833265.055 8
 90  2 22  5  9 44.0800000  0  4G 6G 9G11G13
  20356300.968    20356304.752      328685.054 8  -2275703.412 9
  21321770.389    21321772.746    -3226185.043 9  -4029097.164 8
  20591772.217    20591777.065     -800403.425 7  -2045116.047 8
  22783272.510    22783277.357    -4489321.751 9  -4874053.911 8
 90  2 22  5  9 59.0800000  0  4G 6G 9G11G13
  20355262.454    20355266.505      323232.511 9  -2279952.145 9
  21314237.247    21314239.695    -3265771.002 9  -4059943.361 8
  20589571.570    20589575.712     -811966.879 8  -2054126.516 8
  22773326.606    22773331.822    -4541586.406 9  -4914779.577 8
 90  2 22  5 10 14.0800000  0  4G 6G 9G11G13
  20354250.231    20354253.419      317908.250 9  -2284100.927 8
  21306719.338    21306721.482    -3305278.325 9  -4090728.274 8
  20587397.313    20587400.948     -823400.176 8  -2063035.590 8
  22763396.023    22763401.173    -4593770.089 9  -4955442.162 7
 90  2 22  5 10 29.0800000  0  4G 6G 9G11G13
  20353262.038    20353264.401      312712.309 8  -2288149.706 8
  21299216.406    21299217.076    -3344706.647 9  -4121451.635 8
  20585246.090    20585249.096     -834703.665 8  -2071843.468 8
  22753481.528    22753487.443    -4645872.838 8  -4996041.653 8
 90  2 22  5 10 44.0800000  0  4G 6G 9G11G13
  20352297.847    20352299.923      307644.993 8  -2292098.257 9
  21291727.789    21291729.651    -3384055.582 9  -4152113.148 8
  20583119.391    20583122.784     -845877.324 8  -2080550.209 8
  22743581.979    22743587.515    -4697894.216 8  -5036577.762 8
 90  2 22  5 10 59.0800000  0  4G 6G 9G11G13
  20351357.876    20351361.020      302706.571 8  -2295946.384 9
  21284255.344    21284256.996    -3423325.084 9  -4182712.765 8
  20581016.421    20581021.958     -856921.100 7  -2089155.752 8
  22733697.226    22733704.000    -4749833.709 9  -5077050.039 8
 90  2 22  5 11 14.0800000  0  4G 6G 9G11G13
  20350443.080    20350445.299      297897.468 9  -2299693.724 8
  21276797.378    21276800.274    -3462513.924 9  -4213249.511 8
  20578940.851    20578945.542     -867834.971 8  -2097660.047 7
  22723831.557    22723835.614    -4801690.966 9  -5117458.244 8
 90  2 22  5 11 29.0800000  0  4G 6G 9G11G13
  20349551.493    20349555.067      293217.854 9  -2303340.187 8
  21269355.088    21269357.841    -3501622.221 9  -4243723.506 8
  20576888.741    20576894.054     -878618.804 8  -2106063.027 7
  22713978.101    22713983.694    -4853465.862 8  -5157802.266 8
 90  2 22  5 11 44.0800000  0  4G 6G 9G11G13
  20348686.426    20348689.580      288667.829 9  -2306885.674 9
  21261929.158    21261932.082    -3540649.265 9  -4274134.177 7
  20574861.789    20574866.000     -889272.960 8  -2114364.957 7
  22704140.818    22704147.053    -4905158.206 8  -5198081.976 8
 90  2 22  5 11 59.0800000  0  4G 6G 9G11G13
  20347845.846    20347847.956      284247.557 8  -2310330.037 8
  21254518.388    21254520.413    -3579595.028 9  -4304481.516 8
  20572859.902    20572861.602     -899797.450 8  -2122565.853 8
  22694319.131    22694325.228    -4956767.760 9  -5238297.170 8
 90  2 22  5 12 14.0800000  0  4G 6G 9G11G13
  20347028.496    20347031.426      279957.416 9  -2313672.998 8
  21247122.238    21247125.130    -3618458.916 9  -4334765.054 7
  20570881.370    20570884.160     -910192.343 8  -2130665.761 7
  22684515.642    22684519.550    -5008293.983 9  -5278447.436 8
 90  2 22  5 12 29.0800000  0  4G 6G 9G11G13
  20346236.988    20346240.333      275797.563 8  -2316914.456 8
  21239742.781    21239744.200    -3657240.594 9  -4364984.531 8
  20568926.546    20568930.409     -920457.624 8  -2138664.678 8
  22674726.520    22674731.845    -5059736.783 9  -5318532.684 8
 90  2 22  5 12 44.0800000  0  4G 6G 9G11G13
  20345471.417    20345473.011      271768.096 9  -2320054.298 8
  21232377.939    21232381.152    -3695939.741 9  -4395139.700 8
  20566998.292    20567002.035     -930593.329 8  -2146562.622 8
  22664952.594    22664956.955    -5111095.913 9  -5358552.744 8
 90  2 22  5 12 59.0800000  0  4G 6G 9G11G13
  20344728.255    20344731.299      267869.270 8  -2323092.342 9
  21225029.125    21225031.144    -3734556.242 8  -4425230.468 8
  20565094.227    20565097.909     -940599.782 8  -2154359.845 7
  22655194.509    22655199.684    -5162371.200 9  -5398507.466 8
 90  2 22  5 13 14.0800000  0  4G 6G 9G11G13
  20344011.288    20344014.351      264101.005 9  -2326028.661 9
  21217695.807    21217699.181    -3773089.713 8  -4455256.546 7
  20563214.786    20563218.518     -950477.129 8  -2162056.466 8
  22645453.695    22645458.734    -5213562.596 9  -5438396.797 8
 90  2 22  5 13 29.0800000  0  4G 6G 9G11G13
  20343319.935    20343321.848      260463.620 9  -2328862.981 8
  21210379.967    21210382.229    -3811539.563 9  -4485217.469 9
  20561359.614    20561362.057     -960225.478 9  -2169652.574 8
  22635727.087    22635733.537    -5264669.933 9  -5478220.657 8
 90  2 22  5 13 44.0800000  0  4G 6G 9G11G13
  20342653.326    20342654.768      256957.363 9  -2331595.123 8
  21203079.144    21203081.307    -3849905.693 9  -4515113.133 8
  20559529.303    20559531.931     -969844.808 8  -2177148.145 8
  22626018.783    22626023.571    -5315692.593 9  -5517978.539 7
 90  2 22  5 13 59.0800000  0  4G 6G 9G11G13
  20342010.157    20342012.233      253582.385 8  -2334224.978 8
  21195794.724    21195796.925    -3888187.617 9  -4544943.211 8
  20557724.029    20557726.237     -979335.237 8  -2184543.289 8
  22616325.659    22616329.499    -5366630.717 9  -5557670.543 8
 90  2 22  5 14 14.0800000  0  4G 6G 9G11G13
  20341392.304    20341395.335      250338.632 9  -2336752.583 8
  21188525.251    21188528.178    -3926385.189 9  -4574707.547 8
  20555941.128    20555946.119     -988697.029 8  -2191838.194 8
  22606648.573    22606652.335    -5417484.312 8  -5597296.666 8
 90  2 22  5 14 29.0800000  0  4G 6G 9G11G13
  20340800.457    20340802.720      247226.359 8  -2339177.747 7
  21181272.683    21181276.230    -3964497.892 8  -4604405.750 8
  20554184.441    20554188.850     -997930.379 8  -2199033.003 8
  22596986.782    22596991.785    -5468252.962 9  -5636856.608 7
 90  2 22  5 14 44.0800000  0  4G 6G 9G11G13
  20340231.734    20340235.136      244245.749 9  -2341500.297 8
  21174035.794    21174038.982    -4002525.684 9  -4634037.796 8
  20552451.862    20552453.531    -1007035.189 9  -2206127.655 8
  22587343.319    22587346.924    -5518936.336 8  -5676350.109 8
 90  2 22  5 14 59.0800000  0  4G 6G 9G11G13
  20339690.856    20339693.185      241396.947 9  -2343720.145 8
  21166815.854    21166819.163    -4040468.011 9  -4663603.244 8
  20550745.050    20550747.713    -1016011.668 8  -2213122.310 7
  22577714.336    22577718.936    -5569534.107 8  -5715776.914 7
 90  2 22  5 15 14.0800000  0  4G 6G 9G11G13
  20339172.615    20339177.347      238680.241 9  -2345837.065 8
  21159612.149    21159614.403    -4078324.336 9  -4693101.656 8
  20549058.747    20549062.006    -1024859.749 8  -2220016.897 7
  22568102.320    22568106.105    -5620046.229 8  -5755136.965 7
 90  2 22  5 15 29.0800000  0  4G 6G 9G11G13
  20338682.153    20338684.234      236095.554 8  -2347851.109 8
  21152425.101    21152427.435    -4116094.488 9  -4722532.949 9
  20547400.640    20547403.500    -1033579.807 9  -2226811.755 8
  22558505.677    22558510.228    -5670472.675 9  -5794430.258 8
 90  2 22  5 15 44.0800000  0  4G 6G 9G11G13
  20338215.358    20338217.778      233643.252 8  -2349761.992 9
  21145253.565    21145256.164    -4153778.408 9  -4751897.022 8
  20545765.403    20545769.767    -1042171.909 8  -2233506.895 8
  22548926.797    22548930.842    -5720812.982 9  -5833656.428 8
 90  2 22  5 15 59.0800000  0  4G 6G 9G11G13
  20337774.787    20337776.983      231323.525 8  -2351569.575 8
  21138099.760    21138101.680    -4191375.287 9  -4781193.287 8
  20544155.008    20544159.171    -1050636.026 7  -2240102.311 7
  22539363.416    22539367.861    -5771066.996 9  -5872815.360 8
 90  2 22  5 16 14.0800000  0  4G 6G 9G11G13
  20337358.409    20337361.544      229136.591 8  -2353273.674 9
  21130962.044    21130963.685    -4228884.503 8  -4810421.244 9
  20542568.423    20542572.439    -1058972.286 8  -2246598.081 8
  22529817.436    22529820.866    -5821234.476 9  -5911906.855 7
 90  2 22  5 16 29.0800000  0  4G 6G 9G11G13
  20336967.138    20336968.857      227082.385 8  -2354874.360 9
  21123840.654    21123843.953    -4266306.528 9  -4839581.263 8
  20541005.786    20541010.603    -1067181.109 8  -2252994.554 8
  22520286.713    22520291.435    -5871315.369 9  -5950930.907 7
 90  2 22  5 16 44.0800000  0  4G 6G 9G11G13
  20336600.594    20336603.467      225161.212 8  -2356371.375 8
  21116735.951    21116738.003    -4303640.512 9  -4868672.661 8
  20539467.634    20539471.709    -1075262.334 9  -2259291.621 7
  22510773.017    22510777.550    -5921309.238 9  -5989887.135 7
 90  2 22  5 16 59.0800000  0  4G 6G 9G11G13
  20336262.439    20336264.063      223373.323 9  -2357764.544 9
  21109648.642    21109650.436    -4340886.074 9  -4897695.174 8
  20537954.437    20537958.008    -1083215.978 8  -2265489.249 8
  22501276.280    22501280.411    -5971215.873 8  -6028775.389 7
 90  2 22  5 17 14.0800000  0  4G 6G 9G11G13
  20335946.025    20335949.112      221718.897 8  -2359053.713 7
  21102577.585    21102580.409    -4378042.829 9  -4926648.472 8
  20536465.815    20536469.063    -1091042.138 8  -2271587.558 8
  22491796.151    22491800.406    -6021035.071 9  -6067595.514 7
 90  2 22  5 17 29.0800000  0  4G 6G 9G11G13
  20335656.903    20335659.213      220198.214 9  -2360238.668 9
  21095524.373    21095524.516    -4415110.406 9  -4955532.293 8
  20535000.907    20535004.534    -1098740.915 8  -2277586.593 8
  22482332.489    22482336.880    -6070766.611 8  -6106347.342 8
 90  2 22  5 17 44.0800000  0  4G 6G 9G11G13
  20335392.669    20335397.097      218811.476 9  -2361319.241 8
  21088487.572    21088489.635    -4452088.271 9  -4984346.210 7
  20533559.499    20533563.948    -1106312.282 8  -2283486.364 8
  22472885.711    22472890.021    -6120410.019 9  -6145030.481 7
 90  2 22  5 17 59.0800000  0  4G 6G 9G11G13
  20335153.915    20335157.208      217558.765 9  -2362295.387 8
  21081467.930    21081469.407    -4488976.050 9  -5013089.935 8
  20532143.583    20532147.286    -1113756.494 8  -2289287.035 8
  22463455.541    22463459.721    -6169965.343 9  -6183644.979 7
 90  2 22  5 18 14.0800000  0  4G 6G 9G11G13
  20334941.300    20334944.630      216440.082 9  -2363167.090 9
  21074465.251    21074467.229    -4525773.892 9  -5041763.579 8
  20530750.910    20530755.123    -1121073.831 8  -2294988.846 8
  22454041.970    22454046.939    -6219432.453 9  -6222190.755 8
 90  2 22  5 18 29.0800000  0  4G 6G 9G11G13
  20334755.385    20334757.657      215455.587 9  -2363934.225 8
  21067480.481    21067482.658    -4562481.380 9  -5070366.823 8
  20529383.073    20529386.945    -1128264.371 8  -2300591.856 8
  22444645.696    22444649.343    -6268811.131 9  -6260667.614 7
 90  2 22  5 18 44.0800000  0  4G 6G 9G11G13
  20334593.252    20334595.524      214605.642 8  -2364596.522 8
  21060512.261    21060515.091    -4599097.801 9  -5098899.085 8
  20528037.526    20528042.343    -1135328.279 8  -2306096.192 8
  22435266.205    22435270.320    -6318100.959 8  -6299075.233 7
 90  2 22  5 18 59.0800000  0  4G 6G 9G11G13
  20334457.191    20334459.911      213890.348 8  -2365153.898 8
  21053562.548    21053563.798    -4635622.943 9  -5127360.232 7
  20526719.047    20526721.319    -1142265.463 8  -2311501.781 8
  22425903.148    22425907.516    -6367301.600 9  -6337413.366 7
 90  2 22  5 19 14.0800000  0  4G 6G 9G11G13
  20334346.266    20334348.395      213309.874 8  -2365606.223 8
  21046628.959    21046630.771    -4672056.202 9  -5155749.775 8
  20525422.481    20525425.387    -1149075.955 8  -2316808.660 8
  22416558.755    22416562.899    -6416413.029 9  -6375681.980 8
 90  2 22  5 19 29.0800000  0  4G 6G 9G11G13
  20334261.546    20334263.913      212864.462 9  -2365953.308 8
  21039713.417    21039715.483    -4708397.473 9  -5184067.658 8
  20524150.100    20524154.383    -1155759.936 8  -2322016.940 8
  22407229.583    22407233.895    -6465434.932 9  -6413880.838 8
 90  2 22  5 19 44.0800000  0  4G 6G 9G11G13
  20334202.258    20334205.011      212554.258 9  -2366195.030 8
  21032814.524    21032819.744    -4744646.232 9  -5212313.427 7
  20522902.575    20522907.048    -1162317.489 8  -2327126.724 7
  22397918.097    22397922.295    -6514366.964 9  -6452009.664 8
 90  2 22  5 19 59.0800000  0  4G 6G 9G11G13
  20334168.927    20334171.594      212379.243 9  -2366331.407 7
  21025934.182    21025938.883    -4780802.333 9  -5240487.002 8
  20521679.728    20521681.173    -1168748.916 8  -2332138.205 9
  22388623.320    22388627.212    -6563209.195 9  -6490068.509 8
 90  2 22  5 20 14.0800000  0  4G 6G 9G11G13
  20334162.011    20334164.760      212339.862 9  -2366362.093 7
  21019072.779    21019075.188    -4816865.084 9  -5268587.841 8
  20520478.772    20520481.969    -1175054.048 7  -2337051.283 8
  22379347.371    22379351.054    -6611961.341 9  -6528057.162 8
 90  2 22  5 20 29.0800000  0  4G 6G 9G11G13
  20334179.955    20334182.064      212436.079 8  -2366287.121 8
  21012228.330    21012229.959    -4852834.130 9  -5296615.650 8
  20519303.670    20519306.982    -1181233.351 8  -2341866.321 9
  22370086.335    22370090.791    -6660623.225 9  -6565975.476 7
 90  2 22  5 20 44.0800000  0  4G 6G 9G11G13
  20334225.601    20334227.529      212668.251 9  -2366106.202 8
  21005400.980    21005403.562    -4888709.235 9  -5324570.278 8
  20518151.377    20518154.603    -1187286.642 8  -2346583.168 8
  22360843.322    22360848.781    -6709194.253 9  -6603822.994 8
 90  2 22  5 20 59.0800000  0  4G 6G 9G11G13
  20334294.714    20334296.251      213036.359 8  -2365819.376 8
  20998592.299    20998594.672    -4924490.059 8  -5352451.434 7
  20517023.087    20517027.258    -1193214.384 8  -2351202.184 8
  22351617.817    22351622.940    -6757674.630 8  -6641599.883 8
 90  2 22  5 21 14.0800000  0  4G 6G 9G11G13
  20334389.851    20334393.339      213540.779 9  -2365426.323 8
  20991800.998    20991804.458    -4960176.239 9  -5380258.839 7
  20515917.788    20515921.868    -1199016.228 8  -2355723.097 9
  22342409.140    22342413.727    -6806063.712 9  -6679305.626 8
 90  2 22  5 21 29.0800000  0  4G 6G 9G11G13
  20334511.746    20334514.557      214181.554 9  -2364927.015 8
  20985029.063    20985030.883    -4995767.017 9  -5407991.913 8
  20514838.236    20514842.153    -1204692.535 8  -2360146.194 8
  22333219.618    22333222.245    -6854361.585 9  -6716940.304 8
 90  2 22  5 21 44.0800000  0  4G 6G 9G11G13
  20334659.884    20334662.309      214958.616 9  -2364321.521 8
  20978275.496    20978276.890    -5031262.823 9  -5435650.980 8
  20513782.746    20513786.121    -1210243.637 8  -2364471.713 8
  22324045.586    22324049.880    -6902568.182 9  -6754503.867 8
 90  2 22  5 21 59.0800000  0  4G 6G 9G11G13
  20334833.970    20334836.914      215871.944 9  -2363609.835 8
  20971538.905    20971540.417    -5066662.898 9  -5463235.449 9
  20512750.212    20512753.738    -1215669.813 8  -2368699.897 8
  22314888.709    22314894.223    -6950683.355 9  -6791996.176 8
 90  2 22  5 22 14.0800000  0  4G 6G 9G11G13
  20335033.745    20335036.461      216921.744 9  -2362791.801 8
  20964819.922    20964822.655    -5101967.343 9  -5490745.389 8
  20511741.204    20511745.412    -1220971.179 8  -2372830.826 8
  22305751.525    22305755.228    -6998707.056 9  -6829417.205 7
 90  2 22  5 22 29.0800000  0  4G 6G 9G11G13
  20335258.724    20335262.188      218108.084 9  -2361867.389 8
  20958120.189    20958122.973    -5137175.561 9  -5518180.359 8
  20510756.877    20510760.475    -1226147.921 9  -2376864.644 7
  22296630.880    22296634.365    -7046639.037 9  -6866766.778 7
 90  2 22  5 22 44.0800000  0  4G 6G 9G11G13
  20335511.233    20335512.918      219431.165 9  -2360836.415 9
  20951438.889    20951440.865    -5172287.191 9  -5545540.066 8
  20509794.297    20509797.268    -1231200.004 9  -2380801.330 8
  22287526.545    22287530.085    -7094479.054 9  -6904044.692 8
 90  2 22  5 22 59.0800000  0  4G 6G 9G11G13
  20335789.108    20335792.052      220891.162 9  -2359698.775 8
  20944775.808    20944778.571    -5207302.008 9  -5572824.331 7
  20508856.957    20508860.331    -1236127.626 8  -2384641.026 8
  22278441.108    22278444.474    -7142226.867 9  -6941250.745 8
 90  2 22  5 23 14.0800000  0  4G 6G 9G11G13
  20336092.682    20336095.527      222487.969 8  -2358454.511 7
  20938130.985    20938133.351    -5242219.682 9  -5600032.904 8
  20507943.954    20507946.031    -1240931.183 8  -2388384.042 8
  22269371.574    22269376.291    -7189882.670 9  -6978385.124 7
 90  2 22  5 23 29.0800000  0  4G 6G 9G11G13
  20336422.996    20336424.614      224221.836 8  -2357103.445 8
  20931505.004    20931506.247    -5277039.858 9  -5627165.504 7
  20507053.510    20507055.238    -1245610.619 8  -2392030.376 7
  22260320.459    22260325.567    -7237446.047 9  -7015447.448 8
 90  2 22  5 23 44.0800000  0  4G 6G 9G11G13
  20336778.312    20336781.690      226092.914 8  -2355645.468 9
  20924896.960    20924899.447    -5311762.123 9  -5654221.816 8
  20506185.969    20506188.952    -1250166.112 8  -2395580.085 8
  22251287.025    22251291.617    -7284916.697 9  -7052437.552 8
 90  2 22  5 23 59.0800000  0  4G 6G 9G11G13
  20337159.805    20337163.774      228101.158 9  -2354080.606 8
  20918307.683    20918310.407    -5346386.153 9  -5681201.574 8
  20505343.420    20505345.624    -1254597.962 8  -2399033.463 8
  22242271.576    22242275.212    -7332294.482 9  -7089355.271 8
 90  2 22  5 24 14.0800000  0  4G 6G 9G11G13
  20337568.923    20337571.653      230246.890 9  -2352408.615 8
  20911737.833    20911741.569    -5380911.590 8  -5708104.511 8
  20504522.447    20504526.012    -1258906.168 9  -2402390.502 7
  22233272.218    22233277.935    -7379579.350 9  -7126200.600 9
 90  2 22  5 24 29.0800000  0  4G 6G 9G11G13
  20338004.304    20338005.794      232530.313 8  -2350629.330 8
  20905186.112    20905189.912    -5415337.930 9  -5734930.240 8
  20503726.713    20503729.853    -1263090.798 8  -2405651.260 9
  22224292.620    22224297.423    -7426770.809 9  -7162973.139 8
 90  2 22  5 24 44.0800000  0  4G 6G 9G11G13
  20338464.201    20338466.917      234951.776 8  -2348742.470 8
  20898655.102    20898658.506    -5449664.675 9  -5761678.339 7
  20502953.881    20502957.693    -1267151.907 9  -2408815.747 8
  22215329.915    22215335.408    -7473868.503 9  -7199672.628 7
 90  2 22  5 24 59.0800000  0  4G 6G 9G11G13
  20338951.200    20338953.291      237511.340 9  -2346748.017 8
  20892141.029    20892145.024    -5483891.577 8  -5788348.647 8
  20502203.655    20502208.459    -1271089.667 8  -2411884.132 8
  22206386.134    22206389.880    -7520872.354 9  -7236298.974 8
 90  2 22  5 25 14.0800000  0  4G 6G 9G11G13
  20339464.252    20339467.167      240208.999 8  -2344645.952 9
  20885646.615    20885650.769    -5518018.421 9  -5814940.968 8
  20501478.698    20501481.614    -1274904.362 8  -2414856.620 8
  22197459.210    22197464.184    -7567782.294 9  -7272852.145 7
 90  2 22  5 25 29.0800000  0  4G 6G 9G11G13
  20340003.975    20340006.571      243044.931 8  -2342436.145 9
  20879172.395    20879174.227    -5552044.604 9  -5841454.882 8
  20500775.904    20500779.553    -1278596.091 8  -2417733.283 8
  22188550.520    22188554.758    -7614597.946 9  -7309331.843 9
 90  2 22  5 25 44.0800000  0  4G 6G 9G11G13
  20340571.163    20340573.220      246019.208 8  -2340118.529 7
  20872716.763    20872719.934    -5585969.890 9  -5867890.166 8
  20500096.797    20500099.720    -1282164.942 9  -2420514.213 8
  22179659.532    22179664.983    -7661319.206 9  -7345737.999 8
 90  2 22  5 25 59.0800000  0  4G 6G 9G11G13
  20341163.229    20341166.012      249132.020 9  -2337692.955 9
  20866280.592    20866283.488    -5619793.928 9  -5894246.546 8
  20499440.711    20499444.395    -1285611.075 9  -2423199.507 8
  22170787.003    22170792.454    -7707946.033 9  -7382070.569 8
 90  2 22  5 26 14.0800000  0  4G 6G 9G11G13
  20341781.263    20341784.984      252383.561 8  -2335159.285 8
  20859863.146    20859866.387    -5653516.213 9  -5920523.664 8
  20498808.738    20498812.341    -1288934.494 8  -2425789.177 7
  22161932.112    22161936.817    -7754478.020 9  -7418329.250 7
 90  2 22  5 26 29.0800000  0  4G 6G 9G11G13
  20342427.924    20342429.747      255773.737 8  -2332517.591 8
  20853465.927    20853467.913    -5687136.767 9  -5946721.499 8
  20498199.245    20498202.195    -1292135.562 9  -2428283.516 8
  22153095.127    22153100.093    -7800915.438 9  -7454514.238 7
 90  2 22  5 26 44.0800000  0  4G 6G 9G11G13
  20343098.595    20343100.690      259302.569 9  -2329767.859 8
  20847087.719    20847090.343    -5720655.103 9  -5972839.680 8
  20497612.702    20497615.678    -1295214.584 8  -2430682.744 7
  22144277.030    22144280.892    -7847258.017 9  -7490625.321 7
 90  2 22  5 26 59.0800000  0  4G 6G 9G11G13
  20343795.758    20343798.478      262970.097 9  -2326910.046 9
  20840728.001    20840731.422    -5754071.073 9  -5998878.099 9
  20497050.770    20497054.822    -1298171.780 9  -2432987.031 8
  22135476.677    22135480.222    -7893505.577 8  -7526662.348 7
 90  2 22  5 27 14.0800000  0  4G 6G 9G11G13
  20344521.005    20344523.559      266776.500 7  -2323944.035 9
  20834389.489    20834391.485    -5787384.355 9  -6024836.495 8
  20496510.927    20496512.811    -1301007.275 8  -2435196.500 8
  22126693.821    22126698.196    -7939657.767 8  -7562625.072 7
 90  2 22  5 27 29.0800000  0  4G 6G 9G11G13
  20345272.190    20345274.166      270721.850 8  -2320869.746 7
  20828070.165    20828071.080    -5820594.344 8  -6050714.399 8
  20495994.065    20495997.258    -1303721.211 8  -2437311.254 8
  22117929.601    22117934.593    -7985714.589 8  -7598513.478 8
 90  2 22  5 27 44.0800000  0  4G 6G 9G11G13
  20346047.843    20346050.974      274805.992 9  -2317687.310 8
  20821769.975    20821772.785    -5853701.290 8  -6076512.007 8
  20495501.001    20495504.690    -1306314.178 8  -2439331.736 9
  22109182.780    22109186.776    -8031676.195 8  -7634327.695 8
 90  2 22  5 27 59.0800000  0  4G 6G 9G11G13
  20346852.278    20346855.084      279029.186 8  -2314396.525 8
  20815490.073    20815491.106    -5886704.379 9  -6102228.692 8
  20495030.515    20495033.622    -1308785.932 8  -2441257.785 7
  22100454.513    22100458.866    -8077542.283 8  -7670067.472 7
 90  2 22  5 28 14.0800000  0  4G 6G 9G11G13
  20347683.317    20347684.754      283391.700 8  -2310997.166 8
  20809229.503    20809229.550    -5919603.349 9  -6127864.249 7
  20494584.008    20494587.287    -1311136.545 9  -2443089.427 7
  22091745.121    22091748.621    -8123312.426 9  -7705732.499 8
 90  2 22  5 28 29.0800000  0  4G 6G 9G11G13
  20348538.530    20348541.355      287893.752 8  -2307489.082 8
  20802988.608    20802991.032    -5952397.569 9  -6153418.191 9
  20494159.805    20494161.667    -1313366.178 9  -2444826.791 8
  22083053.930    22083058.269    -8168986.187 9  -7741322.423 7
 90  2 22  5 28 44.0800000  0  4G 6G 9G11G13
  20349422.094    20349424.947      292535.145 8  -2303872.419 8
  20796768.248    20796769.158    -5985087.193 9  -6178890.610 8
  20493757.478    20493761.205    -1315475.231 8  -2446470.206 8
  22074380.581    22074385.676    -8214563.964 9  -7776837.543 7
 90  2 22  5 28 59.0800000  0  4G 6G 9G11G13
  20350331.128    20350334.125      297315.930 8  -2300147.117 9
  20790567.285    20790569.194    -6017671.670 8  -6204281.114 8
  20493379.503    20493382.751    -1317463.908 9  -2448019.825 8
  22065725.282    22065730.244    -8260045.452 9  -7812277.632 8
 90  2 22  5 29 14.0800000  0  4G 6G 9G11G13
  20351267.836    20351271.467      302236.164 8  -2296313.178 8
  20784386.251    20784388.716    -6050150.875 9  -6229589.598 8
  20493022.947    20493027.451    -1319332.475 9  -2449475.846 8
  22057089.677    22057093.695    -8305430.579 8  -7847642.651 7
 90  2 22  5 29 29.0800000  0  4G 6G 9G11G13
  20352231.055    20352234.428      307295.990 8  -2292370.475 8
  20778227.450    20778228.232    -6082524.285 9  -6254815.623 8
  20492690.973    20492694.734    -1321081.075 9  -2450838.390 7
  22048470.637    22048475.841    -8350719.074 9  -7882932.361 7
 90  2 22  5 29 44.0800000  0  4G 6G 9G11G13
  20353220.907    20353223.637      312495.564 8  -2288318.871 8
  20772086.303    20772088.025    -6114791.651 9  -6279959.025 8
  20492380.047    20492385.190    -1322709.885 7  -2452107.571 7
  22039871.284    22039874.626    -8395910.836 9  -7918146.700 8
 90  2 22  5 29 59.0800000  0  4G 6G 9G11G13
  20354236.622    20354238.578      317835.082 8  -2284158.223 9
  20765965.934    20765969.070    -6146952.320 9  -6305019.287 9
  20492093.579    20492097.571    -1324218.837 8  -2453283.371 8
  22031289.022    22031293.530    -8441005.383 9  -7953285.293 7
 90  2 22  5 30 14.0800000  0  4G 6G 9G11G13
  20355279.675    20355282.157      323314.568 8  -2279888.496 8
  20759866.464    20759869.494    -6179006.289 8  -6329996.416 7
  20491829.960    20491833.461    -1325608.223 8  -2454365.998 8
  22022727.314    22022732.270    -8486002.672 9  -7988348.093 7
 90  2 22  5 30 29.0800000  0  4G 6G 9G11G13
  20356348.181    20356352.513      328934.194 8  -2275509.565 8
  20753785.509    20753789.750    -6210953.046 9  -6354889.983 8
  20491587.424    20491591.271    -1326878.207 9  -2455355.591 7
  22014184.015    22014187.989    -8530902.645 9  -8023335.061 7
 90  2 22  5 30 44.0800000  0  4G 6G 9G11G13
  20357445.343    20357447.967      334693.927 9  -2271021.460 8
  20747727.080    20747730.583    -6242792.242 9  -6379699.729 8
  20491368.396    20491372.078    -1328028.862 8  -2456252.194 8
  22005657.736    22005661.803    -8575704.957 9  -8058245.935 8
 90  2 22  5 30 59.0800000  0  4G 6G 9G11G13
  20358568.176    20358570.033      340593.877 9  -2266424.106 9
  20741688.952    20741692.706    -6274523.715 8  -6404425.557 9
  20491172.455    20491175.548    -1329060.554 9  -2457056.100 8
  21997150.627    21997154.387    -8620409.762 9  -8093080.816 7
 90  2 22  5 31 14.0800000  0  4G 6G 9G11G13
  20359716.288    20359719.647      346634.017 8  -2261717.513 8
  20735672.551    20735675.433    -6306146.942 9  -6429067.014 8
  20490999.326    20491001.908    -1329973.523 8  -2457767.499 8
  21988662.521    21988665.608    -8665016.916 9  -8127839.605 8
 90  2 22  5 31 29.0800000  0  4G 6G 9G11G13
  20360892.418    20360896.707      352814.667 9  -2256901.430 8
  20729674.488    20729677.342    -6337661.513 9  -6453623.832 8
  20490847.393    20490850.426    -1330767.711 9  -2458386.351 8
  21980192.649    21980196.184    -8709525.868 9  -8162521.897 8
 90  2 22  5 31 44.0800000  0  4G 6G 9G11G13
  20362096.555    20362099.094      359135.986 8  -2251975.728 8
  20723697.723    20723700.846    -6369067.141 9  -6478095.745 7
  20490717.802    20490722.101    -1331443.203 8  -2458912.703 8
  21971741.574    21971745.995    -8753936.597 9  -8197127.634 8
 90  2 22  5 31 59.0800000  0  4G 6G 9G11G13
  20363325.590    20363329.040      365597.970 8  -2246940.421 9
  20717742.792    20717745.881    -6400363.428 8  -6502482.461 8
  20490612.412    20490616.981    -1332000.268 8  -2459346.779 8
  21963308.354    21963313.306    -8798249.031 9  -8231656.777 8
 90  2 22  5 32 14.0800000  0  4G 6G 9G11G13
  20364582.472    20364585.016      372200.869 9  -2241795.306 8
  20711807.636    20711809.999    -6431549.910 9  -6526783.604 9
  20490528.908    20490532.409    -1332438.951 7  -2459688.609 9
  21954894.913    21954899.626    -8842462.621 9  -8266108.907 9
 90  2 22  5 32 29.0800000  0  4G 6G 9G11G13
  20365865.787    20365868.712      378944.804 9  -2236540.311 9
  20705894.158    20705897.127    -6462626.071 9  -6550998.800 9
  20490468.070    20490471.509    -1332759.396 8  -2459938.301 8
  21946500.500    21946503.919    -8886577.209 9  -8300483.886 8
 90  2 22  5 32 44.0800000  0  4G 6G 9G11G13
  20367176.022    20367178.943      385829.758 9  -2231175.415 8
  20700002.027    20700004.522    -6493591.947 9  -6575128.042 8
  20490429.460    20490433.716    -1332961.864 9  -2460096.057 8
  21938123.727    21938128.102    -8930592.933 9  -8334781.843 8
 90  2 22  5 32 59.0800000  0  4G 6G 9G11G13
  20368513.149    20368515.269      392855.509 8  -2225700.807 9
  20694130.627    20694132.889    -6524447.287 9  -6599171.169 8
  20490413.531    20490417.406    -1333046.905 8  -2460162.320 8
  21929766.749    21929772.317    -8974509.706 9  -8369002.677 8
 90  2 22  5 33 14.0800000  0  4G 6G 9G11G13
  20369876.672    20369879.235      400022.711 8  -2220115.969 9
  20688280.322    20688282.580    -6555191.187 9  -6623127.458 8
  20490420.373    20490423.528    -1333014.058 9  -2460136.712 8
  21921429.810    21921433.298    -9018326.811 9  -8403145.859 7
 90  2 22  5 33 29.0800000  0  4G 6G 9G11G13
  20371267.783    20371270.017      407330.709 8  -2214421.433 8
  20682450.377    20682452.842    -6585824.013 8  -6646997.193 8
  20490447.839    20490452.248    -1332864.173 8  -2460019.910 8
  21913110.445    21913114.625    -9062044.808 9  -8437211.804 8
 90  2 22  5 33 44.0800000  0  4G 6G 9G11G13
  20372684.708    20372688.606      414779.910 8  -2208616.869 7
  20676642.423    20676645.258    -6616345.129 8  -6670779.879 7
  20490498.942    20490502.288    -1332597.224 8  -2459811.887 7
  21904809.700    21904814.435    -9105663.309 9  -8471200.220 8
 90  2 22  5 33 59.0800000  0  4G 6G 9G11G13
  20374129.860    20374132.361      422370.855 9  -2202701.851 8
  20670855.473    20670859.309    -6646753.729 9  -6694474.890 7
  20490572.475    20490574.554    -1332213.027 8  -2459512.511 8
  21896527.916    21896532.233    -9149181.923 9  -8505110.808 7
 90  2 22  5 34 14.0800000  0  4G 6G 9G11G13
  20375601.589    20375603.145      430103.321 9  -2196676.549 8
  20665091.234    20665092.965    -6677049.705 8  -6718082.144 7
  20490667.714    20490670.137    -1331711.829 8  -2459121.957 7
  21888265.167    21888269.625    -9192600.449 9  -8538943.398 7
 90  2 22  5 34 29.0800000  0  4G 6G 9G11G13
  20377099.742    20377101.651      437977.541 9  -2190540.800 9
  20659348.382    20659350.577    -6707232.636 9  -6741601.310 7
  20490786.108    20490788.529    -1331093.897 9  -2458640.459 8
  21880022.006    21880027.009    -9235918.755 9  -8572697.895 8
 90  2 22  5 34 44.0800000  0  4G 6G 9G11G13
  20378624.367    20378627.064      445993.247 9  -2184294.805 8
  20653625.863    20653628.334    -6737302.569 9  -6765032.421 8
  20490925.790    20490928.291    -1330359.538 9  -2458068.218 8
  21871798.113    21871802.227    -9279136.836 9  -8606374.295 7
 90  2 22  5 34 59.0800000  0  4G 6G 9G11G13
  20380176.734    20380179.263      454150.528 9  -2177938.481 9
  20647925.731    20647927.892    -6767259.060 8  -6788375.147 8
  20491087.226    20491090.035    -1329508.960 9  -2457405.426 8
  21863592.560    21863596.730    -9322254.789 9  -8639972.672 8
 90  2 22  5 35 14.0800000  0  4G 6G 9G11G13
  20381755.838    20381757.743      462449.427 9  -2171471.813 8
  20642246.228    20642248.926    -6797101.859 9  -6811629.251 7
  20491270.877    20491273.557    -1328542.410 9  -2456652.279 8
  21855406.901    21855412.495    -9365272.234 8  -8673492.726 7
 90  2 22  5 35 29.0800000  0  4G 6G 9G11G13
  20383361.683    20383365.405      470889.778 9  -2164894.940 8
  20636589.036    20636591.012    -6826830.712 9  -6834794.601 8
  20491477.056    20491479.839    -1327460.328 8  -2455809.088 8
  21847240.420    21847244.963    -9408189.389 8  -8706934.653 8
 90  2 22  5 35 44.0800000  0  4G 6G 9G11G13
  20384995.544    20384998.174      479471.741 9  -2158207.679 8
  20630953.709    20630955.773    -6856445.333 9  -6857870.929 8
  20491704.587    20491708.504    -1326262.887 9  -2454876.002 7
  21839092.877    21839096.512    -9451006.140 9  -8740298.317 7
 90  2 22  5 35 59.0800000  0  4G 6G 9G11G13
  20386655.897    20386658.145      488195.449 9  -2151410.003 9
  20625338.839    20625341.620    -6885945.194 8  -6880857.821 8
  20491954.515    20491957.732    -1324950.085 8  -2453853.029 8
  21830964.340    21830968.398    -9493721.868 9  -8773583.286 7
 90  2 22  5 36 14.0800000  0  4G 6G 9G11G13
  20388342.550    20388345.699      497060.932 9  -2144501.852 8
  20619746.835    20619750.355    -6915330.247 8  -6903755.257 8
  20492226.867    20492228.491    -1323522.236 9  -2452740.422 8
  21822854.189    21822859.131    -9536336.509 9  -8806789.493 7
 90  2 22  5 36 29.0800000  0  4G 6G 9G11G13
  20390056.667    20390058.901      506068.454 8  -2137482.998 8
  20614177.546    20614179.335    -6944599.790 9  -6926562.686 7
  20492518.927    20492522.585    -1321979.460 8  -2451538.258 8
  21814764.651    21814768.692    -9578850.160 9  -8839916.996 7
 90  2 22  5 36 44.0800000  0  4G 6G 9G11G13
  20391798.115    20391799.848      515217.754 9  -2130353.684 8
  20608629.579    20608631.830    -6973753.617 8  -6949279.934 8
  20492835.117    20492838.324    -1320322.028 8  -2450246.748 8
  21806693.960    21806697.614    -9621262.753 9  -8872965.749 7
 90  2 22  5 36 59.0800000  0  4G 6G 9G11G13
  20393566.311    20393568.378      524509.112 9  -2123113.668 8
  20603104.219    20603107.089    -7002791.539 9  -6971906.881 7
  20493172.528    20493175.847    -1318550.021 9  -2448865.951 8
  21798642.312    21798648.017    -9663573.888 9  -8905935.449 7
 90  2 22  5 37 14.0800000  0  4G 6G 9G11G13
  20395360.865    20395363.900      533942.642 9  -2115762.866 9
  20597600.279    20597602.834    -7031712.851 9  -6994442.961 8
  20493531.426    20493534.238    -1316663.505 8  -2447395.949 8
  21790610.064    21790616.010    -9705783.359 9  -8938825.919 8
 90  2 22  5 37 29.0800000  0  4G 6G 9G11G13
  20397182.730    20397185.847      543518.258 9  -2108301.358 8
  20592119.688    20592123.191    -7060517.616 9  -7016888.229 7
  20493912.344    20493915.566    -1314662.789 8  -2445836.935 8
  21782596.786    21782601.517    -9747891.277 8  -8971637.257 7
 90  2 22  5 37 44.0800000  0  4G 6G 9G11G13
  20399032.356    20399035.166      553236.031 9  -2100729.064 9
  20586661.511    20586662.627    -7089205.140 9  -7039242.155 8
  20494315.069    20494317.878    -1312548.118 8  -2444189.130 9
  21774604.542    21774608.036    -9789897.199 9  -9004369.119 8
 90  2 22  5 37 59.0800000  0  4G 6G 9G11G13
  20400908.625    20400911.068      563096.113 9  -2093045.897 8
  20581223.904    20581225.225    -7117775.249 9  -7061504.577 7
  20494738.492    20494741.645    -1310319.615 9  -2442452.625 7
  21766630.354    21766633.820    -9831801.016 9  -9037021.416 8
 90  2 22  5 38 14.0800000  0  4G 6G 9G11G13
  20402812.062    20402815.230      573098.614 8  -2085251.747 7
  20575808.899    20575812.376    -7146227.444 8  -7083675.119 7
  20495185.128    20495187.287    -1307977.488 8  -2440627.590 8
  21758676.278    21758679.407    -9873602.630 9  -9069594.079 8
 90  2 22  5 38 29.0800000  0  4G 6G 9G11G13
  20404742.276    20404745.330      583243.454 9  -2077346.692 8
  20570418.679    20570420.215    -7174561.722 9  -7105753.776 8
  20495651.464    20495654.604    -1305522.038 9  -2438714.241 7
  21750740.854    21750744.943    -9915301.924 9  -9102087.016 8
 90  2 22  5 38 44.0800000  0  4G 6G 9G11G13
  20406699.822    20406702.532      593530.665 9  -2069330.682 8
  20565048.532    20565051.495    -7202777.526 9  -7127740.119 8
  20496140.540    20496142.101    -1302953.355 7  -2436712.680 7
  21742825.292    21742828.983    -9956898.669 9  -9134500.050 7
 90  2 22  5 38 59.0800000  0  4G 6G 9G11G13
  20408685.289    20408687.064      603960.435 8  -2061203.603 8
  20559702.186    20559705.581    -7230874.455 8  -7149633.815 8
  20496649.709    20496653.949    -1300271.625 8  -2434623.002 7
  21734928.747    21734933.235    -9998392.836 9  -9166833.148 8
 90  2 22  5 39 14.0800000  0  4G 6G 9G11G13
  20410696.522    20410700.267      614532.751 8  -2052965.436 8
  20554378.510    20554381.222    -7258852.286 8  -7171434.727 8
  20497181.877    20497184.653    -1297477.114 7  -2432445.457 8
  21727052.887    21727056.171   -10039784.353 9  -9199086.269 8
 90  2 22  5 39 29.0800000  0  4G 6G 9G11G13
  20412735.276    20412737.601      625247.639 9  -2044616.181 8
  20549075.874    20549079.267    -7286710.628 8  -7193142.520 8
  20497734.846    20497738.079    -1294570.029 8  -2430180.197 8
  21719195.631    21719198.352   -10081073.120 9  -9231259.319 8
 90  2 22  5 39 44.0800000  0  4G 6G 9G11G13
  20414802.067    20414804.611      636105.003 8  -2036155.902 8
  20543797.944    20543800.296    -7314449.407 8  -7214757.140 8
  20498309.566    20498313.621    -1291550.550 9  -2427827.343 8
  21711357.952    21711360.802   -10122258.805 9  -9263352.048 7
 90  2 22  5 39 59.0800000  0  4G 6G 9G11G13
  20416894.157    20416898.127      647104.958 9  -2027584.521 8
  20538541.605    20538545.134    -7342068.045 9  -7236278.147 8
  20498906.743    20498908.729    -1288418.860 9  -2425387.067 7
  21703539.712    21703543.362   -10163341.455 9  -9295364.491 8
 90  2 22  5 40 14.0800000  0  4G 6G 9G11G13
  20419014.951    20419017.819      658247.493 9  -2018902.030 9
  20533310.066    20533311.004    -7369566.406 9  -7257705.439 7
  20499522.756    20499527.093    -1285175.267 8  -2422859.597 8
  21695741.533    21695745.316   -10204321.092 9  -9327296.662 8
 90  2 22  5 40 29.0800000  0  4G 6G 9G11G13
  20421162.064    20421165.085      669532.441 9  -2010108.577 9
  20528100.424    20528102.370    -7396944.165 8  -7279038.754 7
  20500162.534    20500163.442    -1281820.177 8  -2420245.249 8
  21687963.127    21687966.576   -10245197.633 9  -9359148.488 8
 90  2 22  5 40 44.0800000  0  4G 6G 9G11G13
  20423338.167    20423340.029      680959.800 9  -2001204.150 8
  20522913.529    20522915.405    -7424201.301 8  -7300278.094 7
  20500819.655    20500824.944    -1278353.923 8  -2417544.257 7
  21680203.738    21680208.492   -10285971.057 9  -9390919.957 8
 90  2 22  5 40 59.0800000  0  4G 6G 9G11G13
  20425539.837    20425541.880      692529.826 9  -1992188.548 8
  20517749.042    20517751.626    -7451337.190 9  -7321422.924 9
  20501501.982    20501505.179    -1274776.497 8  -2414756.651 8
  21672464.027    21672469.885   -10326640.969 9  -9422610.775 7
 90  2 22  5 41 14.0800000  0  4G 6G 9G11G13
  20427768.084    20427771.028      704242.646 9  -1983061.690 8
  20512608.154    20512610.540    -7478351.347 9  -7342472.919 8
  20502203.218    20502206.902    -1271087.921 9  -2411882.423 7
  21664745.016    21664749.487   -10367207.093 9  -9454220.722 7
 90  2 22  5 41 29.0800000  0  4G 6G 9G11G13
  20430024.147    20430027.154      716098.270 8  -1973823.542 8
  20507490.716    20507492.939    -7505243.421 9  -7363427.782 8
  20502926.876    20502931.245    -1267288.392 8  -2408921.744 9
  21657045.354    21657048.838   -10407669.376 9  -9485749.759 7
 90  2 22  5 41 44.0800000  0  4G 6G 9G11G13
  20432307.627    20432309.813      728096.533 9  -1964474.255 9
  20502397.120    20502398.289    -7532013.314 8  -7384287.424 7
  20503670.733    20503674.297    -1263378.303 8  -2405874.931 8
  21649365.885    21649368.512   -10448027.714 9  -9517197.801 7
 90  2 22  5 41 59.0800000  0  4G 6G 9G11G13
  20434616.472    20434620.423      740237.700 8  -1955013.604 8
  20497326.140    20497329.040    -7558660.526 9  -7405051.483 8
  20504436.692    20504438.923    -1259357.857 9  -2402742.105 8
  21641705.238    21641709.669   -10488281.905 9  -9548564.683 7
 90  2 22  5 42 14.0800000  0  4G 6G 9G11G13
  20436954.098    20436956.256      752521.424 9  -1945441.884 8
  20492278.007    20492280.530    -7585184.901 9  -7425719.816 8
  20505222.839    20505225.721    -1255227.382 8  -2399523.558 8
  21634064.698    21634067.994   -10528432.116 9  -9579850.534 8
 90  2 22  5 42 29.0800000  0  4G 6G 9G11G13
  20439318.930    20439321.785      764947.857 9  -1935758.958 8
  20487255.254    20487256.834    -7611586.411 9  -7446292.411 7
  20506029.419    20506032.378    -1250987.289 8  -2396219.568 8
  21626444.244    21626448.607   -10568478.462 9  -9611055.468 8
 90  2 22  5 42 44.0800000  0  4G 6G 9G11G13
  20441710.798    20441713.857      777517.071 8  -1925964.765 8
  20482254.878    20482256.197    -7637864.338 8  -7466768.722 8
  20506857.335    20506860.589    -1246637.490 8  -2392830.114 8
  21618843.651    21618847.593   -10608420.452 8  -9642179.070 8
 90  2 22  5 42 59.0800000  0  4G 6G 9G11G13
  20444131.150    20444133.107      790229.039 9  -1916059.339 7
  20477276.884    20477279.665    -7664018.560 9  -7487148.613 8
  20507705.562    20507708.151    -1242178.284 8  -2389355.390 8
  21611262.461    21611267.078   -10648258.080 9  -9673221.374 8
 90  2 22  5 43 14.0800000  0  4G 6G 9G11G13
  20446576.705    20446578.967      803083.495 9  -1906042.894 8
  20472324.257    20472325.831    -7690048.977 8  -7507432.059 7
  20508574.857    20508577.795    -1237610.221 8  -2385795.863 7
  21603701.513    21603705.976   -10687991.660 9  -9704182.584 7
 90  2 22  5 43 29.0800000  0  4G 6G 9G11G13
  20449049.906    20449052.059      816080.237 9  -1895915.575 8
  20467395.038    20467396.055    -7715955.409 9  -7527618.898 8
  20509463.997    20509466.257    -1232933.459 8  -2382151.633 8
  21596161.477    21596164.629   -10727621.015 9  -9735062.581 8
 90  2 22  5 43 44.0800000  0  4G 6G 9G11G13
  20451549.989    20451554.068      829219.979 9  -1885676.812 9
  20462488.015    20462490.353    -7741737.087 9  -7547708.516 7
  20510375.128    20510377.540    -1228147.778 8  -2378422.534 8
  21588639.769    21588643.821   -10767145.358 9  -9765860.750 7
 90  2 22  5 43 59.0800000  0  4G 6G 9G11G13
  20454078.366    20454081.381      842502.810 9  -1875326.578 8
  20457605.851    20457607.888    -7767393.368 9  -7567700.422 8
  20511306.320    20511309.887    -1223253.369 9  -2374608.699 7
  21581138.032    21581141.803   -10806564.527 9  -9796576.980 7
 90  2 22  5 44 14.0800000  0  4G 6G 9G11G13
  20456632.318    20456635.692      855928.362 9  -1864865.121 7
  20452746.361    20452750.094    -7792924.426 8  -7587594.744 8
  20512258.048    20512261.908    -1218250.749 8  -2370710.549 8
  21573656.474    21573660.066   -10845878.896 9  -9827211.550 6
 90  2 22  5 44 29.0800000  0  4G 6G 9G11G13
  20459214.202    20459217.752      869496.715 9  -1854292.380 8
  20447912.494    20447916.681    -7818329.790 9  -7607391.136 8
  20513230.040    20513235.015    -1213140.027 8  -2366728.162 7
  21566195.090    21566198.266   -10885088.335 9  -9857764.328 7
 90  2 22  5 44 44.0800000  0  4G 6G 9G11G13
  20461823.750    20461826.389      883207.908 8  -1843608.341 9
  20443101.328    20443105.098    -7843609.167 8  -7627089.345 8
  20514223.651    20514227.381    -1207921.453 8  -2362661.746 8
  21558753.954    21558757.593   -10924192.570 9  -9888235.166 7
 90  2 22  5 44 59.0800000  0  4G 6G 9G11G13
  20464460.114    20464463.034      897062.038 9  -1832812.924 7
  20438314.278    20438318.903    -7868762.279 9  -7646689.160 8
  20515237.386    20515240.851    -1202595.054 9  -2358511.296 8
  21551331.871    21551337.225   -10963191.461 9  -9918623.905 7
 90  2 22  5 45 14.0800000  0  4G 6G 9G11G13
  20467124.561    20467127.038      911058.989 8  -1821906.214 7
  20433552.954    20433557.496    -7893788.894 7  -7666190.405 7
  20516271.177    20516274.227    -1197161.194 9  -2354277.109 7
  21543931.663    21543934.708   -11002084.828 9  -9948930.411 7
 90  2 22  5 45 29.0800000  0  4G 6G 9G11G13
  20469814.527    20469816.408      925198.870 9  -1810888.135 8
  20428813.710    20428818.006    -7918688.625 8  -7685592.778 8
  20517326.311    20517329.015    -1191620.198 8  -2349959.451 8
  21536550.422    21536555.211   -11040872.830 9  -9979154.814 8
 90  2 22  5 45 44.0800000  0  4G 6G 9G11G13
  20472532.969    20472535.608      939481.469 8  -1799758.841 8
  20424100.623    20424103.616    -7943461.265 9  -7704896.131 8
  20518401.771    20518403.914    -1185972.500 8  -2345558.645 8
  21529191.013    21529193.095   -11079555.013 9 -10009296.770 7
 90  2 22  5 45 59.0800000  0  4G 6G 9G11G13
  20475277.939    20475280.144      953906.793 9  -1788518.333 8
  20419411.144    20419414.358    -7968106.455 8  -7724100.164 9
  20519496.620    20519498.553    -1180218.246 8  -2341074.803 8
  21521849.645    21521852.221   -11118131.681 9 -10039356.505 7
 90  2 22  5 46 14.0800000  0  4G 6G 9G11G13
  20478050.412    20478053.094      968474.826 9  -1777166.623 7
  20414746.509    20414748.333    -7992623.928 9  -7743204.682 8
  20520612.252    20520613.976    -1174357.578 9  -2336508.038 8
  21514528.486    21514532.858   -11156602.796 9 -10069333.973 8
 90  2 22  5 46 29.0800000  0  4G 6G 9G11G13
  20480849.957    20480851.886      983185.659 8  -1765703.653 7
  20410104.796    20410106.889    -8017013.395 9  -7762209.458 7
  20521747.124    20521750.154    -1168390.778 8  -2331858.570 8
  21507227.483    21507230.883   -11194968.124 9 -10099229.019 7
 90  2 22  5 46 44.0800000  0  4G 6G 9G11G13
  20483675.794    20483677.989      998039.316 9  -1754129.389 8
  20405487.550    20405491.460    -8041274.532 9  -7781114.233 7
  20522902.593    20522906.335    -1162317.886 9  -2327126.437 8
  21499946.868    21499951.086   -11233227.378 9 -10129041.408 7
 90  2 22  5 46 59.0800000  0  4G 6G 9G11G13
  20486529.562    20486531.781     1013035.946 9  -1742443.709 7
  20400896.138    20400899.508    -8065406.660 9  -7799918.489 8
  20524077.981    20524081.102    -1156139.112 9  -2322311.810 8
  21492686.425    21492690.429   -11271380.541 9 -10158771.118 8
 90  2 22  5 47 14.0800000  0  4G 6G 9G11G13
  20489409.716    20489413.151     1028175.177 8  -1730646.930 9
  20396328.040    20396330.839    -8089409.974 9  -7818622.378 8
  20525274.404    20525277.267    -1149854.986 9  -2317415.081 8
  21485445.929    21485450.357   -11309427.705 9 -10188418.247 7
 90  2 22  5 47 29.0800000  0  4G 6G 9G11G13
  20492317.677    20492320.550     1043456.677 9  -1718739.265 7
  20391783.399    20391788.311    -8113284.463 8  -7837225.875 8
  20526489.757    20526492.013    -1143466.051 8  -2312436.681 8
  21478226.169    21478230.978   -11347369.002 9 -10217982.883 8
 90  2 22  5 47 44.0800000  0  4G 6G 9G11G13
  20495252.645    20495257.216     1058880.611 8  -1706720.610 8
  20387264.977    20387269.178    -8137029.620 8  -7855728.588 7
  20527725.270    20527728.251    -1136972.132 9  -2307376.483 8
  21471026.630    21471031.405   -11385204.218 9 -10247464.854 7
 90  2 22  5 47 59.0800000  0  4G 6G 9G11G13
  20498215.630    20498218.298     1074447.655 8  -1694590.461 7
  20382771.598    20382774.320    -8160644.673 9  -7874129.920 8
  20528981.653    20528983.944    -1130373.057 8  -2302234.344 8
  21463846.482    21463850.743   -11422932.708 9 -10276863.660 8
 90  2 22  5 48 14.0800000  0  4G 6G 9G11G13
  20501204.162    20501207.264     1090157.811 9  -1682348.792 8
  20378303.579    20378305.219    -8184129.074 8  -7892429.448 7
  20530257.546    20530260.028    -1123668.974 9  -2297010.389 8
  21456688.154    21456691.499   -11460554.135 8 -10306179.040 8
 90  2 22  5 48 29.0800000  0  4G 6G 9G11G13
  20504221.036    20504224.431     1106010.942 8  -1669995.707 7
  20373858.822    20373861.893    -8207482.692 8  -7910627.067 7
  20531552.208    20531556.923    -1116860.226 9  -2291704.865 7
  21449549.319    21449552.374   -11498068.570 9 -10335411.059 7
 90  2 22  5 48 44.0800000  0  4G 6G 9G11G13
  20507266.237    20507267.653     1122006.670 8  -1657531.522 8
  20369439.609    20369442.585    -8230705.719 7  -7928722.918 7
  20532868.215    20532871.370    -1109947.365 8  -2286318.228 8
  21442431.089    21442434.307   -11535476.598 9 -10364560.139 8
 90  2 22  5 48 59.0800000  0  4G 6G 9G11G13
  20510337.575    20510338.528     1138144.999 9  -1644956.202 8
  20365046.849    20365049.285    -8253797.722 8  -7946716.683 8
  20534203.446    20534206.818    -1102930.709 8  -2280850.702 8
  21435332.107    21435336.052   -11572778.005 9 -10393626.154 8
 90  2 22  5 49 14.0800000  0  4G 6G 9G11G13
  20513434.487    20513437.590     1154425.727 9  -1632269.934 8
  20360676.526    20360679.683    -8276758.520 8  -7964608.210 7
  20535557.504    20535561.221    -1095810.592 8  -2275302.547 8
  21428254.625    21428258.508   -11609972.595 9 -10422608.940 7
 90  2 22  5 49 29.0800000  0  4G 6G 9G11G13
  20516558.501    20516562.543     1170848.632 9  -1619472.869 8
  20356332.218    20356335.502    -8299587.977 8  -7982397.380 8
  20536931.391    20536936.361    -1088587.370 8  -2269674.072 8
  21421196.281    21421200.556   -11647060.616 9 -10451508.665 8
 90  2 22  5 49 44.0800000  0  4G 6G 9G11G13
  20519712.624    20519714.517     1187414.002 9  -1606564.791 7
  20352012.253    20352015.495    -8322285.760 8  -8000083.963 8
  20538326.506    20538329.921    -1081261.291 8  -2263965.420 9
  21414160.304    21414163.683   -11684041.745 9 -10480325.105 9
 90  2 22  5 49 59.0800000  0  4G 6G 9G11G13
  20522892.358    20522894.488     1204121.727 9  -1593545.781 9
  20347719.305    20347720.787    -8344851.447 8  -8017667.629 9
  20539740.367    20539743.386    -1073832.380 9  -2258176.663 8
  21407142.525    21407145.625   -11720915.605 9 -10509057.972 8
 90  2 22  5 50 14.0800000  0  4G 6G 9G11G13
  20526097.938    20526101.550     1220971.766 8  -1580415.902 7
  20343449.604    20343452.555    -8367284.799 8  -8035148.156 8
  20541173.728    20541177.081    -1066300.993 8  -2252308.044 9
  21400146.997    21400150.605   -11757682.563 9 -10537707.533 7
 90  2 22  5 50 29.0800000  0  4G 6G 9G11G13
  20529332.201    20529334.257     1237964.141 9  -1567175.099 9
  20339205.029    20339208.530    -8389585.424 9  -8052525.266 8
  20542626.225    20542628.927    -1058667.352 8  -2246359.754 8
  21393170.510    21393174.157   -11794342.423 9 -10566273.635 8
 90  2 22  5 50 44.0800000  0  4G 6G 9G11G13
  20532592.035    20532594.405     1255099.076 8  -1553823.208 9
  20334987.958    20334990.900    -8411752.977 7  -8069798.676 8
  20544098.155    20544102.588    -1050931.331 9  -2240331.676 8
  21386214.224    21386217.796   -11830894.876 9 -10594756.053 8
 90  2 22  5 50 59.0800000  0  4G 6G 9G11G13
  20535879.931    20535882.694     1272376.545 9  -1540360.258 8
  20330795.269    20330797.954    -8433786.866 8  -8086967.935 7
  20545590.193    20545593.472    -1043093.066 9  -2234223.946 7
  21379278.583    21379282.639   -11867339.621 9 -10623154.550 8
 90  2 22  5 51 14.0800000  0  4G 6G 9G11G13
  20539195.591    20539197.851     1289796.712 9  -1526786.115 7
  20326627.488    20326630.368    -8455686.784 8  -8104032.806 8
  20547101.559    20547103.929    -1035152.874 9  -2228036.776 8
  21372364.350    21372367.824   -11903676.621 9 -10651469.058 8
 90  2 22  5 51 29.0800000  0  4G 6G 9G11G13
  20542537.924    20542539.421     1307359.333 9  -1513100.971 8
  20322485.196    20322488.620    -8477452.739 8  -8120993.291 8
  20548631.848    20548634.204    -1027111.209 9  -2221770.534 7
  21365469.371    21365474.356   -11939905.951 9 -10679699.697 9
 90  2 22  5 51 44.0800000  0  4G 6G 9G11G13
  20545906.334    20545908.691     1325064.086 9  -1499305.057 8
  20318368.718    20318371.555    -8499084.479 9  -8137849.174 8
  20550181.317    20550184.688    -1018968.393 8  -2215425.495 8
  21358596.017    21358599.820   -11976027.659 8 -10707846.462 8
 90  2 22  5 51 59.0800000  0  4G 6G 9G11G13
  20549302.974    20549306.558     1342910.995 9  -1485398.385 7
  20314279.571    20314281.611    -8520581.729 7  -8154600.276 8
  20551749.387    20551753.116    -1010724.702 8  -2209001.832 9
  21351743.492    21351745.862   -12012041.556 9 -10735909.220 7
 90  2 22  5 52 14.0800000  0  4G 6G 9G11G13
  20552725.917    20552727.374     1360900.032 9  -1471380.964 8
  20310213.575    20310215.621    -8541944.356 8  -8171246.462 8
  20553337.790    20553339.862    -1002380.428 9  -2202499.792 9
  21344910.452    21344913.507   -12047947.723 8 -10763888.035 7
 90  2 22  5 52 29.0800000  0  4G 6G 9G11G13
  20556176.658    20556178.755     1379031.428 8  -1457252.604 8
  20306174.110    20306175.921    -8563171.590 8  -8187787.165 8
  20554944.191    20554946.985     -993935.469 9  -2195919.290 9
  21338097.764    21338101.913   -12083745.905 9 -10791782.711 8
 90  2 22  5 52 44.0800000  0  4G 6G 9G11G13
  20559653.451    20559656.780     1397305.018 9  -1443013.441 8
  20302160.915    20302163.814    -8584263.534 8  -8204222.444 8
  20556569.910    20556573.611     -985390.118 8  -2189260.568 8
  21331307.153    21331309.848   -12119435.986 9 -10819593.149 7
 90  2 22  5 52 59.0800000  0  4G 6G 9G11G13
  20563159.190    20563160.126     1415720.550 8  -1428663.698 8
  20298172.485    20298175.184    -8605219.819 8  -8220552.021 8
  20558215.503    20558219.223     -976744.977 9  -2182524.097 9
  21324535.909    21324539.841   -12155018.183 9 -10847319.509 7
 90  2 22  5 53 14.0800000  0  4G 6G 9G11G13
  20566689.757    20566692.211     1434277.911 9  -1414203.428 8
  20294210.509    20294212.401    -8626040.549 9  -8236775.964 8
  20559879.567    20559882.855     -968000.165 8  -2175709.962 8
  21317784.958    21317787.949   -12190492.454 9 -10874961.791 7
 90  2 22  5 53 29.0800000  0  4G 6G 9G11G13
  20570247.552    20570249.652     1452977.249 9  -1399632.523 9
  20290274.784    20290276.443    -8646725.042 8  -8252893.738 7
  20561561.584    20561566.126     -959155.824 9  -2168818.255 8
  21311054.606    21311059.050   -12225858.462 9 -10902519.706 8
 90  2 22  5 53 44.0800000  0  4G 6G 9G11G13
  20573833.280    20573835.335     1471818.152 9  -1384951.310 8
  20286364.177    20286366.466    -8667273.322 8  -8268905.392 8
  20563263.862    20563268.302     -950212.549 8  -2161849.483 7
  21304345.950    21304348.560   -12261116.453 9 -10929993.451 8
 90  2 22  5 53 59.0800000  0  4G 6G 9G11G13
  20577444.500    20577448.929     1490800.552 9  -1370159.853 8
  20282479.632    20282481.963    -8687685.400 8  -8284810.896 9
  20564985.516    20564988.527     -941170.705 9  -2154803.876 9
  21297656.693    21297660.801   -12296266.628 9 -10957383.189 7
 90  2 22  5 54 14.0800000  0  4G 6G 9G11G13
  20581084.157    20581088.045     1509924.696 8  -1355257.929 8
  20278622.504    20278623.909    -8707960.374 9  -8300609.570 8
  20566723.698    20566727.094     -932030.138 9  -2147681.351 8
  21290988.949    21290992.088   -12331308.504 9 -10984688.541 7
 90  2 22  5 54 29.0800000  0  4G 6G 9G11G13
  20584750.552    20584754.091     1529190.738 8  -1340245.429 8
  20274789.843    20274791.297    -8728098.077 8  -8316301.284 8
  20568481.757    20568485.037     -922790.976 9  -2140481.999 8
  21284341.190    21284344.622   -12366241.599 9 -11011909.116 8
 90  2 22  5 54 44.0800000  0  4G 6G 9G11G13
  20588442.933    20588447.358     1548598.442 9  -1325122.565 8
  20270984.390    20270985.619    -8748098.118 9  -8331885.733 8
  20570258.989    20570262.575     -913453.569 8  -2133206.096 8
  21277713.532    21277718.777   -12401066.297 9 -11039045.221 7
 90  2 22  5 54 59.0800000  0  4G 6G 9G11G13
  20592162.744    20592167.059     1568147.660 8  -1309889.407 8
  20267203.768    20267206.715    -8767960.243 9  -8347362.712 7
  20572054.163    20572058.219     -904018.185 9  -2125853.849 8
  21271107.811    21271111.541   -12435782.386 9 -11066096.699 8
 90  2 22  5 55 14.0800000  0  4G 6G 9G11G13
  20595909.650    20595914.150     1587838.076 9  -1294546.243 9
  20263451.411    20263453.237    -8787684.853 9  -8362732.522 7
  20573868.273    20573872.062     -894485.387 9  -2118425.689 8
  21264521.773    21264525.547   -12470390.199 9 -11093063.821 7
 90  2 22  5 55 29.0800000  0  4G 6G 9G11G13
  20599683.876    20599687.864     1607669.940 9  -1279092.850 9
  20259722.350    20259726.308    -8807271.220 8  -8377994.621 9
  20575702.311    20575705.546     -884855.381 8  -2110921.789 9
  21257957.415    21257961.003   -12504889.556 9 -11119946.419 8
 90  2 22  5 55 44.0800000  0  4G 6G 9G11G13
  20603484.761    20603488.471     1627643.334 8  -1263529.177 8
  20256023.137    20256025.540    -8826718.754 9  -8393148.537 8
  20577553.040    20577556.695     -875127.901 8  -2103341.933 9
  21251413.482    21251415.756   -12539279.882 9 -11146744.071 7
 90  2 22  5 55 59.0800000  0  4G 6G 9G11G13
  20607313.440    20607316.561     1647758.005 9  -1247855.418 8
  20252348.871    20252351.121    -8846027.803 8  -8408194.564 7
  20579422.307    20579424.739     -865303.591 9  -2095686.610 8
  21244888.986    21244893.321   -12573561.528 9 -11173457.023 7
 90  2 22  5 56 14.0800000  0  4G 6G 9G11G13
  20611168.927    20611170.800     1668013.473 9  -1232071.954 9
  20248699.254    20248702.553    -8865197.930 8  -8423132.313 7
  20581309.558    20581313.900     -855383.091 8  -2087956.344 8
  21238386.889    21238389.038   -12607735.036 9 -11200085.742 7
 90  2 22  5 56 29.0800000  0  4G 6G 9G11G13
  20615050.366    20615052.108     1688409.911 8  -1216178.631 9
  20245078.713    20245082.051    -8884228.797 8  -8437961.546 8
  20583215.869    20583219.570     -845366.284 9  -2080151.049 8
  21231904.089    21231906.705   -12641799.941 9 -11226629.811 8
 90  2 22  5 56 44.0800000  0  4G 6G 9G11G13
  20618957.542    20618959.983     1708947.223 9  -1200175.542 9
  20241483.633    20241485.989    -8903120.287 8  -8452682.202 8
  20585140.119    20585143.279     -835253.441 9  -2072270.907 8
  21225441.952    21225444.889   -12675756.157 9 -11253089.190 8
 90  2 22  5 56 59.0800000  0  4G 6G 9G11G13
  20622892.319    20622895.358     1729625.696 8  -1184062.456 8
  20237914.701    20237918.230    -8921871.847 8  -8467293.808 7
  20587083.338    20587085.971     -825044.699 8  -2064316.037 8
  21219000.796    21219005.168   -12709603.585 9 -11279463.803 6
 90  2 22  5 57 14.0800000  0  4G 6G 9G11G13
  20626853.720    20626856.832     1750445.056 9  -1167839.583 8
  20234373.968    20234376.624    -8940483.313 8  -8481796.237 6
  20589043.817    20589046.924     -814740.435 8  -2056286.740 8
  21212581.182    21212583.456   -12743341.949 9 -11305753.417 8
 90  2 22  5 57 29.0800000  0  4G 6G 9G11G13
  20630842.233    20630844.917     1771404.901 8  -1151507.254 9
  20230858.953    20230860.750    -8958954.867 9  -8496189.657 8
  20591023.093    20591026.677     -804341.159 8  -2048183.418 7
  21206182.009    21206184.721   -12776971.384 9 -11331958.156 6
 90  2 22  5 57 44.0800000  0  4G 6G 9G11G13
  20634857.269    20634861.231     1792505.265 9  -1135065.421 9
  20227371.154    20227372.861    -8977285.982 9  -8510473.646 8
  20593019.879    20593023.157     -793847.060 8  -2040006.193 9
  21199802.845    21199807.006   -12810491.979 9 -11358078.085 7
 90  2 22  5 57 59.0800000  0  4G 6G 9G11G13
  20638899.249    20638902.601     1813746.159 9  -1118514.089 9
  20223909.512    20223911.896    -8995476.199 8  -8524647.830 7
  20595034.375    20595038.457     -783258.179 9  -2031755.121 8
  21193444.519    21193447.886   -12843903.682 9 -11384113.167 7
 90  2 22  5 58 14.0800000  0  4G 6G 9G11G13
  20642968.710    20642971.346     1835127.916 9  -1101852.984 8
  20220473.951    20220476.269    -9013525.246 8  -8538712.020 8
  20597067.479    20597071.413     -772574.607 8  -2023430.255 8
  21187107.452    21187110.080   -12877206.273 9 -11410063.228 8
 90  2 22  5 58 29.0800000  0  4G 6G 9G11G13
  20647064.164    20647066.322     1856650.223 9  -1085082.370 8
  20217067.324    20217068.640    -9031432.823 8  -8552665.975 8
  20599117.717    20599122.238     -761796.605 8  -2015031.817 8
  21180790.823    21180793.820   -12910399.761 9 -11435928.265 6
 90  2 22  5 58 44.0800000  0  4G 6G 9G11G13
  20651185.253    20651189.716     1878312.817 9  -1068202.435 9
  20213687.035    20213689.299    -9049198.785 9  -8566509.566 7
  20601186.860    20601190.637     -750924.715 9  -2006560.214 8
  21174495.273    21174498.907   -12943484.144 9 -11461708.304 7
 90  2 22  5 58 59.0800000  0  4G 6G 9G11G13
  20655334.679    20655338.670     1900115.389 9  -1051213.437 8
  20210332.560    20210335.224    -9066823.527 8  -8580243.138 7
  20603273.822    20603277.256     -739959.362 9  -1998015.778 7
  21168220.877    21168223.730   -12976459.384 8 -11487403.284 7
 90  2 22  5 59 14.0800000  0  4G 6G 9G11G13
  20659510.996    20659514.127     1922058.392 8  -1034115.002 9
  20207005.090    20207007.712    -9084305.509 9  -8593865.455 7
  20605378.296    20605381.482     -728900.173 8  -1989398.227 8
  21161966.562    21161968.754   -13009324.859 9 -11513012.739 8
 90  2 22  5 59 29.0800000  0  4G 6G 9G11G13
  20663713.278    20663715.559     1944142.201 9  -1016906.851 9
  20203706.039    20203708.966    -9101644.822 9  -8607376.604 7
  20607501.194    20607504.277     -717747.155 8  -1980707.561 8
  21155732.632    21155735.732   -13042080.470 9 -11538536.579 7
 90  2 22  5 59 44.0800000  0  4G 6G 9G11G13
  20667942.172    20667946.224     1966366.150 9   -999589.499 8
  20200432.477    20200435.768    -9118841.902 8  -8620776.931 8
  20609641.631    20609644.319     -706501.081 8  -1971944.379 8
  21149520.628    21149524.392   -13074726.673 9 -11563975.168 7
 90  2 22  5 59 59.0800000  0  4G 6G 9G11G13
  20672198.404    20672201.611     1988729.361 8   -982163.625 9
  20197188.583    20197188.630    -9135896.372 9  -8634066.130 7
  20611798.721    20611801.048     -695162.844 8  -1963109.391 7
  21143328.374    21143333.261   -13107263.898 9 -11589328.836 8
 90  2 22  6  0 14.0800000  0  4G 6G 9G11G13
  20676479.990    20676481.917     2011231.989 8   -964629.126 8
  20193969.921    20193972.524    -9152807.801 8  -8647243.871 8
  20613974.545    20613977.581     -683732.466 9  -1954202.605 8
  21137157.809    21137162.220   -13139692.107 8 -11614597.556 7
 90  2 22  6  0 29.0800000  0  4G 6G 9G11G13
  20680789.291    20680792.505     2033874.502 9   -946985.626 8
  20190779.687    20190780.764    -9169576.126 8  -8660310.104 6
  20616166.156    20616170.605     -672209.982 9  -1945224.055 8
  21131007.052    21131011.563   -13172010.753 9 -11639780.893 8
 90  2 22  6  0 44.0800000  0  4G 6G 9G11G13
  20685124.021    20685126.736     2056656.553 9   -929233.377 9
  20187615.724    20187617.116    -9186200.942 8  -8673264.492 7
  20618377.210    20618380.660     -660595.562 9  -1936173.852 7
  21124878.074    21124883.553   -13204219.993 9 -11664878.989 8
 90  2 22  6  0 59.0800000  0  4G 6G 9G11G13
  20689486.084    20689488.755     2079578.061 9   -911372.478 8
  20184480.418    20184481.790    -9202681.888 8  -8686106.798 8
  20620604.125    20620607.089     -648889.645 9  -1927052.362 9
  21118770.506    21118773.998   -13236319.791 9 -11689891.806 8
 90  2 22  6  1 14.0800000  0  4G 6G 9G11G13
  20693874.640    20693877.895     2102639.003 9   -893402.924 8
  20181370.210    20181372.622    -9219019.166 8  -8698837.151 8
  20622850.349    20622852.740     -637092.465 8  -1917859.749 8
  21112683.670    21112686.960   -13268310.132 9 -11714819.343 8
 90  2 22  6  1 29.0800000  0  4G 6G 9G11G13
  20698289.084    20698292.601     2125839.426 9   -875324.687 8
  20178288.859    20178291.548    -9235212.035 8  -8711454.956 7
  20625112.565    20625114.818     -625204.066 9  -1908596.057 8
  21106615.723    21106620.273   -13300190.606 9 -11739661.250 8
 90  2 22  6  1 44.0800000  0  4G 6G 9G11G13
  20702730.375    20702732.952     2149179.225 9   -857137.844 8
  20175234.705    20175235.949    -9251260.282 8  -8723960.075 7
  20627391.807    20627394.659     -613224.585 8  -1899261.399 9
  21100570.768    21100575.366   -13331961.219 9 -11764417.552 8
 90  2 22  6  1 59.0800000  0  4G 6G 9G11G13
  20707198.841    20707201.594     2172658.047 9   -838842.659 9
  20172208.969    20172211.743    -9267163.637 8  -8736352.291 7
  20629687.803    20629690.612     -601154.526 9  -1889856.156 9
  21094545.208    21094549.110   -13363622.441 9 -11789088.621 8
 90  2 22  6  2 14.0800000  0  4G 6G 9G11G13
  20711692.405    20711695.574     2196275.686 9   -820439.322 8
  20169209.447    20169211.416    -9282922.203 8  -8748631.703 9
  20632000.800    20632005.069     -588994.297 8  -1880380.642 8
  21088540.830    21088545.042   -13395174.155 8 -11813674.368 7
 90  2 22  6  2 29.0800000  0  4G 6G 9G11G13
  20716213.031    20716216.851     2220032.202 8   -801927.754 8
  20166239.097    20166241.610    -9298535.646 9  -8760798.029 8
  20634332.908    20634336.909     -576744.115 9  -1870835.061 8
  21082559.020    21082561.842   -13426616.271 9 -11838174.698 8
 90  2 22  6  2 44.0800000  0  4G 6G 9G11G13
  20720760.905    20720763.711     2243927.703 9   -783307.901 8
  20163294.847    20163297.741    -9314003.434 8  -8772850.838 7
  20636680.624    20636685.291     -564403.924 8  -1861219.318 9
  21076595.293    21076599.064   -13457948.441 9 -11862589.367 7
 90  2 22  6  2 59.0800000  0  4G 6G 9G11G13
  20725334.222    20725336.908     2267961.937 9   -764579.941 8
  20160379.921    20160381.051    -9329325.594 8  -8784790.188 7
  20639045.385    20639050.311     -551974.002 8  -1851533.663 8
  21070654.656    21070657.743   -13489170.593 8 -11886918.290 8
 90  2 22  6  3 14.0800000  0  4G 6G 9G11G13
  20729933.696    20729937.112     2292135.107 8   -745743.713 8
  20157490.609    20157494.128    -9344501.570 8  -8796615.624 8
  20641427.582    20641432.362     -539454.520 8  -1841778.242 8
  21064733.958    21064737.499   -13520282.620 8 -11911161.434 8
 90  2 22  6  3 29.0800000  0  4G 6G 9G11G13
  20734561.080    20734563.677     2316447.017 8   -726799.368 8
  20154631.557    20154634.446    -9359531.388 9  -8808327.184 8
  20643826.839    20643831.754     -526845.917 8  -1831953.355 9
  21058834.372    21058838.824   -13551284.746 9 -11935318.910 7
 90  2 22  6  3 44.0800000  0  4G 6G 9G11G13
  20739213.863    20739216.921     2340897.340 9   -707747.188 9
  20151799.357    20151801.341    -9374414.745 8  -8819924.592 7
  20646244.814    20646248.283     -514148.536 8  -1822059.304 8
  21052955.764    21052958.689   -13582176.862 9 -11959390.675 7
 90  2 22  6  3 59.0800000  0  4G 6G 9G11G13
  20743891.589    20743896.085     2365485.515 8   -688587.589 8
  20148995.585    20148997.831    -9389151.843 8  -8831408.052 7
  20648677.309    20648682.038     -501362.830 9  -1812096.405 8
  21047098.120    21047103.042   -13612959.486 9 -11983377.137 8
 90  2 22  6  4 14.0800000  0  4G 6G 9G11G13
  20748597.376    20748600.606     2390211.806 8   -669320.357 8
  20146218.829    20146221.666    -9403741.736 8  -8842776.799 8
  20651127.134    20651130.711     -488488.992 9  -1802064.839 8
  21041261.303    21041264.863   -13643632.424 9 -12007278.117 7
 90  2 22  6  4 29.0800000  0  4G 6G 9G11G13
  20753329.089    20753331.744     2415076.282 8   -649945.445 8
  20143469.699    20143472.847    -9418184.830 8  -8854031.154 8
  20653594.177    20653597.062     -475527.001 9  -1791964.596 9
  21035445.324    21035449.005   -13674195.276 9 -12031093.306 8
 90  2 22  6  4 44.0800000  0  4G 6G 9G11G13
  20758087.695    20758089.782     2440078.767 7   -630463.003 7
  20140750.085    20140751.968    -9432480.704 8  -8865170.817 8
  20656076.657    20656079.843     -462477.261 9  -1781795.950 8
  21029650.789    21029653.351   -13704648.299 9 -12054822.934 7
 90  2 22  6  4 59.0800000  0  4G 6G 9G11G13
  20762872.205    20762874.120     2465218.957 9   -610873.246 8
  20138057.218    20138060.222    -9446629.013 8  -8876195.472 6
  20658577.613    20658579.408     -449340.153 9  -1771559.220 9
  21023875.844    21023880.771   -13734991.406 9 -12078466.904 7
 90  2 22  6  5 14.0800000  0  4G 6G 9G11G13
  20767681.817    20767684.326     2490496.921 9   -591176.148 8
  20135393.066    20135396.070    -9460629.548 8  -8887104.980 7
  20661094.001    20661096.491     -436115.833 9  -1761254.570 8
  21018122.126    21018127.698   -13765224.405 9 -12102025.081 7
 90  2 22  6  5 29.0800000  0  4G 6G 9G11G13
  20772518.124    20772520.982     2515912.357 9   -571371.931 8
  20132756.292    20132758.457    -9474482.272 8  -8897899.313 7
  20663626.153    20663629.344     -422804.632 9  -1750882.209 8
  21012390.367    21012394.238   -13795347.437 9 -12125497.563 7
 90  2 22  6  5 44.0800000  0  4G 6G 9G11G13
  20777380.194    20777384.363     2541465.251 9   -551460.584 8
  20130149.701    20130150.821    -9488186.915 8  -8908578.236 8
  20666176.407    20666180.067     -409406.701 9  -1740442.254 8
  21006679.458    21006682.793   -13825360.488 9 -12148884.336 8
 90  2 22  6  5 59.0800000  0  4G 6G 9G11G13
  20782269.374    20782271.615     2567155.796 9   -531441.988 8
  20127569.401    20127572.233    -9501742.780 8  -8919141.243 6
  20668742.877    20668745.960     -395922.018 9  -1729934.727 8
  21000989.658    21000992.462   -13855263.190 9 -12172185.139 8
 90  2 22  6  6 14.0800000  0  4G 6G 9G11G13
  20787184.265    20787186.476     2592983.603 8   -511316.434 8
  20125018.558    20125019.425    -9515149.681 8  -8929588.188 8
  20671324.170    20671328.562     -382350.982 9  -1719359.883 8
  20995319.301    20995323.548   -13885055.659 9 -12195400.036 7
 90  2 22  6  6 29.0800000  0  4G 6G 9G11G13
  20792125.240    20792127.453     2618948.670 9   -491083.926 8
  20122495.332    20122496.896    -9528408.157 8  -8939919.461 7
  20673923.189    20673927.700     -368693.969 9  -1708718.043 9
  20989671.835    20989675.389   -13914738.078 9 -12218529.181 7
 90  2 22  6  6 44.0800000  0  4G 6G 9G11G13
  20797092.029    20797094.575     2645050.474 8   -470744.877 8
  20120001.860    20120002.580    -9541517.447 9  -8950134.497 7
  20676539.056    20676543.173     -354951.472 8  -1698009.616 8
  20984044.577    20984047.281   -13944310.559 9 -12241572.670 8
 90  2 22  6  6 59.0800000  0  4G 6G 9G11G13
  20802084.868    20802088.053     2671289.229 8   -450299.107 8
  20117534.641    20117536.748    -9554477.166 8  -8960232.982 7
  20679170.658    20679173.147     -341123.541 9  -1687234.593 9
  20978438.523    20978440.867   -13973772.703 9 -12264530.166 8
 90  2 22  6  7 14.0800000  0  4G 6G 9G11G13
  20807103.894    20807107.238     2697664.718 9   -429746.772 8
  20115097.327    20115098.738    -9567287.574 8  -8970215.128 8
  20681817.601    20681821.399     -327210.405 8  -1676393.191 8
  20972851.556    20972855.379   -14003124.662 9 -12287401.824 7
 90  2 22  6  7 29.0800000  0  4G 6G 9G11G13
  20812149.799    20812152.459     2724176.645 8   -409088.157 8
  20112687.526    20112689.442    -9579948.526 8  -8980080.808 7
  20684481.092    20684483.877     -313212.707 9  -1665485.892 8
  20967286.810    20967290.726   -14032366.912 9 -12310187.984 8
 90  2 22  6  7 44.0800000  0  4G 6G 9G11G13
  20817219.899    20817222.519     2750824.763 8   -388323.402 8
  20110307.249    20110309.050    -9592459.896 8  -8989829.925 8
  20687160.729    20687164.745     -299130.705 9  -1654512.901 8
  20961743.372    20961745.916   -14061499.244 9 -12332888.508 7
 90  2 22  6  7 59.0800000  0  4G 6G 9G11G13
  20822317.145    20822320.894     2777608.989 8   -367452.593 8
  20107954.712    20107956.915    -9604821.242 8  -8999462.148 7
  20689856.853    20689859.750     -284964.474 8  -1643474.284 9
  20956220.020    20956224.884   -14090521.384 9 -12355503.159 8
 90  2 22  6  8 14.0800000  0  4G 6G 9G11G13
  20827440.354    20827442.579     2804529.293 8   -346475.738 7
  20105631.520    20105632.735    -9617032.624 8  -9008977.494 8
  20692567.906    20692572.127     -270714.283 8  -1632370.246 8
  20950719.411    20950722.965   -14119433.458 9 -12378032.033 8
 90  2 22  6  8 29.0800000  0  4G 6G 9G11G13
  20832588.288    20832591.237     2831585.452 9   -325393.022 8
  20103335.686    20103338.012    -9629093.519 8  -9018375.598 7
  20695294.758    20695300.062     -256380.503 8  -1621201.070 8
  20945238.704    20945242.189   -14148235.348 9 -12400475.056 8
 90  2 22  6  8 44.0800000  0  4G 6G 9G11G13
  20837763.087    20837765.952     2858777.147 9   -304204.704 8
  20101069.539    20101071.084    -9641004.141 9  -9027656.609 8
  20698039.204    20698043.816     -241963.556 9  -1609967.087 9
  20939777.549    20939781.238   -14176927.533 9 -12422832.589 8
 90  2 22  6  8 59.0800000  0  4G 6G 9G11G13
  20842962.556    20842966.349     2886104.306 9   -282910.832 8
  20098832.039    20098834.170    -9652763.981 8  -9036820.118 7
  20700798.405    20700802.561     -227463.658 9  -1598668.467 7
  20934339.263    20934343.385   -14205510.032 9 -12445104.657 7
 90  2 22  6  9 14.0800000  0  4G 6G 9G11G13
  20848189.511    20848192.727     2913566.807 9   -261511.489 8
  20096622.108    20096623.996    -9664373.050 8  -9045866.156 8
  20703573.458    20703576.889     -212880.979 9  -1587305.331 8
  20928921.807    20928924.987   -14233982.527 9 -12467291.022 8
 90  2 22  6  9 29.0800000  0  4G 6G 9G11G13
  20853440.698    20853443.284     2941164.506 8   -240006.804 8
  20094442.265    20094444.091    -9675831.217 8  -9054794.587 7
  20706364.774    20706367.018     -198215.919 9  -1575878.004 8
  20923524.013    20923527.782   -14262345.183 9 -12489391.768 7
 90  2 22  6  9 44.0800000  0  4G 6G 9G11G13
  20858718.692    20858719.482     2968897.347 8   -218396.801 9
  20092289.895    20092291.731    -9687137.781 8  -9063604.895 6
  20709172.206    20709174.066     -183468.474 9  -1564386.488 7
  20918148.090    20918151.451   -14290597.738 9 -12511406.754 8
 90  2 22  6  9 59.0800000  0  4G 6G 9G11G13
  20864021.312    20864024.256     2996765.363 9   -196681.468 8
  20090167.603    20090169.587    -9698292.801 9  -9072297.116 7
  20711992.880    20711996.530     -168638.774 8  -1552830.880 8
  20912792.343    20912795.957   -14318740.106 9 -12533335.859 8
 90  2 22  6 10 14.0800000  0  4G 6G 9G11G13
  20869350.229    20869352.146     3024768.209 9   -174861.100 8
  20088073.444    20088075.436    -9709296.043 8  -9080871.073 8
  20714830.817    20714832.946     -153727.423 9  -1541211.637 8
  20907457.963    20907462.078   -14346772.536 9 -12555179.299 8
 90  2 22  6 10 29.0800000  0  4G 6G 9G11G13
  20874704.715    20874708.361     3052905.824 8   -152935.685 8
  20086008.713    20086011.016    -9720147.442 8  -9089326.711 7
  20717683.306    20717686.476     -138734.571 9  -1529528.903 8
  20902144.350    20902147.866   -14374695.109 9 -12576937.143 7
 90  2 22  6 10 44.0800000  0  4G 6G 9G11G13
  20880084.875    20880087.246     3081177.975 8   -130905.464 9
  20083972.610    20083974.006    -9730846.719 8  -9097663.805 7
  20720552.719    20720555.411     -123660.444 9  -1517782.836 8
  20896851.822    20896855.768   -14402507.486 9 -12598609.137 8
 90  2 22  6 10 59.0800000  0  4G 6G 9G11G13
  20885490.608    20885493.498     3109584.470 8   -108770.540 8
  20081966.080    20081967.720    -9741393.727 8  -9105882.248 7
  20723436.870    20723439.000     -108505.574 9  -1505973.826 9
  20891580.508    20891584.458   -14430209.960 9 -12620195.468 8
 90  2 22  6 11 14.0800000  0  4G 6G 9G11G13
  20890921.217    20890924.661     3138125.125 8    -86531.077 8
  20079987.481    20079989.016    -9751788.278 7  -9113981.912 7
  20726336.693    20726337.329      -93270.097 9  -1494102.029 8
  20886329.672    20886332.002   -14457802.519 9 -12641696.142 7
 90  2 22  6 11 29.0800000  0  4G 6G 9G11G13
  20896377.425    20896380.555     3166799.898 9    -64187.120 8
  20078039.503    20078040.972    -9762030.225 8  -9121962.647 7
  20729250.078    20729254.022      -77954.160 9  -1482167.547 8
  20881099.353    20881103.507   -14485284.945 9 -12663111.017 8
 90  2 22  6 11 44.0800000  0  4G 6G 9G11G13
  20901858.994    20901863.217     3195608.843 8    -41738.596 7
  20076118.456    20076121.074    -9772118.965 8  -9129824.013 7
  20732179.799    20732182.627      -62557.814 8  -1470170.389 7
  20875891.306    20875894.549   -14512657.215 9 -12684440.046 8
 90  2 22  6 11 59.0800000  0  4G 6G 9G11G13
  20907367.294    20907371.025     3224551.588 8    -19185.819 7
  20074227.029    20074229.103    -9782054.739 8  -9137566.176 7
  20735124.571    20735128.706      -47081.606 9  -1458111.004 7
  20870703.087    20870706.407   -14539919.634 9 -12705683.485 8
 90  2 22  6 12 14.0800000  0  4G 6G 9G11G13
  20912899.688    20912903.504     3253627.806 8      3470.956 7
  20072366.595    20072368.936    -9791837.343 9  -9145188.977 7
  20738085.102    20738088.335      -31526.008 9  -1445989.762 8
  20865535.658    20865540.387   -14567072.260 9 -12726841.358 8
 90  2 22  6 12 29.0800000  0  4G 6G 9G11G13
  20918457.898    20918461.804     3282837.143 9     26231.472 7
  20070534.322    20070536.773    -9801466.795 8  -9152692.437 8
  20741059.954    20741063.810      -15891.347 8  -1433806.903 8
  20860389.754    20860394.149   -14594115.351 9 -12747913.887 6
 90  2 22  6 12 44.0800000  0  4G 6G 9G11G13
  20924042.276    20924045.246     3312179.576 9     49095.699 7
  20068732.337    20068732.393    -9810943.011 8  -9160076.516 8
  20744049.376    20744053.601        -177.770 9  -1421562.554 8
  20855264.970    20855267.497   -14621048.647 8 -12768900.883 7
 90  2 22  6 12 59.0800000  0  4G 6G 9G11G13
  20929651.121    20929654.853     3341654.923 8     72063.479 8
  20066956.862    20066958.159    -9820265.766 8  -9167341.015 8
  20747055.758    20747058.415       15614.465 8  -1409256.915 8
  20850159.724    20850164.603   -14647872.167 9 -12789802.316 7
 90  2 22  6 13 14.0800000  0  4G 6G 9G11G13
  20935284.982    20935288.790     3371262.947 9     95134.661 8
  20065211.188    20065214.364    -9829434.722 8  -9174485.649 7
  20750074.628    20750079.238       31484.966 9  -1396890.292 8
  20845076.932    20845079.603   -14674585.977 9 -12810618.255 7
 90  2 22  6 13 29.0800000  0  4G 6G 9G11G13
  20940944.873    20940949.478     3401003.430 8    118309.052 9
  20063496.355    20063499.183    -9838449.987 8  -9181510.534 7
  20753109.810    20753113.569       47433.316 9  -1384463.005 8
  20840014.254    20840016.884   -14701190.350 9 -12831348.932 8
 90  2 22  6 13 44.0800000  0  4G 6G 9G11G13
  20946629.509    20946631.920     3430876.053 9    141586.404 8
  20061808.596    20061812.114    -9847311.502 8  -9188415.602 8
  20756158.973    20756163.537       63459.132 9  -1371975.363 8
  20834973.494    20834976.648   -14727685.503 9 -12851994.495 7
 90  2 22  6 13 59.0800000  0  4G 6G 9G11G13
  20952338.203    20952340.510     3460880.644 8    164966.583 9
  20060154.167    20060154.008    -9856019.135 8  -9195200.764 8
  20759222.958    20759226.584       79562.102 8  -1359427.597 7
  20829951.520    20829955.254   -14754071.359 9 -12872554.902 7
 90  2 22  6 14 14.0800000  0  4G 6G 9G11G13
  20958074.117    20958077.390     3491017.155 9    188449.577 8
  20058525.037    20058526.996    -9864572.450 8  -9201865.692 6
  20762302.160    20762306.235       95742.290 7  -1346819.662 7
  20824951.974    20824955.118   -14780347.672 9 -12893029.937 8
 90  2 22  6 14 29.0800000  0  4G 6G 9G11G13
  20963833.182    20963836.181     3521285.758 9    212035.470 8
  20056927.167    20056929.370    -9872970.965 8  -9208410.011 7
  20765396.370    20765399.114      111999.559 9  -1334151.664 8
  20819971.917    20819975.868   -14806514.393 9 -12913419.580 6
 90  2 22  6 14 44.0800000  0  4G 6G 9G11G13
  20969618.081    20969622.504     3551686.246 8    235724.141 8
  20055357.124    20055361.397    -9881214.624 8  -9214833.639 8
  20768505.357    20768507.240      128333.661 9  -1321423.795 8
  20815013.096    20815017.790   -14832571.355 9 -12933723.696 7
 90  2 22  6 14 59.0800000  0  4G 6G 9G11G13
  20975428.812    20975432.437     3582218.542 8    259515.524 9
  20053819.306    20053822.653    -9889303.135 8  -9221136.371 7
  20771628.092    20771630.531      144744.491 9  -1308636.122 8
  20810076.196    20810077.838   -14858518.502 9 -12953942.245 7
 90  2 22  6 15 14.0800000  0  4G 6G 9G11G13
  20981264.090    20981267.794     3612882.410 9    283409.441 9
  20052309.467    20052312.441    -9897236.259 7  -9227318.023 8
  20774764.858    20774767.268      161231.724 9  -1295788.927 8
  20805160.232    20805163.134   -14884355.895 9 -12974075.276 7
 90  2 22  6 15 29.0800000  0  4G 6G 9G11G13
  20987124.591    20987127.295     3643677.430 9    307405.547 7
  20050830.325    20050831.703    -9905014.349 8  -9233378.868 7
  20777915.890    20777920.750      177794.739 9  -1282882.676 9
  20800263.075    20800267.375   -14910083.820 9 -12994123.009 8
 90  2 22  6 15 44.0800000  0  4G 6G 9G11G13
  20993009.544    20993012.465     3674603.126 9    331503.472 8
  20049378.810    20049381.790    -9912637.465 8  -9239318.961 7
  20781082.617    20781085.828      194433.056 9  -1269917.764 9
  20795387.963    20795391.563   -14935702.532 8 -13014085.627 8
 90  2 22  6 15 59.0800000  0  4G 6G 9G11G13
  20998920.027    20998920.906     3705659.880 9    355703.514 7
  20047957.802    20047960.344    -9920104.726 9  -9245137.610 8
  20784263.335    20784266.848      211146.840 9  -1256894.032 8
  20790533.185    20790537.564   -14961211.746 9 -13033962.930 7
 90  2 22  6 16 14.0800000  0  4G 6G 9G11G13
  21004854.012    21004857.078     3736847.327 9    380005.408 8
  20046566.910    20046567.973    -9927416.389 8  -9250835.008 7
  20787458.451    20787461.596      227935.830 8  -1243811.710 8
  20785700.579    20785704.072   -14986611.472 9 -13053754.915 8
 90  2 22  6 16 29.0800000  0  4G 6G 9G11G13
  21010814.043    21010816.086     3768165.138 8    404408.887 8
  20045205.410    20045206.978    -9934572.234 8  -9256410.990 8
  20790667.164    20790670.354      244799.569 8  -1230671.143 8
  20780887.779    20780891.513   -15011902.058 9 -13073461.846 9
 90  2 22  6 16 44.0800000  0  4G 6G 9G11G13
  21016798.900    21016801.940     3799613.207 9    428913.848 8
  20043873.053    20043874.821    -9941572.008 8  -9261865.360 8
  20793891.175    20793893.352      261737.792 9  -1217472.519 8
  20776095.885    20776099.678   -15037083.333 9 -13093083.610 7
 90  2 22  6 16 59.0800000  0  4G 6G 9G11G13
  21022807.471    21022810.057     3831191.651 8    453520.428 8
  20042568.979    20042572.808    -9948415.523 8  -9267197.965 7
  20797128.863    20797132.769      278750.561 9  -1204215.821 8
  20771324.947    20771327.969   -15062154.870 9 -13112619.852 8
 90  2 22  6 17 14.0800000  0  4G 6G 9G11G13
  21028841.048    21028844.649     3862900.240 9    478228.387 8
  20041296.987    20041299.548    -9955102.476 8  -9272408.599 7
  20800379.437    20800382.196      295837.614 9  -1190901.239 8
  20766575.093    20766578.354   -15087116.865 9 -13132070.752 7
 90  2 22  6 17 29.0800000  0  4G 6G 9G11G13
  21034899.963    21034902.936     3894738.556 9    503037.449 8
  20040055.750    20040057.853    -9961632.893 9  -9277497.229 7
  20803644.516    20803648.426      312998.405 9  -1177529.197 8
  20761845.864    20761848.899   -15111969.593 9 -13151436.509 8
 90  2 22  6 17 44.0800000  0  4G 6G 9G11G13
  21040983.562    21040986.745     3926706.604 9    527947.606 8
  20038842.722    20038845.101    -9968006.560 8  -9282463.724 8
  20806924.359    20806928.153      330232.852 8  -1164099.746 8
  20757137.061    20757140.237   -15136713.103 9 -13170717.156 7
 90  2 22  6 17 59.0800000  0  4G 6G 9G11G13
  21047091.274    21047095.229     3958804.110 9    552958.628 9
  20037659.686    20037661.402    -9974223.477 7  -9287308.076 7
  20810217.815    20810221.926      347540.605 9  -1150613.188 8
  20752448.454    20752453.163   -15161347.422 9 -13189912.723 8
 90  2 22  6 18 14.0800000  0  4G 6G 9G11G13
  21053223.119    21053227.354     3991030.639 9    578070.184 7
  20036506.928    20036507.981    -9980283.589 8  -9292030.236 8
  20813524.992    20813527.555      364920.986 9  -1137070.038 8
  20747782.010    20747785.929   -15185872.811 9 -13209023.399 9
 90  2 22  6 18 29.0800000  0  4G 6G 9G11G13
  21059380.983    21059384.969     4023385.922 9    603282.080 8
  20035383.208    20035385.606    -9986186.743 8  -9296630.111 7
  20816846.388    20816848.942      382373.904 8  -1123470.346 8
  20743135.068    20743139.200   -15210289.144 9 -13228049.109 7
 90  2 22  6 18 44.0800000  0  4G 6G 9G11G13
  21065562.973    21065565.625     4055869.853 9    628594.239 8
  20034290.271    20034291.534    -9991933.036 7  -9301107.749 8
  20820181.630    20820185.438      399899.183 9  -1109814.294 8
  20738509.372    20738513.749   -15234596.662 9 -13246990.013 8
 90  2 22  6 18 59.0800000  0  4G 6G 9G11G13
  21071768.251    21071770.925     4088482.381 9    654006.599 8
  20033225.897    20033229.239    -9997522.049 8  -9305462.821 7
  20823531.297    20823533.987      417496.455 9  -1096102.137 8
  20733905.115    20733908.318   -15258794.999 9 -13265845.846 7
 90  2 22  6 19 14.0800000  0  4G 6G 9G11G13
  21077997.047    21078002.581     4121223.167 9    679518.878 8
  20032191.666    20032195.118   -10002953.711 8  -9309695.297 7
  20826892.288    20826896.029      435165.445 9  -1082334.085 8
  20729320.900    20729325.055   -15282884.472 9 -13284616.850 7
 90  2 22  6 19 29.0800000  0  4G 6G 9G11G13
  21084253.171    21084256.680     4154091.920 9    705130.874 8
  20031188.620    20031191.266   -10008227.925 9  -9313805.076 8
  20830268.432    20830271.634      452905.767 9  -1068510.453 7
  20724758.080    20724761.460   -15306865.113 9 -13303303.062 9
 90  2 22  6 19 44.0800000  0  4G 6G 9G11G13
  21090532.501    21090535.750     4187088.657 9    730842.597 9
  20030215.318    20030217.597   -10013344.325 9  -9317791.900 7
  20833658.439    20833661.496      470717.286 9  -1054631.345 8
  20720215.758    20720219.192   -15330736.940 9 -13321904.488 8
 90  2 22  6 19 59.0800000  0  4G 6G 9G11G13
  21096835.493    21096839.838     4220212.932 9    756653.715 9
  20029271.846    20029274.325   -10018303.223 8  -9321655.968 7
  20837061.025    20837065.145      488599.612 9  -1040697.058 7
  20715693.673    20715696.650   -15354500.034 9 -13340421.173 7
 90  2 22  6 20 14.0800000  0  4G 6G 9G11G13
  21103163.053    21103167.426     4253464.459 9    782563.983 8
  20028358.376    20028359.735   -10023104.392 9  -9325397.138 8
  20840476.977    20840480.818      506552.294 9  -1026707.961 8
  20711192.795    20711195.590   -15378154.642 9 -13358853.327 7
 90  2 22  6 20 29.0800000  0  4G 6G 9G11G13
  21109516.035    21109518.167     4286843.174 9    808573.354 8
  20027475.394    20027476.051   -10027747.734 8  -9329015.325 7
  20843907.372    20843910.004      524575.251 9  -1012664.092 7
  20706712.484    20706716.091   -15401700.599 9 -13377200.820 8
 90  2 22  6 20 44.0800000  0  4G 6G 9G11G13
  21115891.771    21115894.137     4320348.968 9    834681.759 8
  20026621.660    20026623.576   -10032233.005 7  -9332510.341 7
  20847350.343    20847352.875      542668.530 9   -998565.437 7
  20702252.101    20702254.954   -15425137.893 9 -13395463.656 7
 90  2 22  6 20 59.0800000  0  4G 6G 9G11G13
  21122291.429    21122294.041     4353981.749 9    860889.097 8
  20025797.173    20025799.858   -10036559.745 8  -9335881.847 8
  20850808.204    20850810.336      560831.795 9   -984412.252 8
  20697812.532    20697815.572   -15448466.605 9 -13413641.848 7
 90  2 22  6 21 14.0800000  0  3G 6G11G13
  21128716.072    21128717.758     4387741.000 9    887195.007 8
  20854276.518    20854279.656      579064.547 9   -970204.904 8
  20693393.580    20693396.844   -15471686.726 9 -13431735.451 8
 90  2 22  6 21 29.0800000  0  3G 6G11G13
  21135163.508    21135167.036     4421626.299 9    913599.122 8
  20857758.713    20857762.030      597366.127 9   -955943.940 8
  20688993.957    20688997.993   -15494798.779 9 -13449744.836 7
 90  2 22  6 21 44.0800000  0  4G 6G12G11G13
  21141635.589    21141638.624     4455637.695 9    940101.495 8
                  21815643.166   -33629161.844 7
  20861254.517    20861257.797      615736.608 9   -941629.288 9
  20684617.114    20684621.612   -15517802.694 8 -13467669.954 6
 90  2 22  6 21 59.0800000  0  4G 6G12G11G13
  21148131.120    21148134.345     4489775.182 9    966702.135 8
  21806725.446    21806728.966   -33675775.560 9  42779676.711 8
  20864762.891    20864766.654      634175.980 8   -927260.957 9
  20680260.477    20680264.860   -15540698.183 9 -13485510.579 7
 90  2 22  6 22 14.0800000  0  4G 6G12G11G13
  21154652.206    21154654.814     4524038.711 9    993400.971 8
  21797868.701    21797871.917   -33722316.944 9  42743410.708 8
  20868285.179    20868289.557      652684.007 9   -912839.110 8
  20675924.248    20675927.773   -15563485.126 9 -13503266.634 7
 90  2 22  6 22 29.0800000  0  4G 6G12G11G13
  21161196.228    21161199.152     4558428.054 9   1020197.853 8
  21789025.783    21789029.255   -33768785.866 9  42707201.158 8
  20871820.213    20871823.478      671260.694 9   -898363.791 8
  20671608.591    20671612.342   -15586163.644 8 -13520938.206 6
 90  2 22  6 22 44.0800000  0  4G 6G12G11G13
  21167764.179    21167767.190     4592943.255 9   1047092.798 7
  21780196.642    21780200.876   -33815181.708 9  42671048.561 9
  20875369.104    20875371.145      689905.728 9   -883835.197 8
  20667314.273    20667318.712   -15608733.612 9 -13538525.185 7
 90  2 22  6 22 59.0800000  0  4G 6G12G11G13
  21174356.840    21174359.464     4627583.806 9   1074085.420 8
  21771381.665    21771386.081   -33861504.270 9  42634953.065 8
  20878929.580    20878932.754      708618.696 9   -869253.654 8
  20663039.738    20663044.097   -15631195.171 9 -13556027.688 7
 90  2 22  6 23 14.0800000  0  4G 6G12G11G13
  21180972.767    21180975.179     4662349.480 9   1101175.542 9
  21762581.006    21762585.462   -33907753.276 9  42598914.886 9
  20882501.996    20882505.948      727399.275 9   -854619.450 8
  20658785.786    20658790.338   -15653548.369 9 -13573445.751 8
 90  2 22  6 23 29.0800000  0  4G 6G12G11G13
  21187612.336    21187614.045     4697239.967 9   1128362.915 9
  21753794.389    21753797.730   -33953928.411 9  42562934.273 8
  20886089.036    20886091.892      746247.095 9   -839932.834 7
  20654553.373    20654557.752   -15675793.425 9 -13590779.545 7
 90  2 22  6 23 44.0800000  0  4G 6G12G11G13
  21194274.810    21194277.321     4732254.848 9   1155647.234 8
  21745021.671    21745024.987   -34000029.449 9  42527011.396 8
  20889689.188    20889692.234      765161.691 9   -825194.183 8
  20650340.853    20650344.460   -15697930.742 9 -13608029.392 6
 90  2 22  6 23 59.0800000  0  4G 6G12G11G13
  21200961.169    21200964.038     4767394.071 9   1183028.421 8
  21736262.747    21736266.552   -34046056.030 9  42491146.523 8
  20893300.337    20893304.000      784142.895 9   -810403.636 9
  20646148.445    20646152.674   -15719960.228 9 -13625195.236 7
 90  2 22  6 24 14.0800000  0  4G 6G12G11G13
  21207671.168    21207674.102     4802657.493 9   1210506.399 9
  21727519.319    21727521.740   -34092007.474 9  42455340.219 8
  20896925.456    20896928.664      803190.658 9   -795561.230 8
  20641976.694    20641980.639   -15741881.653 8 -13642276.833 7
 90  2 22  6 24 29.0800000  0  4G 6G12G11G13
  21214405.673    21214407.528     4838044.997 9   1238081.081 8
  21718789.716    21718792.081   -34137883.469 9  42419592.697 8
  20900562.864    20900566.773      822304.702 9   -780667.168 8
  20637825.472    20637828.663   -15763694.966 9 -13659274.213 7
 90  2 22  6 24 44.0800000  0  4G 6G12G11G13
  21221163.421    21221166.788     4873556.152 9   1265752.092 8
  21710073.974    21710076.987   -34183683.850 9  42383904.091 8
  20904211.748    20904216.336      841484.550 9   -765721.828 8
  20633695.929    20633699.795   -15785400.510 9 -13676187.607 7
 90  2 22  6 24 59.0800000  0  4G 6G12G11G13
  21227944.550    21227947.174     4909190.543 9   1293519.136 9
  21701372.879    21701375.828   -34229408.412 9  42348274.566 8
  20907875.954    20907877.603      860729.871 9   -750725.473 9
  20629585.936    20629588.495   -15806998.524 9 -13693017.215 7
 90  2 22  6 25 14.0800000  0  4G 6G12G11G13
  21234749.185    21234751.766     4944948.116 9   1321382.160 9
  21692686.160    21692689.409   -34275056.583 9  42312704.567 9
  20911550.389    20911553.795      880040.471 8   -735678.260 8
  20625496.734    20625500.396   -15828488.830 9 -13709762.910 7
 90  2 22  6 25 29.0800000  0  4G 6G12G11G13
  21241576.417    21241579.545     4980828.655 9   1349340.999 8
  21684013.727    21684017.752   -34320627.964 9  42277194.398 8
  20915238.011    20915240.177      899416.082 9   -720580.391 8
  20621427.498    20621429.612   -15849871.583 9 -13726424.782 6
 90  2 22  6 25 44.0800000  0  4G 6G12G11G13
  21248427.789    21248430.873     5016831.852 9   1377395.427 8
  21675356.300    21675360.801   -34366122.293 9  42241744.281 8
  20918937.246    20918938.743      918856.436 9   -705432.043 8
  20617379.354    20617382.501   -15871146.969 9 -13743003.001 7
 90  2 22  6 25 59.0800000  0  4G 6G12G11G13
  21255301.425    21255305.751     5052957.503 9   1405545.269 8
  21666714.186    21666717.047   -34411539.134 9  42206354.542 8
  20922648.175    20922651.211      938361.266 9   -690233.484 8
  20613350.079    20613353.662   -15892315.061 9 -13759497.610 7
 90  2 22  6 26 14.0800000  0  4G 6G12G11G13
  21262200.193    21262202.900     5089205.346 9   1433790.330 8
  21658086.440    21658090.014   -34456878.125 9  42171025.469 8
  20926372.096    20926375.685      957930.298 9   -674984.908 9
  20609342.508    20609346.106   -15913375.782 9 -13775908.560 7
 90  2 22  6 26 29.0800000  0  4G 6G12G11G13
  21269121.003    21269123.942     5125575.187 9   1462130.443 8
  21649473.867    21649477.184   -34502139.008 9  42135757.253 9
  20930108.604    20930112.199      977563.091 9   -659686.617 8
  20605355.407    20605359.933   -15934329.290 9 -13792235.959 7
 90  2 22  6 26 44.0800000  0  4G 6G12G11G13
  21276064.915    21276068.996     5162066.355 9   1490565.101 8
  21640876.052    21640878.372   -34547321.730 9  42100549.940 8
  20933856.554    20933858.880      997259.093 9   -644339.088 8
  20601388.875    20601392.787   -15955175.844 9 -13808480.014 7
 90  2 22  6 26 59.0800000  0  4G 6G12G11G13
  21283032.492    21283035.713     5198678.723 9   1519094.209 9
  21632292.941    21632295.898   -34592425.689 9  42065403.991 7
  20937616.323    20937620.186     1017018.155 9   -628942.423 8
  20597442.023    20597444.244   -15975915.635 9 -13824640.876 7
 90  2 22  6 27 14.0800000  0  4G 6G12G11G13
  21290022.718    21290025.583     5235412.597 9   1547718.005 8
  21623724.720    21623727.390   -34637450.029 9  42030320.097 8
  20941387.985    20941391.831     1036840.562 9   -613496.379 9
  20593515.455    20593517.100   -15996548.297 9 -13840718.263 6
 90  2 22  6 27 29.0800000  0  4G 6G12G11G13
  21297035.825    21297038.348     5272267.904 9   1576436.404 8
  21615171.817    21615175.186   -34682394.312 9  41995298.581 8
  20945171.754    20945176.278     1056726.285 9   -598001.022 9
  20589609.688    20589612.140   -16017073.608 9 -13856712.025 8
 90  2 22  6 27 44.0800000  0  4G 6G12G11G13
  21304071.830    21304074.497     5309243.744 9   1605248.727 8
  21606635.296    21606638.273   -34727258.920 9  41960339.154 8
  20948968.171    20948971.505     1076674.243 9   -582457.164 8
  20585724.007    20585729.053   -16037492.274 9 -13872622.655 6
 90  2 22  6 27 59.0800000  0  4G 6G12G11G13
  21311130.839    21311133.278     5346339.505 9   1634154.506 9
  21598112.363    21598115.979   -34772043.746 9  41925441.883 8
  20952775.939    20952779.736     1096683.877 9   -566865.232 8
  20581858.620    20581862.833   -16057804.875 9 -13888450.639 7
 90  2 22  6 28 14.0800000  0  4G 6G12G11G13
  21318212.961    21318216.246     5383555.038 9   1663153.623 9
  21589605.701    21589609.049   -34816748.230 9  41890607.214 8
  20956594.564    20956598.668     1116755.148 9   -551225.284 8
  20578013.344    20578016.273   -16078011.435 9 -13904196.024 8
 90  2 22  6 28 29.0800000  0  4G 6G12G11G13
  21325318.380    21325320.814     5420890.040 9   1692245.799 9
  21581114.391    21581117.280   -34861372.131 9  41855835.346 8
  20960425.627    20960429.708     1136887.603 9   -535537.661 8
  20574187.553    20574192.582   -16098111.805 9 -13919858.641 7
 90  2 22  6 28 44.0800000  0  4G 6G12G11G13
  21332445.618    21332449.118     5458343.953 9   1721430.646 8
  21572636.837    21572640.923   -34905915.312 9  41821126.379 8
  20964268.658    20964272.361     1157080.737 9   -519802.763 8
  20570383.978    20570387.204   -16118106.559 9 -13935438.956 7
 90  2 22  6 28 59.0800000  0  4G 6G12G11G13
  21339595.464    21339598.190     5495916.893 9   1750708.249 9
  21564176.714    21564180.012   -34950377.228 9  41786480.730 8
  20968122.644    20968125.114     1177334.339 9   -504020.736 8
  20566599.029    20566602.450   -16137995.404 9 -13950936.745 7
 90  2 22  6 29 14.0800000  0  4G 6G12G11G13
  21346767.118    21346771.074     5533608.335 9   1780078.184 8
  21555731.175    21555734.137   -34994757.686 9  41751898.558 8
  20971987.838    20971992.777     1197648.141 9   -488191.800 8
  20562835.332    20562839.026   -16157778.595 9 -13966352.199 8
 90  2 22  6 29 29.0800000  0  4G 6G12G11G13
  21353962.268    21353964.563     5571417.993 9   1809540.247 9
  21547300.952    21547304.664   -35039056.338 9  41717380.124 7
  20975865.743    20975868.568     1218021.808 9   -472316.215 8
  20559089.369    20559093.297   -16177456.382 9 -13981685.526 8
 90  2 22  6 29 44.0800000  0  4G 6G12G11G13
  21361180.455    21361183.010     5609345.864 9   1839094.422 8
  21538886.724    21538890.024   -35083272.687 9  41682925.830 8
  20979753.785    20979758.055     1238455.241 9   -456394.054 7
  20555365.141    20555368.432   -16197028.607 9 -13996936.599 7
 90  2 22  6 29 59.0800000  0  4G 6G12G11G13
  21368419.722    21368422.575     5647391.620 9   1868740.459 8
  21530488.001    21530492.417   -35127406.231 9  41648536.044 8
  20983653.412    20983656.867     1258948.214 9   -440425.503 8
  20551659.792    20551664.442   -16216495.174 8 -14012105.338 8
 90  2 22  6 30 14.0800000  0  4G 6G12G11G13
  21375682.513    21375684.519     5685555.098 9   1898478.220 9
  21522106.207    21522110.285   -35171456.557 9  41614211.124 8
  20987564.613    20987567.758     1279500.446 9   -424410.785 8
  20547976.308    20547980.377   -16235856.216 9 -14027191.856 7
 90  2 22  6 30 29.0800000  0  4G 6G12G11G13
  21382967.338    21382968.755     5723836.378 9   1928307.771 8
  21513739.673    21513743.091   -35215423.014 9  41579951.543 8
  20991486.613    20991489.850     1300111.993 9   -408349.852 8
  20544313.041    20544315.278   -16255111.685 9 -14042196.100 7
 90  2 22  6 30 44.0800000  0  4G 6G12G11G13
  21390274.325    21390276.440     5762235.449 9   1958229.105 8
  21505389.728    21505393.078   -35259304.995 9  41545757.799 7
  20995420.731    20995423.524     1320782.896 9   -392242.657 7
  20540668.106    20540672.155   -16274261.337 9 -14057117.908 7
 90  2 22  6 30 59.0800000  0  4G 6G12G11G13
  21397604.268    21397606.004     5800752.169 9   1988242.135 8
  21497055.253    21497057.759   -35303102.073 9  41511630.209 8
  20999365.031    20999368.454     1341513.021 9   -376089.293 8
  20537043.899    20537047.930   -16293305.294 9 -14071957.351 8
 90  2 22  6 31 14.0800000  0  4G 6G12G11G13
  21404954.217    21404958.357     5839386.163 9   2018346.527 8
  21488736.767    21488740.409   -35346814.036 9  41477568.935 7
  21003320.252    21003324.843     1362301.962 9   -359890.132 8
  20533440.562    20533444.578   -16312243.638 9 -14086714.495 7
 90  2 22  6 31 29.0800000  0  4G 6G12G11G13
  21412328.241    21412332.572     5878137.139 9   2048542.078 8
  21480435.205    21480437.778   -35390440.424 9  41443574.360 8
  21007287.785    21007291.545     1383149.393 9   -343645.382 8
  20529856.081    20529860.069   -16331076.342 9 -14101389.322 7
 90  2 22  6 31 44.0800000  0  4G 6G12G11G13
  21419724.854    21419728.624     5917004.543 8   2078828.337 8
  21472149.897    21472153.009   -35433981.118 9  41409646.544 8
  21011266.227    21011269.887     1404054.889 9   -327355.408 8
  20526292.634    20526296.620   -16349804.001 9 -14115982.305 8
 90  2 22  6 31 59.0800000  0  4G 6G12G11G13
  21427143.497    21427147.794     5955987.918 9   2109204.982 8
  21463880.052    21463883.807   -35477435.956 9  41375785.640 8
  21015255.017    21015258.537     1425017.929 9   -311020.561 8
  20522748.628    20522751.060   -16368426.439 9 -14130493.271 6
 90  2 22  6 32 14.0800000  0  4G 6G12G11G13
  21434583.236    21434587.261     5995087.234 8   2139671.966 9
  21455628.128    21455630.642   -35520804.475 9  41341991.997 8
  21019255.426    21019258.157     1446038.390 8   -294640.974 8
  20519225.420    20519227.651   -16386943.774 8 -14144922.360 7
 90  2 22  6 32 29.0800000  0  4G 6G12G11G13
  21442045.637    21442049.904     6034302.375 8   2170229.193 8
  21447391.350    21447395.295   -35564086.057 9  41308266.096 8
  21023267.535    21023269.450     1467116.215 9   -278216.696 8
  20515720.756    20515725.320   -16405356.065 9 -14159269.586 6
 90  2 22  6 32 44.0800000  0  4G 6G12G11G13
  21449530.235    21449533.218     6073633.207 9   2200876.585 7
  21439172.045    21439175.064   -35607280.257 9  41274608.284 8
  21027289.174    21027291.795     1488251.144 9   -261747.928 8
  20512237.788    20512240.469   -16423663.387 9 -14173535.021 7
 90  2 22  6 32 59.0800000  0  4G 6G12G11G13
  21457037.140    21457039.620     6113079.320 8   2231613.794 7
  21430968.871    21430971.955   -35650386.882 9  41241018.706 8
  21031321.424    21031323.756     1509442.820 8   -245234.938 8
  20508773.165    20508776.367   -16441865.949 9 -14187718.848 7
 90  2 22  6 33 14.0800000  0  4G 6G12G11G13
  21464564.603    21464567.828     6152640.368 9   2262440.587 8
  21422783.148    21422786.010   -35693405.641 9  41207497.592 9
  21035364.967    21035368.121     1530691.016 9   -228677.905 8
  20505330.153    20505334.453   -16459963.871 9 -14201821.106 7
 90  2 22  6 33 29.0800000  0  4G 6G12G11G13
  21472114.622    21472119.024     6192315.799 9   2293356.479 8
  21414613.725    21414616.570   -35736336.414 9  41174045.044 8
  21039418.464    21039421.617     1551995.116 9   -212077.304 8
  20501905.568    20501909.287   -16477957.472 9 -14215842.090 7
 90  2 22  6 33 44.0800000  0  4G 6G12G11G13
  21479686.203    21479690.473     6232105.539 9   2324361.460 9
  21406460.884    21406465.664   -35779178.644 9  41140661.486 9
  21043484.048    21043486.862     1573355.020 9   -195433.231 8
  20498501.191    20498506.358   -16495846.539 9 -14229781.604 7
 90  2 22  6 33 59.0800000  0  4G 6G12G11G13
  21487279.651    21487284.622     6272009.532 9   2355455.456 8
  21398324.620    21398328.512   -35821931.809 9  41107347.337 8
  21047559.049    21047561.461     1594770.633 9   -178745.735 9
  20495117.503    20495120.853   -16513631.330 9 -14243639.873 7
 90  2 22  6 34 14.0800000  0  4G 6G12G11G13
  21494896.307    21494898.544     6312027.249 9   2386638.079 8
  21390206.481    21390210.039   -35864595.769 9  41074102.696 7
  21051644.730    21051647.626     1616241.475 9   -162015.215 8
  20491752.754    20491755.481   -16531312.093 9 -14257417.069 7
 90  2 22  6 34 29.0800000  0  4G 6G12G11G13
  21502531.490    21502534.731     6352157.840 9   2417908.651 8
  21382104.067    21382108.063   -35907170.616 9  41040927.494 8
  21055740.793    21055743.632     1637766.702 9   -145242.315 9
  20488407.839    20488412.413   -16548889.332 9 -14271113.618 6
 90  2 22  6 34 44.0800000  0  4G 6G12G11G13
  21510189.904    21510193.410     6392401.315 9   2449267.178 7
  21374020.041    21374022.893   -35949655.950 9  41007822.036 7
  21059847.600    21059849.337     1659346.266 9   -128427.089 8
  20485083.290    20485087.429   -16566363.045 9 -14284729.496 6
 90  2 22  6 34 59.0800000  0  4G 6G12G11G13
  21517869.635    21517872.989     6432757.550 9   2480713.570 8
  21365952.454    21365955.415   -35992051.054 9  40974786.896 8
  21063964.337    21063966.329     1680980.215 9   -111569.464 9
  20481778.329    20481780.694   -16583733.061 9 -14298264.553 7
 90  2 22  6 35 14.0800000  0  4G 6G12G11G13
  21525570.171    21525574.770     6473226.337 9   2512247.688 9
  21357901.826    21357905.435   -36034355.524 9  40941822.368 8
  21068091.137    21068094.383     1702668.306 9    -94669.657 8
  20478492.526    20478494.603   -16600999.620 9 -14311719.014 7
 90  2 22  6 35 29.0800000  0  4G 6G12G11G13
  21533293.356    21533296.410     6513807.360 9   2543869.238 8
  21349868.817    21349872.554   -36076569.064 9  40908928.716 7
  21072227.861    21072231.516     1724410.094 9    -77727.998 8
  20475226.829    20475229.276   -16618162.471 9 -14325092.647 8
 90  2 22  6 35 44.0800000  0  4G 6G12G11G13
  21541036.347    21541039.687     6554500.669 9   2575578.301 8
  21341853.997    21341856.657   -36118690.827 9  40876106.564 8
  21076377.144    21076379.562     1746205.810 9    -60744.327 8
  20471980.124    20471983.416   -16635221.449 9 -14338385.339 7
 90  2 22  6 35 59.0800000  0  4G 6G12G11G13
  21548801.218    21548804.917     6595306.059 9   2607374.687 8
  21333855.997    21333858.370   -36160720.443 9  40843356.226 8
  21080534.439    21080536.883     1768055.260 9    -43718.789 8
  20468753.821    20468757.733   -16652176.790 9 -14351597.299 7
 90  2 22  6 36 14.0800000  0  4G 6G12G11G13
  21556587.738    21556591.465     6636223.230 9   2639258.186 9
  21325875.211    21325879.112   -36202657.546 9  40810677.967 9
  21084701.779    21084705.088     1789958.105 9    -26651.637 8
  20465545.341    20465550.725   -16669028.610 9 -14364728.578 7
 90  2 22  6 36 29.0800000  0  4G 6G12G11G13
  21564396.124    21564399.449     6677252.070 9   2671228.699 9
  21317912.603    21317916.874   -36244501.607 9  40778072.212 8
  21088879.554    21088883.856     1811914.188 9     -9543.012 8
  20462359.077    20462363.294   -16685776.944 9 -14377779.206 7
 90  2 22  6 36 44.0800000  0  4G 6G12G11G13
  21572224.570    21572227.350     6718392.303 9   2703286.000 9
  21309967.799    21309971.396   -36286252.303 9  40745539.216 9
  21093067.963    21093071.641     1833923.310 9      7606.960 8
  20459191.656    20459195.212   -16702421.609 9 -14390749.063 7
 90  2 22  6 36 59.0800000  0  4G 6G12G11G13
  21580075.397    21580078.262     6759643.868 9   2735430.052 9
  21302041.044    21302043.760   -36327909.153 9  40713079.336 8
  21097266.000    21097269.555     1855985.373 9     24798.178 8
  20456044.803    20456047.424   -16718962.651 9 -14403638.177 8
 90  2 22  6 37 14.0800000  0  4G 6G12G11G13
  21587945.493    21587949.462     6801006.330 9   2767660.532 9
  21294131.883    21294134.916   -36369471.906 9  40680692.782 8
  21101474.185    21101476.039     1878100.166 9     42030.495 7
  20452916.659    20452918.835   -16735400.190 9 -14416446.643 7
 90  2 22  6 37 29.0800000  0  4G 6G12G11G13
  21595837.917    21595841.903     6842479.039 9   2799976.905 8
  21286240.392    21286243.355   -36410940.526 9  40648379.578 8
  21105692.609    21105695.729     1900266.899 9     59303.256 9
  20449808.764    20449810.286   -16751734.962 9 -14429175.012 7
 90  2 22  6 37 44.0800000  0  4G 6G12G11G13
  21603750.345    21603753.998     6884061.939 9   2832379.149 8
  21278366.689    21278370.490   -36452314.524 9  40616140.114 8
  21109921.055    21109924.258     1922485.423 8     76616.392 9
  20446719.422    20446722.802   -16767966.912 9 -14441823.293 8
 90  2 22  6 37 59.0800000  0  4G 6G12G11G13
  21611684.476    21611687.845     6925755.080 9   2864867.298 9
  21270512.319    21270515.675   -36493593.137 9  40583974.963 9
  21114158.351    21114162.875     1944755.976 9     93970.064 8
  20443650.109    20443653.543   -16784095.611 9 -14454391.108 8
 90  2 22  6 38 14.0800000  0  4G 6G12G11G13
  21619638.757    21619643.446     6967557.963 9   2897440.960 9
  21262675.663    21262678.837   -36534776.131 9  40551884.329 9
  21118406.778    21118408.441     1967078.010 9    111363.852 8
  20440600.032    20440604.054   -16800121.507 9 -14466878.804 7
 90  2 22  6 38 29.0800000  0  4G 6G12G11G13
  21627614.888    21627618.244     7009469.817 9   2930099.519 9
  21254856.574    21254860.180   -36575863.708 9  40519868.025 7
  21122663.878    21122665.758     1989450.748 9    128797.159 8
  20437570.653    20437573.045   -16816045.045 9 -14479286.738 7
 90  2 22  6 38 44.0800000  0  4G 6G12G11G13
  21635611.153    21635614.050     7051490.028 9   2962842.535 8
  21247056.443    21247060.055   -36616855.725 9  40487926.191 8
  21126931.119    21126934.101     2011873.853 9    146269.700 8
  20434559.210    20434563.029   -16831866.578 9 -14491615.193 7
 90  2 22  6 38 59.0800000  0  4G 6G12G11G13
  21643628.708    21643631.461     7093618.495 9   2995669.892 9
  21239274.341    21239278.290   -36657751.683 9  40456059.227 8
  21131207.707    21131210.151     2034347.090 9    163781.309 7
  20431567.600    20431571.880   -16847586.186 9 -14503864.228 7
 90  2 22  6 39 14.0800000  0  4G 6G12G11G13
  21651665.469    21651668.277     7135854.792 9   3028581.278 9
  21231510.701    21231513.529   -36698551.404 9  40424267.226 8
  21135493.012    21135496.235     2056869.990 9    181331.624 8
  20428595.671    20428599.458   -16863203.963 9 -14516033.908 7
 90  2 22  6 39 29.0800000  0  4G 6G12G11G13
  21659722.875    21659726.529     7178198.627 9   3061576.458 8
  21223764.915    21223768.200   -36739254.572 9  40392550.484 8
  21139788.340    21139791.299     2079442.315 9    198920.436 8
  20425643.813    20425645.937   -16878720.265 9 -14528124.525 8
 90  2 22  6 39 44.0800000  0  4G 6G12G11G13
  21667800.590    21667804.584     7220649.731 9   3094655.234 8
  21216037.426    21216040.867   -36779860.755 9  40360909.310 7
  21144093.747    21144096.792     2102063.839 9    216547.595 8
  20422710.510    20422712.672   -16894135.150 9 -14540136.099 7
 90  2 22  6 39 59.0800000  0  4G 6G12G11G13
  21675898.736    21675902.730     7263207.946 8   3127817.457 8
  21208329.456    21208331.235   -36820369.474 9  40329344.080 7
  21148407.356    21148410.991     2124734.475 9    234213.024 9
  20419796.076    20419798.920   -16909448.812 9 -14552068.825 8
 90  2 22  6 40 14.0800000  0  4G 6G12G11G13
  21684018.114    21684023.688     7305873.454 8   3161063.293 7
  21200639.947    21200641.130   -36860779.869 9  40297855.462 7
  21152731.251    21152734.362     2147454.443 9    251916.877 8
  20416902.205    20416904.054   -16924660.666 9 -14563922.209 7
 90  2 22  6 40 29.0800000  0  4G 6G12G11G13
  21692157.756    21692162.241     7348646.017 9   3194392.535 9
  21192968.636    21192971.772   -36901091.470 9  40266443.823 8
  21157064.315    21157066.836     2170223.541 9    269659.035 8
  20414025.857    20414029.261   -16939770.738 9 -14575696.284 7
 90  2 22  6 40 44.0800000  0  4G 6G12G11G13
  21700316.815    21700320.685     7391525.264 9   3227804.919 8
  21185315.463    21185319.193   -36941303.896 9  40235109.469 8
  21161406.553    21161409.295     2193041.484 9    287439.245 8
  20411170.352    20411173.557   -16954779.424 9 -14587391.356 7
 90  2 22  6 40 59.0800000  0  4G 6G12G11G13
  21708497.438    21708501.022     7434511.058 9   3261300.328 9
  21177682.542    21177685.991   -36981416.757 9  40203852.702 8
  21165757.452    21165759.902     2215908.175 8    305257.439 9
  20408332.284    20408335.776   -16969686.614 9 -14599007.339 7
 90  2 22  6 41 14.0800000  0  4G 6G12G11G13
  21716697.210    21716701.621     7477602.976 9   3294878.416 8
  21170067.893    21170071.367   -37021429.985 9  40172673.569 8
  21170117.594    21170120.439     2238823.172 9    323113.274 8
  20405514.939    20405518.849   -16984492.517 9 -14610544.397 7
 90  2 22  6 41 29.0800000  0  4G 6G12G11G13
  21724918.271    21724921.081     7520800.555 8   3328538.856 8
  21162472.561    21162475.572   -37061343.182 9  40141572.387 9
  21174487.267    21174490.535     2261786.073 9    341006.436 8
  20402717.623    20402720.781   -16999197.424 9 -14622002.757 7
 90  2 22  6 41 44.0800000  0  4G 6G12G11G13
  21733159.538    21733160.486     7564103.740 9   3362281.571 7
  21154896.079    21154900.845   -37101155.779 9  40110549.576 8
  21178866.109    21178870.087     2284796.899 9    358936.947 8
  20399938.218    20399942.593   -17013801.029 9 -14633382.178 8
 90  2 22  6 41 59.0800000  0  4G 6G12G11G13
  21741418.847    21741421.697     7607512.350 8   3396106.444 9
  21147339.382    21147342.844   -37140867.417 9  40079605.450 8
  21183254.148    21183257.379     2307855.490 9    376904.665 8
  20397179.668    20397183.282   -17028303.461 9 -14644682.752 8
 90  2 22  6 42 14.0800000  0  4G 6G12G11G13
  21749699.306    21749701.570     7651025.702 9   3430012.938 8
  21139801.922    21139805.092   -37180478.105 9  40048739.983 8
  21187650.774    21187654.380     2330961.082 9    394909.021 8
  20394439.217    20394440.754   -17042705.239 9 -14655904.897 7
 90  2 22  6 42 29.0800000  0  4G 6G12G11G13
  21757999.926    21758001.792     7694642.953 9   3464000.379 8
  21132283.147    21132287.267   -37219987.959 9  40017953.080 8
  21192055.858    21192059.539     2354113.112 8    412949.559 8
  20391717.651    20391719.736   -17057007.020 9 -14667049.138 8
 90  2 22  6 42 44.0800000  0  4G 6G12G11G13
  21766318.805    21766321.929     7738364.369 8   3498069.005 8
  21124784.243    21124787.918   -37259396.092 9  39987245.457 8
  21196470.719    21196475.702     2377311.797 9    431026.437 8
  20389014.431    20389017.025   -17071208.619 9 -14678115.302 8
 90  2 22  6 42 59.0800000  0  4G 6G12G11G13
  21774658.674    21774661.987     7782190.123 8   3532218.907 7
  21117305.446    21117308.751   -37298701.556 9  39956617.821 9
  21200894.572    21200897.454     2400557.344 9    449139.859 9
  20386329.962    20386334.232   -17085309.678 9 -14689103.135 7
 90  2 22  6 43 14.0800000  0  4G 6G12G11G13
  21783018.111    21783021.790     7826119.493 9   3566449.569 8
  21109845.399    21109848.362   -37337904.352 9  39926070.193 7
  21205326.261    21205329.091     2423849.123 9    467289.275 8
  20383666.240    20383669.190   -17099310.570 9 -14700012.911 7
 90  2 22  6 43 29.0800000  0  4G 6G12G11G13
  21791396.925    21791399.765     7870151.553 9   3600760.237 8
  21102404.571    21102407.884   -37377004.791 9  39895602.325 8
  21209767.817    21209771.225     2447186.255 9    485474.057 7
  20381020.912    20381025.644   -17113211.738 9 -14710844.988 8
 90  2 22  6 43 44.0800000  0  4G 6G12G11G13
  21799796.508    21799798.608     7914286.036 9   3635150.744 7
  21094983.480    21094986.757   -37416002.456 9  39865214.529 8
  21214217.323    21214220.391     2470568.530 9    503694.011 7
  20378394.440    20378397.894   -17127013.501 9 -14721599.607 7
 90  2 22  6 43 59.0800000  0  4G 6G12G11G13
  21808214.225    21808217.136     7958522.724 9   3669620.869 8
  21087582.527    21087584.633   -37454897.065 9  39834907.052 8
  21218674.979    21218678.823     2493995.799 9    521949.022 8
  20375788.067    20375789.755   -17140716.218 9 -14732277.034 7
 90  2 22  6 44 14.0800000  0  4G 6G12G11G13
  21816650.394    21816653.629     8002861.106 9   3704170.249 7
  21080201.073    21080203.317   -37493688.398 9  39804680.048 8
  21223142.521    21223145.420     2517467.614 9    540238.739 7
  20373199.149    20373201.146   -17154320.108 9 -14742877.453 8
 90  2 22  6 44 29.0800000  0  4G 6G12G11G13
  21825106.699    21825110.426     8047300.758 9   3738798.520 8
  21072838.622    21072840.936   -37532376.252 9  39774533.674 7
  21227617.240    21227620.403     2540983.493 9    558562.793 7
  20370628.438    20370630.833   -17167825.015 9 -14753400.752 8
 90  2 22  6 44 44.0800000  0  4G 6G12G11G13
  21833583.311    21833587.392     8091841.688 9   3773505.715 7
  21065495.926    21065498.804   -37570959.850 9  39744468.525 8
  21232100.139    21232103.121     2564543.559 9    576921.275 7
  20368077.514    20368081.068   -17181231.016 9 -14763846.977 7
 90  2 22  6 44 59.0800000  0  4G 6G12G11G13
  21842078.577    21842081.758     8136483.566 9   3808291.562 7
  21058173.442    21058176.210   -37609438.829 9  39714484.923 8
  21236591.451    21236595.142     2588147.591 9    595314.026 8
  20365545.029    20365548.981   -17194538.351 9 -14774216.321 8
 90  2 22  6 45 14.0800000  0  4G 6G12G11G13
  21850593.264    21850597.017     8181225.937 9   3843155.759 8
  21050870.879    21050873.816   -37647813.149 9  39684582.858 7
  21241092.447    21241095.647     2611795.062 8    613740.606 9
  20363031.692    20363035.157   -17207747.404 9 -14784509.065 8
 90  2 22  6 45 29.0800000  0  4G 6G12G11G13
  21859126.351    21859130.249     8226068.987 9   3878098.363 9
  21043588.849    21043592.321   -37686081.874 9  39654763.080 8
  21245600.272    21245603.755     2635486.238 9    632201.262 9
  20360536.926    20360539.911   -17220857.894 9 -14794725.022 7
 90  2 22  6 45 44.0800000  0  4G 6G12G11G13
  21867679.013    21867681.768     8271012.865 9   3913119.562 8
  21036326.930    21036329.076   -37724244.085 9  39625026.291 8
  21250116.367    21250121.690     2659221.485 9    650696.254 8
  20358060.455    20358064.705   -17233868.872 9 -14804863.449 7
 90  2 22  6 45 59.0800000  0  4G 6G12G11G13
  21876250.924    21876253.745     8316057.222 9   3948219.049 8
  21029085.989    21029088.258   -37762299.577 9  39595372.662 8
  21254641.003    21254645.885     2683000.412 9    669225.286 9
  20355604.188    20355607.340   -17246780.974 8 -14814924.810 8
 90  2 22  6 46 14.0800000  0  4G 6G12G11G13
  21884842.050    21884845.587     8361201.341 9   3983396.256 9
  21021864.397    21021867.361   -37800248.261 9  39565802.260 8
  21259174.441    21259178.840     2706822.629 9    687788.032 8
  20353165.281    20353169.247   -17259594.413 8 -14824909.319 7
 90  2 22  6 46 29.0800000  0  4G 6G12G11G13
  21893451.174    21893453.911     8406444.962 9   4018651.012 7
  21014663.674    21014666.102   -37838089.919 9  39536315.255 8
  21263716.522    21263720.122     2730687.648 9    706384.146 9
  20350745.295    20350748.730   -17272309.654 9 -14834817.274 8
 90  2 22  6 46 44.0800000  0  4G 6G12G11G13
  21902079.662    21902082.470     8451787.492 9   4053982.845 8
  21007482.889    21007485.344   -37875824.476 9  39506911.706 8
  21268266.284    21268268.820     2754594.942 8    725013.215 8
  20348343.820    20348348.755   -17284927.010 9 -14844648.976 7
 90  2 22  6 46 59.0800000  0  4G 6G12G11G13
  21910727.110    21910729.489     8497228.540 9   4089391.452 8
  21000322.611    21000324.943   -37913451.636 9  39477591.834 8
  21272823.847    21272826.624     2778544.143 9    743674.921 8
  20345961.423    20345965.412   -17297446.635 9 -14854404.523 7
 90  2 22  6 47 14.0800000  0  4G 6G12G11G13
  21919392.427    21919395.310     8542767.938 9   4124876.682 8
  20993182.921    20993185.905   -37950970.760 9  39448356.161 8
  21277388.314    21277392.504     2802535.182 9    762369.223 8
  20343598.827    20343602.699   -17309868.560 9 -14864083.943 7
 90  2 22  6 47 29.0800000  0  4G 6G12G11G13
  21928077.737    21928079.502     8588405.590 9   4160438.468 8
  20986063.856    20986066.853   -37988381.435 9  39419204.978 8
  21281961.635    21281964.428     2826568.072 9    781096.146 9
  20341253.674    20341257.172   -17322192.716 9 -14873687.170 7
 90  2 22  6 47 44.0800000  0  4G 6G12G11G13
  21936779.716    21936783.987     8634140.855 9   4196076.326 8
  20978964.856    20978968.802   -38025683.473 9  39390138.456 8
  21286542.413    21286546.225     2850642.379 9    799855.333 8
  20338927.004    20338930.123   -17334419.646 9 -14883214.640 8
 90  2 22  6 47 59.0800000  0  4G 6G12G11G13
  21945501.726    21945504.580     8679973.739 9   4231790.239 7
  20971887.484    20971890.768   -38062876.221 9  39361157.103 8
  21291131.194    21291135.175     2874758.023 9    818646.757 9
  20336619.446    20336621.820   -17346549.065 9 -14892666.139 8
 90  2 22  6 48 14.0800000  0  4G 6G12G11G13
  21954242.042    21954245.526     8725904.004 9   4267580.052 8
  20964830.957    20964833.886   -38099959.380 9  39332261.135 7
  21295728.377    21295731.725     2898914.911 9    837470.299 8
  20334328.815    20334332.043   -17358580.953 9 -14902041.638 8
 90  2 22  6 48 29.0800000  0  4G 6G12G11G13
  21963000.872    21963003.980     8771931.398 9   4303445.546 7
  20957794.434    20957798.092   -38136932.559 9  39303450.878 8
  21300333.115    21300337.105     2923112.727 9    856325.729 9
  20332057.015    20332061.384   -17370515.587 9 -14911341.336 8
 90  2 22  6 48 44.0800000  0  4G 6G12G11G13
  21971777.773    21971780.955     8818055.257 9   4339386.186 8
  20950780.952    20950782.977   -38173795.663 9  39274726.381 7
  21304946.370    21304949.904     2947351.104 9    875212.781 9
  20329805.128    20329809.003   -17382353.339 9 -14920565.550 7
 90  2 22  6 48 59.0800000  0  4G 6G12G11G13
  21980572.978    21980576.128     8864274.997 9   4375401.545 8
  20943786.583    20943790.108   -38210548.678 9  39246087.679 9
  21309566.814    21309570.151     2971629.560 9    894131.053 8
  20327570.446    20327573.850   -17394094.620 9 -14929714.590 7
 90  2 22  6 49 14.0800000  0  4G 6G12G11G13
  21989386.351    21989390.307     8910590.114 9   4411491.231 8
  20936813.164    20936817.601   -38247191.392 9  39217534.916 8
  21314194.017    21314197.206     2995947.504 9    913080.092 8
  20325354.283    20325358.984   -17405739.894 9 -14938788.822 8
 90  2 22  6 49 29.0800000  0  4G 6G12G11G13
  21998218.803    21998221.915     8957000.203 9   4447654.918 8
  20929861.790    20929865.051   -38283723.506 9  39189068.330 8
  21318829.183    21318832.642     3020304.644 9    932059.671 8
  20323157.017    20323162.178   -17417289.218 9 -14947788.292 8
 90  2 22  6 49 44.0800000  0  4G 6G12G11G13
  22007068.425    22007071.379     9003505.668 9   4483892.916 7
  20922930.344    20922934.581   -38320144.029 9  39160688.704 9
  21323472.058    21323475.077     3044701.446 9    951070.159 8
  20320976.581    20320981.752   -17428742.125 8 -14956712.637 8
 90  2 22  6 49 59.0800000  0  4G 6G12G11G13
  22015936.118    22015939.327     9050106.236 9   4520205.014 9
  20916021.341    20916025.169   -38356452.607 9  39132396.310 7
  21328121.332    21328125.161     3069137.822 9    970111.484 7
  20318815.976    20318819.558   -17440098.763 9 -14965561.964 8
 90  2 22  6 50 14.0800000  0  4G 6G12G11G13
  22024821.640    22024824.680     9096801.128 9   4556590.626 8
  20909133.541    20909137.658   -38392649.242 9  39104191.140 8
  21332779.140    21332782.497     3093613.142 9    989183.151 8
  20316673.650    20316677.329   -17451359.578 9 -14974336.613 7
 90  2 22  6 50 29.0800000  0  4G 6G12G11G13
  22033724.620    22033728.691     9143590.007 9   4593049.470 8
  20902267.139    20902270.638   -38428733.729 9  39076073.364 9
  21337443.495    21337446.229     3118127.101 9   1008284.939 8
  20314547.896    20314552.395   -17462524.938 9 -14983036.879 8
 90  2 22  6 50 44.0800000  0  4G 6G12G11G13
  22042646.508    22042650.845     9190472.445 9   4629581.212 8
  20895422.194    20895424.788   -38464705.579 9  39048043.351 8
  21342116.368    21342120.026     3142679.274 9   1027416.506 8
  20312441.433    20312443.791   -17473594.759 9 -14991662.715 7
 90  2 22  6 50 59.0800000  0  4G 6G12G11G13
  22051584.870    22051588.968     9237448.275 9   4666185.741 8
  20888597.806    20888601.356   -38500564.374 9  39020101.440 8
  21346795.817    21346799.449     3167269.708 8   1046577.862 7
  20310354.630    20310357.077   -17484569.218 9 -15000214.222 7
 90  2 22  6 51 14.0800000  0  4G 6G12G11G13
  22060542.496    22060547.183     9284517.269 9   4702862.847 8
  20881796.249    20881799.526   -38536309.830 9  38992247.836 7
  21351482.587    21351486.534     3191898.148 9   1065768.845 9
  20308283.758    20308286.777   -17495448.572 9 -15008691.650 8
 90  2 22  6 51 29.0800000  0  4G 6G12G11G13
  22069516.850    22069521.422     9331678.773 9   4739612.030 9
  20875014.954    20875019.107   -38571941.837 9  38964482.642 7
  21356176.329    21356179.156     3216564.095 9   1084989.062 8
  20306230.750    20306234.141   -17506233.080 9 -15017095.153 8
 90  2 22  6 51 44.0800000  0  4G 6G12G11G13
  22078509.652    22078512.945     9378932.505 8   4776433.109 8
  20868256.322    20868259.505   -38607460.099 9  38936806.070 8
  21360876.223    21360880.553     3241267.247 9   1104238.256 9
  20304196.907    20304201.111   -17516922.892 9 -15025424.865 8
 90  2 22  6 51 59.0800000  0  4G 6G12G11G13
  22087519.349    22087522.646     9426278.254 9   4813325.880 9
  20861519.297    20861523.351   -38642863.905 9  38909218.691 8
  21365584.886    21365587.304     3266007.616 9   1123516.466 9
  20302180.693    20302185.137   -17527518.009 9 -15033680.795 7
 90  2 22  6 52 14.0800000  0  4G 6G12G11G13
  22096546.432    22096548.943     9473715.756 9   4850290.130 9
  20854803.751    20854806.786   -38678153.055 9  38881720.661 9
  21370299.324    21370302.950     3290784.851 9   1142823.384 8
  20300182.632    20300186.378   -17538018.345 9 -15041862.875 8
 90  2 22  6 52 29.0800000  0  4G 6G12G11G13
  22105591.016    22105594.213     9521244.582 9   4887325.573 9
  20848110.285    20848112.529   -38713327.201 9  38854312.240 7
  21375022.056    21375023.976     3315598.693 9   1162158.845 8
  20298202.363    20298206.356   -17548424.179 9 -15049971.311 8
 90  2 22  6 52 44.0800000  0  4G 6G12G11G13
  22114651.538    22114656.114     9568864.856 9   4924432.256 8
  20841439.792    20841442.833   -38748385.624 9  38826993.980 8
  21379751.352    21379754.071     3340449.298 9   1181522.948 8
  20296240.025    20296243.699   -17558735.653 9 -15058006.209 7
 90  2 22  6 52 59.0800000  0  4G 6G12G11G13
  22123731.409    22123735.208     9616576.310 9   4961609.985 8
  20834789.216    20834792.943   -38783327.962 9  38799766.188 8
  21384486.218    21384489.106     3365336.669 9   1200915.711 8
  20294296.614    20294299.668   -17568952.582 9 -15065967.440 7
 90  2 22  6 53 14.0800000  0  4G 6G12G11G13
  22132827.122    22132830.675     9664377.942 8   4998858.001 9
  20828162.524    20828165.112   -38818154.465 9  38772628.656 8
  21389228.233    21389232.406     3390259.771 9   1220336.301 9
  20292369.703    20292373.462   -17579075.916 9 -15073855.761 8
 90  2 22  6 53 29.0800000  0  4G 6G12G11G13
  22141941.479    22141944.802     9712269.464 9   5036176.029 9
  20821557.632    20821560.229   -38852864.753 9  38745581.686 8
  21393978.204    21393983.395     3415218.504 9   1239784.654 8
  20290460.980    20290463.917   -17589105.655 9 -15081671.135 9
 90  2 22  6 53 44.0800000  0  4G 6G12G11G13
  22151071.242    22151075.903     9760250.502 9   5073563.841 8
  20814973.846    20814978.110   -38887458.553 9  38718625.476 8
  21398735.077    21398739.287     3440212.611 9   1259260.572 8
  20288570.160    20288573.776   -17599041.921 9 -15089413.676 8
 90  2 22  6 53 59.0800000  0  4G 6G12G11G13
  22160219.326    22160222.594     9808320.509 9   5111020.959 8
  20808413.355    20808415.870   -38921935.793 9  38691760.108 8
  21403497.228    21403501.778     3465241.604 9   1278763.682 8
  20286696.805    20286700.006   -17608884.977 9 -15097083.602 8
 90  2 22  6 54 14.0800000  0  4G 6G12G11G13
  22169383.795    22169386.748     9856479.126 9   5148547.132 8
  20801875.707    20801878.633   -38956296.155 9  38664985.794 8
  21408267.438    21408270.460     3490305.188 9   1298293.740 8
  20284840.997    20284845.008   -17618635.162 8 -15104681.133 6
 90  2 22  6 54 29.0800000  0  4G 6G12G11G13
  22178564.314    22178568.842     9904726.468 9   5186142.451 8
  20795359.403    20795360.728   -38990539.018 9  38638303.039 7
  21413043.371    21413046.465     3515403.554 8   1317850.901 8
  20283003.505    20283006.918   -17628292.319 9 -15112206.192 8
 90  2 22  6 54 44.0800000  0  4G 6G12G11G13
  22187762.264    22187765.585     9953062.289 9   5223806.713 7
  20788865.449    20788867.365   -39024663.629 9  38611712.425 8
  21417827.037    21417829.821     3540536.726 9   1337435.182 8
  20281183.118    20281187.225   -17637856.446 8 -15119658.744 8
 90  2 22  6 54 59.0800000  0  4G 6G12G11G13
  22196977.615    22196981.596    10001485.945 9   5261539.401 8
  20782393.529    20782396.293   -39058670.216 9  38585213.784 8
  21422615.928    21422618.255     3565703.923 9   1357045.991 8
  20279380.803    20279384.045   -17647328.082 9 -15127039.222 7
 90  2 22  6 55 14.0800000  0  4G 6G12G11G13
  22206208.512    22206212.046    10049996.519 9   5299339.830 8
  20775945.011    20775948.171   -39092558.969 9  38558806.964 7
  21427410.355    21427413.128     3590904.662 9   1376682.919 9
  20277597.034    20277599.900   -17656707.689 9 -15134348.013 7
 90  2 22  6 55 29.0800000  0  4G 6G12G11G13
  22215457.544    22215459.566    10098594.767 9   5337208.584 9
  20769517.958    20769522.349   -39126328.601 9  38532492.975 7
  21432212.428    21432216.306     3616139.537 9   1396346.449 9
  20275830.165    20275832.772   -17665994.661 9 -15141584.617 7
 90  2 22  6 55 44.0800000  0  4G 6G12G11G13
  22224722.096    22224723.416    10147280.608 9   5375145.597 8
  20763114.982    20763118.785   -39159978.320 9  38506272.413 7
  21437021.175    21437025.194     3641408.664 9   1416036.659 8
  20274080.379    20274083.448   -17675188.693 9 -15148748.798 8
 90  2 22  6 55 59.0800000  0  4G 6G12G11G13
  22234002.719    22234005.497    10196052.835 9   5413149.920 8
  20756734.295    20756738.039   -39193508.586 8  38480144.941 8
  21441836.724    21441840.029     3666710.961 9   1435752.739 9
  20272347.601    20272351.558   -17684290.751 9 -15155841.290 8
 90  2 22  6 56 14.0800000  0  4G 6G12G11G13
  22243300.275    22243302.465    10244910.260 9   5451220.629 8
  20750376.170    20750380.003   -39226920.038 9  38454110.043 7
  21446657.324    21446660.186     3692045.297 9   1455493.773 9
  20270633.008    20270636.218   -17693302.089 9 -15162863.102 8
 90  2 22  6 56 29.0800000  0  4G 6G12G11G13
  22252613.887    22252616.378    10293853.103 9   5489357.896 9
  20744041.507    20744045.013   -39260211.574 9  38428168.590 8
  21451484.210    21451487.420     3717412.153 9   1475260.146 8
  20268934.678    20268938.827   -17702222.138 9 -15169813.777 8
 90  2 22  6 56 44.0800000  0  4G 6G12G11G13
  22261943.216    22261946.551    10342881.601 9   5527561.898 9
  20737729.831    20737733.977   -39293382.623 2  38402321.018 1
  21456317.831    21456321.917     3742811.611 9   1495051.920 7
  20267255.218    20267258.818   -17711050.698 4 -15176693.165 6
 90  2 22  6 56 59.0800000  0  4G 6G12G11G13
  22271289.711    22271293.145    10391995.132 8   5565832.155 9
  20731440.301    20731443.256   -39326432.946 9  38376567.530 7
                  21462192.931     3773670.515 1
  20265592.928    20265597.423   -17719788.128 9 -15183501.556 8
 90  2 22  6 57 14.0800000  0  4G 6G12G11G13
  22280651.142    22280655.164    10441193.129 9   5604168.241 8
  20725173.673    20725176.559   -39359362.462 9  38350908.159 7
  21466002.550    21466006.381   -46415221.534 9  58909779.760 4
  20263947.640    20263951.305   -17728434.837 9 -15190239.239 7
 90  2 22  6 57 29.0800000  0  4G 6G12G11G13
  22290028.872    22290032.578    10490475.523 9   5642570.079 8
  20718931.612    20718933.517   -39392170.757 9  38325343.254 8
  21470853.545    21470857.335   -46389726.394 9  58929646.576 9
  20262319.019    20262322.656   -17736990.550 9 -15196906.021 8
 90  2 22  6 57 44.0800000  0  4G 6G12G11G13
  22299423.716    22299427.652    10539841.608 9   5681037.128 8
  20712710.573    20712713.546   -39424857.701 9  38299872.916 8
  21475710.556    21475714.970   -46364199.869 8  58949537.375 9
  20260707.758    20260712.187   -17745455.872 9 -15203502.364 8
 90  2 22  6 57 59.0800000  0  4G 6G12G11G13
  22308834.158    22308836.803    10589290.922 9   5719569.056 8
  20706513.520    20706516.609   -39457423.180 9  38274497.209 7
  21480574.353    21480579.279   -46338642.534 9  58969452.160 8
  20259114.583    20259118.382   -17753830.888 9 -15210028.348 7
 90  2 22  6 58 14.0800000  0  4G 6G12G11G13
  22318259.565    22318261.811    10638822.925 9   5758165.399 9
  20700339.681    20700343.269   -39489866.973 9  38249216.340 8
  21485443.914    21485447.810   -46313054.596 9  58989390.809 8
  20257538.727    20257542.253   -17762116.052 9 -15216484.322 8
 90  2 22  6 58 29.0800000  0  4G 6G12G11G13
  22327701.344    22327703.531    10688437.673 9   5796826.216 9
  20694189.147    20694192.014   -39522188.355 9  38224030.842 7
  21490319.836    21490323.840   -46287435.881 8  59009353.432 9
  20255979.221    20255982.448   -17770311.243 9 -15222870.184 8
 90  2 22  6 58 44.0800000  0  4G 6G12G11G13
  22337157.015    22337161.709    10738135.581 9   5835551.838 8
  20688062.685    20688065.942   -39554386.432 9  38198941.432 7
  21495200.743    21495203.803   -46261786.033 9  59029340.318 9
  20254436.001    20254440.378   -17778416.151 9 -15229185.700 8
 90  2 22  6 58 59.0800000  0  4G 6G12G11G13
  22346630.674    22346633.735    10787916.658 9   5874342.272 9
  20681958.984    20681962.249   -39586460.382 9  38173948.743 8
  21500086.545    21500090.829   -46236104.836 9  59049351.637 9
  20252911.702    20252914.526   -17786430.364 8 -15235430.530 8
 90  2 22  6 59 14.0800000  0  4G 6G12G11G13
  22356119.071    22356122.704    10837780.232 8   5913196.987 8
  20675879.284    20675882.409   -39618410.147 9  38149052.831 7
  21504979.245    21504983.435   -46210392.896 9  59069386.894 9
  20251403.069    20251407.042   -17794354.362 9 -15241605.072 8
 90  2 22  6 59 29.0800000  0  4G 6G12G11G13
  22365623.638    22365626.928    10887725.401 8   5952115.269 9
  20669822.237    20669825.898   -39650235.966 9  38124253.494 7
  21509878.935    21509881.729   -46184650.891 8  59089445.596 9
  20249912.936    20249915.532   -17802188.870 8 -15247709.878 8
 90  2 22  6 59 44.0800000  0  4G 6G12G11G13
  22375142.556    22375146.174    10937751.722 9   5991096.790 8
  20663790.064    20663793.551   -39681937.594 9  38099550.921 8
  21514782.766    21514786.356   -46158879.251 9  59109527.387 9
  20248438.712    20248442.747   -17809933.963 9 -15253745.007 8
 90  2 22  6 59 59.0800000  0  4G 6G12G11G13
  22384678.602    22384681.735    10987859.154 9   6030141.522 9
  20657781.220    20657784.137   -39713514.460 9  38074945.590 9
  21519691.821    21519696.376   -46133077.822 9  59129632.385 9
  20246981.566    20246984.331   -17817589.602 9 -15259710.415 7
 90  2 22  7  0 14.0800000  0  4G 6G12G11G13
  22394228.887    22394232.377    11038047.413 9   6069249.231 8
  20651795.990    20651799.262   -39744966.121 9  38050437.783 8
  21524607.787    21524611.942   -46107246.749 9  59149760.488 9
  20245541.792    20245545.701   -17825155.929 9 -15265606.258 7
 90  2 22  7  0 29.0800000  0  4G 6G12G11G13
  22403795.462    22403798.796    11088315.990 9   6108419.524 9
  20645834.928    20645837.667   -39776292.532 8  38026027.597 8
  21529528.647    21529532.673   -46081386.415 9  59169911.391 8
  20244118.571    20244121.285   -17832633.492 8 -15271432.912 7
 90  2 22  7  0 44.0800000  0  4G 6G12G11G13
  22413375.431    22413379.724    11138664.414 9   6147652.045 9
  20639896.699    20639900.616   -39807493.462 9  38001715.179 8
  21534455.989    21534458.869   -46055497.167 9  59190084.836 9
  20242712.583    20242716.146   -17840022.541 9 -15277190.618 8
 90  2 22  7  0 59.0800000  0  4G 6G12G11G13
  22422971.547    22422975.345    11189092.369 8   6186946.519 9
  20633983.352    20633987.096   -39838568.542 9  37977500.831 8
  21539387.508    21539391.735   -46029579.188 9  59210280.652 9
  20241323.616    20241326.180   -17847323.126 9 -15282879.396 7
 90  2 22  7  1 14.0800000  0  4G 6G12G11G13
  22432582.726    22432587.087    11239599.391 9   6226302.614 8
  20628093.088    20628099.050   -39869517.592 7  37953384.699 8
  21544325.025    21544328.721   -46003632.818 9  59230498.587 8
  20239951.750    20239954.673   -17854535.373 9 -15288499.335 7
 90  2 22  7  1 29.0800000  0  4G 6G12G11G13
  22442208.704    22442213.211    11290185.109 9   6265720.045 9
  20622228.728    20622233.562   -39900340.362 9  37929366.952 9
  21549268.020    21549271.288   -45977658.278 9  59250738.476 8
  20238595.404    20238600.155   -17861659.597 9 -15294050.669 8
 90  2 22  7  1 44.0800000  0  4G 6G12G11G13
  22451849.617    22451854.567    11340849.480 8   6305198.749 9
  20616387.929    20616391.313   -39931036.236 9  37905448.106 8
  21554217.298    21554219.865   -45951655.502 9  59271000.372 9
  20237256.200    20237259.081   -17868695.758 9 -15299533.398 8
 90  2 22  7  1 59.0800000  0  4G 6G12G11G13
  22461505.596    22461510.230    11391592.286 9   6344738.563 9
  20610571.294    20610574.566   -39961604.785 9  37881628.453 9
  21559170.183    21559173.679   -45925624.565 9  59291284.218 8
  20235934.127    20235938.195   -17875643.767 9 -15304947.432 8
 90  2 22  7  2 14.0800000  0  4G 6G12G11G13
  22471176.871    22471180.727    11442413.089 9   6384339.168 8
  20604778.798    20604781.991   -39992045.752 9  37857908.211 8
  21564128.388    21564132.702   -45899565.819 9  59311589.731 9
  20234629.699    20234632.879   -17882503.857 8 -15310292.937 7
 90  2 22  7  2 29.0800000  0  4G 6G12G11G13
  22480862.234    22480866.869    11493311.417 9   6424000.176 9
  20599010.237    20599013.191   -40022358.994 9  37834287.505 9
  21569092.233    21569095.874   -45873479.709 9  59331916.565 8
  20233340.676    20233345.026   -17889276.413 9 -15315570.248 7
 90  2 22  7  2 44.0800000  0  4G 6G12G11G13
  22490563.316    22490567.101    11544286.738 9   6463721.186 8
  20593266.241    20593269.693   -40052544.291 9  37810766.497 8
  21574061.673    21574065.714   -45847366.291 9  59352264.665 9
  20232067.975    20232072.421   -17895961.447 9 -15320779.358 8
 90  2 22  7  2 59.0800000  0  4G 6G12G11G13
  22500278.449    22500281.076    11595338.720 9   6503501.943 9
  20587547.234    20587549.319   -40082601.375 9  37787345.383 7
  21579036.106    21579039.360   -45821225.976 8  59372633.729 9
  20230812.229    20230816.869   -17902559.529 9 -15325920.719 8
 90  2 22  7  3 14.0800000  0  4G 6G12G11G13
  22510007.333    22510010.832    11646466.600 9   6543341.817 9
  20581851.915    20581854.578   -40112530.280 9  37764024.163 9
  21584015.748    21584019.187   -45795059.363 9  59393023.299 8
  20229572.678    20229577.117   -17909071.247 9 -15330994.779 7
 90  2 22  7  3 29.0800000  0  4G 6G12G11G13
  22519751.150    22519755.084    11697670.303 9   6583240.781 8
  20576180.802    20576184.270   -40142330.497 9  37740803.228 7
  21588999.669    21589003.622   -45768866.260 9  59413433.491 8
  20228349.461    20228355.681   -17915496.444 9 -15336001.407 7
 90  2 22  7  3 44.0800000  0  4G 6G12G11G13
  22529509.397    22529512.650    11748950.068 9   6623199.023 8
  20570533.929    20570538.261   -40172001.182 9  37717683.203 8
  21593990.186    21593993.096   -45742646.416 8  59433864.536 8
  20227144.708    20227148.404   -17921834.831 9 -15340940.404 7
 90  2 22  7  3 59.0800000  0  4G 6G12G11G13
  22539281.796    22539285.509    11800305.370 9   6663216.114 8
  20564912.753    20564917.727   -40201542.171 9  37694664.249 8
  21598984.181    21598988.149   -45716400.302 9  59454316.043 9
  20225954.214    20225957.802   -17928086.656 9 -15345811.964 7
 90  2 22  7  4 14.0800000  0  4G 6G12G11G13
  22549068.789    22549072.617    11851735.397 9   6703291.448 9
  20559315.285    20559319.143   -40230953.558 9  37671746.304 8
  21603983.153    21603987.236   -45690128.335 8  59474787.685 8
  20224781.347    20224785.454   -17934252.400 8 -15350616.434 8
 90  2 22  7  4 29.0800000  0  4G 6G12G11G13
  22558870.365    22558873.649    11903239.807 9   6743424.725 8
  20553743.616    20553746.657   -40260235.034 9  37648929.560 8
  21608987.020    21608991.017   -45663830.809 9  59495279.256 9
  20223624.459    20223627.653   -17940332.251 9 -15355353.981 8
 90  2 22  7  4 44.0800000  0  4G 6G12G11G13
  22568685.349    22568688.303    11954818.291 8   6783615.736 9
  20548195.757    20548199.838   -40289386.334 9  37626214.264 9
  21613996.684    21614000.323   -45637508.048 9  59515790.491 8
  20222483.685    20222488.071   -17946326.604 8 -15360024.891 8
 90  2 22  7  4 59.0800000  0  4G 6G12G11G13
  22578514.168    22578517.066    12006470.111 9   6823863.895 8
  20542674.345    20542676.783   -40318407.367 9  37603600.470 8
  21619010.381    21619013.175   -45611160.314 9  59536321.183 8
  20221358.896    20221362.996   -17952235.823 9 -15364629.471 9
 90  2 22  7  5 14.0800000  0  4G 6G12G11G13
  22588356.617    22588360.173    12058195.325 9   6864169.222 9
  20537176.407    20537178.889   -40347297.527 9  37581088.656 8
  21624029.630    21624033.184   -45584787.678 8  59556871.293 9
  20220251.175    20220254.883   -17958059.636 8 -15369167.499 8
 90  2 22  7  5 29.0800000  0  4G 6G12G11G13
  22598212.831    22598217.812    12109993.542 9   6904531.443 8
  20531703.753    20531706.636   -40376056.685 9  37558678.926 8
  21629052.801    21629054.911   -45558390.374 9  59577440.610 9
  20219159.324    20219163.428   -17963798.390 9 -15373639.252 8
 90  2 22  7  5 44.0800000  0  4G 6G12G11G13
  22608084.322    22608088.629    12161864.243 9   6944950.139 9
  20526256.480    20526259.017   -40404684.555 9  37536371.495 8
  21634080.623    21634083.016   -45531968.612 9  59598028.995 8
  20218083.485    20218086.303   -17969452.252 9 -15378044.863 8
 90  2 22  7  5 59.0800000  0  4G 6G12G11G13
  22617968.618    22617972.011    12213807.475 9   6985425.371 8
  20520833.644    20520835.839   -40433180.626 9  37514166.749 7
  21639112.879    21639115.874   -45505522.396 9  59618636.419 8
  20217024.186    20217027.254   -17975021.139 9 -15382384.241 8
 90  2 22  7  6 14.0800000  0  4G 6G12G11G13
  22627867.160    22627870.065    12265822.549 9   7025956.584 9
  20515435.928    20515439.126   -40461544.806 9  37492064.801 9
  21644149.686    21644152.939   -45479051.931 9  59639262.739 9
  20215980.148    20215984.116   -17980505.434 9 -15386657.710 8
 90  2 22  7  6 29.0800000  0  4G 6G12G11G13
  22637778.629    22637782.121    12317909.068 9   7066543.456 8
  20510063.542    20510067.179   -40489776.802 9  37470065.838 8
  21649191.616    21649194.153   -45452557.676 9  59659907.612 9
  20214953.032    20214955.298   -17985905.624 9 -15390865.642 8
 90  2 22  7  6 44.0800000  0  4G 6G12G11G13
  22647703.429    22647706.955    12370066.723 9   7107185.762 8
  20504716.599    20504719.541   -40517876.109 9  37448170.277 8
  21654237.309    21654240.433   -45426039.647 9  59680571.011 9
  20213940.110    20213943.549   -17991221.482 9 -15395007.878 8
 90  2 22  7  6 59.0800000  0  4G 6G12G11G13
  22657642.659    22657646.092    12422295.474 9   7147883.473 8
  20499395.591    20499397.730   -40545842.327 9  37426378.434 8
  21659288.326    21659292.523   -45399497.938 8  59701252.854 8
  20212945.199    20212948.131   -17996453.203 9 -15399084.532 8
 90  2 22  7  7 14.0800000  0  4G 6G12G11G13
  22667594.824    22667599.623    12474594.709 9   7188636.084 9
  20494098.083    20494101.045   -40573675.349 9  37404690.374 8
  21664342.991    21664347.132   -45372933.090 9  59721952.719 8
  20211966.232    20211969.036   -18001600.812 9 -15403095.657 8
 90  2 22  7  7 29.0800000  0  4G 6G12G11G13
  22677561.197    22677564.883    12526963.890 9   7229443.219 9
  20488827.334    20488830.113   -40601374.849 9  37383106.339 8
  21669403.436    21669406.719   -45346345.213 9  59742670.539 9
  20211002.204    20211005.938   -18006664.798 9 -15407041.619 7
 90  2 22  7  7 44.0800000  0  4G 6G12G11G13
  22687539.835    22687543.003    12579403.266 9   7270305.057 8
  20483580.564    20483585.065   -40628940.291 9  37361626.771 8
  21674466.200    21674469.767   -45319734.098 9  59763406.463 8
  20210053.441    20210057.139   -18011645.091 9 -15410922.373 8
 90  2 22  7  7 59.0800000  0  4G 6G12G11G13
  22697531.415    22697535.893    12631912.099 8   7311221.003 8
  20478361.237    20478364.259   -40656371.654 9  37340251.678 8
  21679535.046    21679538.084   -45293100.209 9  59784160.137 9
  20209122.003    20209125.840   -18016541.995 9 -15414738.143 7
 90  2 22  7  8 14.0800000  0  4G 6G12G11G13
  22707536.695    22707540.887    12684489.768 9   7352190.598 8
  20473166.623    20473170.009   -40683668.920 9  37318981.084 8
  21684607.354    21684610.607   -45266444.014 8  59804931.196 7
  20208206.527    20208209.444   -18021356.026 9 -15418489.321 8
 90  2 22  7  8 29.0800000  0  4G 6G12G11G13
  22717554.812    22717558.983    12737135.882 9   7393213.519 9
  20467998.225    20468001.178   -40710831.819 9  37297815.179 8
  21689684.284    21689686.736   -45239765.667 9  59825719.503 8
  20207306.288    20207308.935   -18026087.451 9 -15422176.130 8
 90  2 22  7  8 44.0800000  0  4G 6G12G11G13
  22727585.369    22727590.270    12789850.228 8   7434289.599 9
  20462854.089    20462858.327   -40737859.792 9  37276754.412 8
  21694765.049    21694768.646   -45213065.334 9  59846524.951 9
  20206421.623    20206424.462   -18030736.295 9 -15425798.609 7
 90  2 22  7  8 59.0800000  0  4G 6G12G11G13
  22737630.015    22737634.436    12842632.525 9   7475418.637 8
  20457736.479    20457740.470   -40764752.877 9  37255798.765 8
  21699849.792    21699854.819   -45186343.102 9  59867347.463 8
  20205553.312    20205555.816   -18035302.597 9 -15429356.754 7
 90  2 22  7  9 14.0800000  0  4G 6G12G11G13
  22747687.468    22747691.832    12895482.428 9   7516600.354 8
  20452644.199    20452647.964   -40791510.486 9  37234948.671 8
  21704939.100    21704942.538   -45159598.967 9  59888187.034 9
  20204700.024    20204703.150   -18039786.391 9 -15432850.603 7
 90  2 22  7  9 29.0800000  0  4G 6G12G11G13
  22757757.755    22757761.111    12948400.170 8   7557834.924 9
  20447579.218    20447584.275   -40818131.811 9  37214204.796 8
  21710032.471    21710035.695   -45132832.782 8  59909043.792 8
  20203862.142    20203864.330   -18044187.564 9 -15436280.100 7
 90  2 22  7  9 44.0800000  0  4G 6G12G11G13
  22767840.556    22767843.610    13001385.387 9   7599122.090 9
  20442539.213    20442543.637   -40844616.368 9  37193567.483 8
  21715130.136    21715133.546   -45106044.670 9  59929917.635 9
  20203040.404    20203044.168   -18048506.221 9 -15439645.293 7
 90  2 22  7  9 59.0800000  0  4G 6G12G11G13
  22777934.238    22777939.848    13054437.327 9   7640461.236 9
  20437525.423    20437529.713   -40870964.496 9  37173036.474 8
  21720231.735    21720235.716   -45079235.354 9  59950808.013 8
  20202234.114    20202236.958   -18052742.794 9 -15442946.501 8
 90  2 22  7 10 14.0800000  0  4G 6G12G11G13
  22788043.684    22788047.374    13107554.661 9   7681851.341 9
  20432537.619    20432541.457   -40897176.783 9  37152611.323 8
  21725338.413    21725341.867   -45052405.894 9  59971714.071 9
  20201442.345    20201446.813   -18056898.441 9 -15446184.672 8
 90  2 22  7 10 29.0800000  0  4G 6G12G11G13
  22798163.974    22798167.493    13160737.146 9   7723292.218 9
  20427575.316    20427578.288   -40923252.990 9  37132292.202 8
  21730446.767    21730451.364   -45025556.441 9  59992635.718 9
  20200666.389    20200669.958   -18060973.215 9 -15449359.809 7
 90  2 22  7 10 44.0800000  0  4G 6G12G11G13
  22808296.485    22808301.143    13213984.795 9   7764783.851 9
  20422639.620    20422643.170   -40949192.319 9  37112079.741 8
  21735559.081    21735563.838   -44998686.810 9  60013573.084 9
  20199906.669    20199909.908   -18064966.873 9 -15452471.753 7
 90  2 22  7 10 59.0800000  0  4G 6G12G11G13
  22818442.195    22818444.715    13267297.430 9   7806326.133 8
  20417729.542    20417732.427   -40974994.358 9  37091974.255 8
  21740677.452    21740681.406   -44971796.787 9  60034526.323 9
  20199162.012    20199165.848   -18068879.586 8 -15455520.610 7
 90  2 22  7 11 14.0800000  0  4G 6G12G11G13
  22828599.477    22828602.052    13320674.871 8   7847918.920 7
  20412846.757    20412849.734   -41000658.669 8  37071976.099 8
  21745798.083    21745801.665   -44944886.487 9  60055495.397 8
  20198433.192    20198436.868   -18072711.322 9 -15458506.372 8
 90  2 22  7 11 29.0800000  0  4G 6G12G11G13
  22838769.471    22838773.491    13374116.950 9   7889562.083 8
  20407988.586    20407990.208   -41026184.911 9  37052085.509 8
  21750922.321    21750926.216   -44917955.924 9  60076480.239 9
  20197720.000    20197722.479   -18076462.201 9 -15461429.135 9
 90  2 22  7 11 44.0800000  0  4G 6G12G11G13
  22848949.530    22848954.739    13427623.147 8   7931255.201 7
  20403156.933    20403159.601   -41051572.759 9  37032302.769 8
  21756051.063    21756054.545   -44891005.333 9  60097480.694 8
  20197021.368    20197024.699   -18080132.340 9 -15464288.970 7
 90  2 22  7 11 59.0800000  0  4G 6G12G11G13
  22859145.203    22859148.178    13481193.021 8   7972997.919 9
  20398352.304    20398356.442   -41076822.014 9  37012628.024 8
  21761183.512    21761187.281   -44864035.136 8  60118496.427 9
  20196337.869    20196341.999   -18083722.057 8 -15467086.171 8
 90  2 22  7 12 14.0800000  0  4G 6G12G11G13
  22869349.553    22869355.004    13534826.242 8   8014790.006 8
  20393573.929    20393577.616   -41101932.480 9  36993061.418 8
  21766318.694    21766323.537   -44837045.341 9  60139527.404 8
  20195670.076    20195673.364   -18087231.725 9 -15469820.958 8
 90  2 22  7 12 29.0800000  0  4G 6G12G11G13
  22879568.305    22879572.827    13588522.381 8   8056631.111 8
  20388821.976    20388825.484   -41126904.063 9  36973603.041 9
  21771459.301    21771462.712   -44810036.333 9  60160573.382 8
  20195017.753    20195020.306   -18090661.392 9 -15472493.427 7
 90  2 22  7 12 44.0800000  0  4G 6G12G11G13
  22889797.824    22889802.997    13642281.352 8   8098521.198 8
  20384095.679    20384100.127   -41151736.215 9  36954253.312 8
  21776603.228    21776605.779   -44783008.104 9  60181634.324 9
  20194380.809    20194383.635   -18094011.073 9 -15475103.579 7
 90  2 22  7 12 59.0800000  0  4G 6G12G11G13
  22900041.239    22900044.925    13696102.325 9   8140459.593 8
  20379397.003    20379400.954   -41176428.972 9  36935012.199 8
  21781750.030    21781751.966   -44755961.119 9  60202709.903 9
  20193758.029    20193761.089   -18097281.055 9 -15477651.602 8
 90  2 22  7 13 14.0800000  0  4G 6G12G11G13
  22910294.484    22910297.038    13749984.756 9   8182445.861 8
  20374725.858    20374728.335   -41200982.430 9  36915879.639 8
  21786899.780    21786903.561   -44728895.992 9  60223799.611 9
  20193150.597    20193155.044   -18100471.976 8 -15480138.047 8
 90  2 22  7 13 29.0800000  0  4G 6G12G11G13
  22920559.191    22920562.661    13803927.887 9   8224479.449 9
  20370078.948    20370083.408   -41225396.477 9  36896855.707 8
  21792053.363    21792057.102   -44701813.004 9  60244903.223 8
  20192557.492    20192563.016   -18103584.349 9 -15482563.274 9
 90  2 22  7 13 44.0800000  0  4G 6G12G11G13
  22930835.524    22930840.431    13857931.848 9   8266560.434 9
  20365459.708    20365464.244   -41249670.536 9  36877940.854 8
  21797210.467    21797213.649   -44674711.977 9  60266020.885 8
  20191981.133    20191983.891   -18106618.169 9 -15484927.276 8
 90  2 22  7 13 59.0800000  0  4G 6G12G11G13
  22941123.726    22941128.841    13911996.110 9   8308688.399 9
  20360867.116    20360870.833   -41273804.475 9  36859135.185 7
  21802371.478    21802374.658   -44647593.230 9  60287152.373 9
  20191418.775    20191422.147   -18109573.625 9 -15487230.218 7
 90  2 22  7 14 14.0800000  0  4G 6G12G11G13
  22951423.898    22951428.692    13966120.149 9   8350862.944 8
  20356302.785    20356305.624   -41297798.109 9  36840438.852 9
  21807534.992    21807539.105   -44620457.160 9  60308297.357 9
  20190870.659    20190874.085   -18112450.767 9 -15489472.145 8
 90  2 22  7 14 29.0800000  0  4G 6G12G11G13
  22961734.608    22961738.822    14020303.582 9   8393083.780 8
  20351762.897    20351765.669   -41321651.074 9  36821852.142 6
  21812701.757    21812706.183   -44593303.958 9  60329455.695 8
  20190338.114    20190342.563   -18115250.091 9 -15491653.432 8
 90  2 22  7 14 44.0800000  0  4G 6G12G11G13
  22972056.509    22972060.644    14074546.119 9   8435350.658 8
  20347250.561    20347253.164   -41345363.094 9  36803375.235 7
  21817871.553    21817875.808   -44566133.660 9  60350627.346 8
  20189820.025    20189825.704   -18117971.835 9 -15493774.257 7
 90  2 22  7 14 59.0800000  0  4G 6G12G11G13
  22982389.248    22982393.361    14128847.405 9   8477663.321 8
  20342765.566    20342768.313   -41368933.976 9  36785008.313 9
  21823045.829    21823049.784   -44538946.410 9  60371812.198 9
  20189317.479    20189321.871   -18120616.107 9 -15495834.733 8
 90  2 22  7 15 14.0800000  0  4G 6G12G11G13
  22992733.192    22992738.221    14183206.915 9   8520021.351 8
  20338305.484    20338309.732   -41392363.455 9  36766751.575 8
  21828222.966    21828225.934   -44511742.520 9  60393010.036 8
  20188830.852    20188831.606   -18123182.911 9 -15497834.837 7
 90  2 22  7 15 29.0800000  0  4G 6G12G11G13
  23003088.489    23003093.541    14237624.658 9   8562424.750 9
  20333874.393    20333879.261   -41415651.235 9  36748605.263 8
  21833402.665    21833406.376   -44484521.973 9  60414220.845 9
  20188356.606    20188358.863   -18125672.366 9 -15499774.661 7
 90  2 22  7 15 44.0800000  0  4G 6G12G11G13
  23013455.242    23013459.728    14292100.055 9   8604873.075 8
  20329469.544    20329474.066   -41438797.035 9  36730569.577 8
  21838585.511    21838588.707   -44457284.979 8  60435444.471 9
  20187898.230    20187898.790   -18128084.835 9 -15501654.515 8
 90  2 22  7 15 59.0800000  0  4G 6G12G11G13
  23023831.975    23023836.748    14346632.622 9   8647365.975 8
  20325092.550    20325097.088   -41461800.839 8  36712644.526 8
  21843771.592    21843776.419   -44430031.927 8  60456680.594 9
  20187452.578    20187455.818   -18130420.675 9 -15503474.653 8
 90  2 22  7 16 14.0800000  0  4G 6G12G11G13
  23034220.349    23034223.934    14401221.531 9   8689902.751 9
  20320741.933    20320747.723   -41484662.806 9  36694830.010 9
  21848960.507    21848963.987   -44402763.455 9  60477928.743 9
  20187021.990    20187024.514   -18132680.574 9 -15505235.596 7
 90  2 22  7 16 29.0800000  0  4G 6G12G11G13
  23044619.712    23044623.039    14455866.520 9   8732483.238 8
  20316418.601    20316422.474   -41507382.681 9  36677126.216 9
  21854151.466    21854155.706   -44375479.638 8  60499188.854 9
  20186606.687    20186609.041   -18134864.551 9 -15506937.400 8
 90  2 22  7 16 44.0800000  0  4G 6G12G11G13
  23055028.977    23055032.454    14510567.412 9   8775107.282 8
  20312122.224    20312126.834   -41529960.059 9  36659533.460 8
  21859347.162    21859350.201   -44348180.487 8  60520460.903 8
  20186204.981    20186208.015   -18136972.568 9 -15508579.993 8
 90  2 22  7 16 59.0800000  0  4G 6G12G11G13
  23065448.967    23065452.923    14565323.705 9   8817774.489 8
  20307853.201    20307857.555   -41552394.720 9  36642051.907 8
  21864545.177    21864548.215   -44320866.250 8  60541744.728 9
  20185817.825    20185820.847   -18139004.858 9 -15510163.604 8
 90  2 22  7 17 14.0800000  0  4G 6G12G11G13
  23075878.787    23075882.321    14620135.078 9   8860484.617 8
  20303611.865    20303615.881   -41574686.493 8  36624681.700 9
  21869745.724    21869749.664   -44293537.121 9  60563040.137 9
  20185446.277    20185449.417   -18140961.794 9 -15511688.478 8
 90  2 22  7 17 29.0800000  0  4G 6G12G11G13
  23086319.539    23086322.808    14675001.406 9   8903237.575 9
  20299397.777    20299401.274   -41596834.809 9  36607423.262 9
  21874948.790    21874952.057   -44266193.056 9  60584347.183 9
  20185088.179    20185091.646   -18142843.406 9 -15513154.673 8
 90  2 22  7 17 44.0800000  0  4G 6G12G11G13
  23096771.375    23096774.322    14729922.371 9   8946033.101 8
  20295209.601    20295213.701   -41618839.491 9  36590276.754 9
  21880155.504    21880159.257   -44238834.131 8  60605665.824 9
  20184744.043    20184746.447   -18144649.446 9 -15514561.960 7
 90  2 22  7 17 59.0800000  0  4G 6G12G11G13
  23107231.837    23107236.050    14784897.544 9   8988870.880 8
  20291048.704    20291053.765   -41640700.232 9  36573242.412 8
  21885364.179    21885368.406   -44211460.519 8  60626995.895 9
  20184414.525    20184419.339   -18146380.316 9 -15515910.692 7
 90  2 22  7 18 14.0800000  0  4G 6G12G11G13
  23117704.050    23117708.240    14839926.266 9   9031750.363 8
  20286916.443    20286920.759   -41662416.897 8  36556320.340 8
  21890577.233    21890579.899   -44184072.607 8  60648337.114 8
  20184099.751    20184102.394   -18148036.337 9 -15517201.094 7
 90  2 22  7 18 29.0800000  0  4G 6G12G11G13
  23128185.124    23128189.709    14895008.451 9   9074671.522 8
  20282811.607    20282815.688   -41683989.016 9  36539510.894 8
  21895790.958    21895793.796   -44156670.363 9  60669689.513 9
  20183798.578    20183801.881   -18149617.564 9 -15518433.203 7
 90  2 22  7 18 44.0800000  0  4G 6G12G11G13
  23138677.425    23138681.932    14950143.789 9   9117634.092 9
  20278734.699    20278738.807   -41705416.509 8  36522814.151 7
  21901007.274    21901010.614   -44129253.940 8  60691052.962 9
  20183513.122    20183515.449   -18151124.453 9 -15519607.400 7
 90  2 22  7 18 59.0800000  0  4G 6G12G11G13
  23149179.873    23149184.015    15005331.776 8   9160637.685 8
  20274684.396    20274688.126   -41726699.243 9  36506230.194 8
  21906226.866    21906231.179   -44101823.634 8  60712427.198 9
  20183239.509    20183243.941   -18152557.147 9 -15520723.798 8
 90  2 22  7 19 14.0800000  0  4G 6G12G11G13
  23159692.022    23159695.247    15060571.844 8   9203681.861 8
  20270662.093    20270665.043   -41747837.174 9  36489759.087 8
  21911450.038    21911454.206   -44074379.826 8  60733811.974 9
  20182981.067    20182983.646   -18153915.849 9 -15521782.519 7
 90  2 22  7 19 29.0800000  0  4G 6G12G11G13
  23170213.469    23170216.925    15115863.686 9   9246766.385 9
  20266668.095    20266671.371   -41768829.917 8  36473401.097 9
  21916676.255    21916679.007   -44046922.554 9  60755207.244 9
  20182736.116    20182739.030   -18155200.681 9 -15522783.683 7
 90  2 22  7 19 44.0800000  0  4G 6G12G11G13
  23180743.396    23180749.249    15171207.030 9   9289891.019 9
  20262700.145    20262703.375   -41789677.251 8  36457156.430 9
  21921902.273    21921906.870   -44019451.980 9  60776612.867 8
  20182505.423    20182509.232   -18156411.957 9 -15523727.537 7
 90  2 22  7 19 59.0800000  0  4G 6G12G11G13
  23191285.824    23191290.238    15226601.386 9   9333055.425 7
  20258760.128    20258763.789   -41810378.910 9  36441025.260 9
  21927132.239    21927136.251   -43991968.341 9  60798028.688 8
  20182289.273    20182294.090   -18157549.864 9 -15524614.216 8
 90  2 22  7 20 14.0800000  0  4G 6G12G11G13
  23201837.493    23201840.778    15282046.781 8   9376259.615 8
  20254849.113    20254852.427   -41830934.457 9  36425007.936 8
  21932364.782    21932368.808   -43964471.347 9  60819454.911 9
  20182087.319    20182090.173   -18158614.244 9 -15525443.601 8
 90  2 22  7 20 29.0800000  0  4G 6G12G11G13
  23212397.076    23212401.549    15337542.994 9   9419503.383 8
  20250965.837    20250969.057   -41851343.544 9  36409104.754 9
  21937599.385    21937604.197   -43936961.153 9  60840891.422 8
  20181898.907    20181900.141   -18159605.068 9 -15526215.662 8
 90  2 22  7 20 44.0800000  0  4G 6G12G11G13
  23222967.284    23222971.189    15393089.585 9   9462786.400 8
  20247109.172    20247113.165   -41871605.990 9  36393315.836 8
  21942837.164    21942841.505   -43909438.055 9  60862337.991 9
  20181724.013    20181726.589   -18160522.706 9 -15526930.712 7
 90  2 22  7 20 59.0800000  0  4G 6G12G11G13
  23233547.365    23233551.457    15448685.850 9   9506108.134 8
  20243281.488    20243285.868   -41891721.802 9  36377641.176 9
  21948077.076    21948081.818   -43881902.532 9  60883794.223 8
  20181563.147    20181566.784   -18161367.579 9 -15527589.047 8
 90  2 22  7 21 14.0800000  0  3G12G11G13
  20239482.133    20239485.513   -41911691.125 9  36362080.668 8
  21953319.794    21953323.160   -43854354.916 9  60905259.888 9
  20181415.795    20181419.739   -18162140.314 9 -15528191.177 8
 90  2 22  7 21 29.0800000  0  3G12G11G13
  20235710.104    20235714.294   -41931513.675 9  36346634.520 7
  21958563.860    21958567.454   -43826795.435 9  60926734.799 9
  20181281.920    20181286.272   -18162841.258 9 -15528737.362 9
 90  2 22  7 21 44.0800000  0  4G 3G12G11G13
                  22797257.985   -55198917.513 7
  20231966.179    20231969.214   -41951188.834 9  36331303.230 8
  21963810.684    21963814.779   -43799223.856 9  60948219.137 9
  20181162.267    20181166.937   -18163470.104 9 -15529227.366 8
 90  2 22  7 21 59.0800000  0  4G 3G12G11G13
  22790442.062    22790447.097   -55234512.807 9  70144511.099 8
  20228249.707    20228252.935   -41970716.569 8  36316086.825 8
  21969059.267    21969062.933   -43771640.494 9  60969712.666 9
  20181056.491    20181060.575   -18164026.824 9 -15529661.165 7
 90  2 22  7 22 14.0800000  0  4G 3G12G11G13
  22783680.367    22783684.768   -55270047.666 9  70116822.100 8
  20224562.562    20224564.140   -41990096.560 9  36300985.534 8
  21974309.595    21974314.435   -43744045.506 9  60991215.250 9
  20180963.517    20180968.691   -18164511.665 9 -15530038.945 7
 90  2 22  7 22 29.0800000  0  4G 3G12G11G13
  22776929.233    22776933.203   -55305522.117 9  70089179.688 8
  20220902.715    20220904.997   -42009328.217 9  36285999.830 8
  21979563.459    21979568.599   -43716438.508 9  61012727.193 9
  20180885.901    20180889.243   -18164924.636 8 -15530360.754 8
 90  2 22  7 22 44.0800000  0  4G 3G12G11G13
  22770191.120    22770194.761   -55340936.250 9  70061584.267 8
  20217271.125    20217274.435   -42028411.595 9  36271129.669 8
  21984819.483    21984823.794   -43688819.861 9  61034248.194 9
  20180820.493    20180825.099   -18165266.139 9 -15530626.856 7
 90  2 22  7 22 59.0800000  0  4G 3G12G11G13
  22763463.498    22763467.389   -55376289.917 9  70034035.965 9
  20213668.208    20213670.905   -42047346.162 9  36256375.452 8
  21990077.453    21990081.762   -43661189.416 9  61055778.398 9
  20180768.852    20180774.106   -18165535.927 9 -15530837.069 8
 90  2 22  7 23 14.0800000  0  4G 3G12G11G13
  22756746.619    22756750.949   -55411583.311 8  70006534.632 8
  20210093.857    20210096.334   -42066131.913 8  36241737.210 9
  21995337.883    21995342.137   -43633547.577 9  61077317.484 9
  20180731.161    20180734.455   -18165734.640 7 -15530991.910 7
 90  2 22  7 23 29.0800000  0  4G 3G12G11G13
  22750041.640    22750045.667   -55446816.508 8  69979080.218 8
  20206547.142    20206550.230   -42084768.738 9  36227214.998 8
  22000600.561    22000604.142   -43605894.757 9  61098865.114 8
  20180707.098    20180711.076   -18165862.524 8 -15531091.553 8
 90  2 22  7 23 44.0800000  0  4G 3G12G11G13
  22743348.450    22743352.207   -55481989.543 8  69951672.671 8
  20203028.673    20203031.386   -42103256.328 9  36212809.080 8
  22005864.713    22005868.207   -43578230.852 9  61120421.410 8
  20180696.148    20180699.414   -18165919.489 9 -15531135.942 8
 90  2 22  7 23 59.0800000  0  4G 3G12G11G13
  22736667.883    22736671.088   -55517102.271 9  69924312.134 9
  20199538.866    20199541.876   -42121594.478 9  36198519.614 8
  22011131.254    22011135.078   -43550556.119 9  61141986.130 8
  20180698.477    20180702.904   -18165905.746 9 -15531125.238 9
 90  2 22  7 24 14.0800000  0  4G 3G12G11G13
  22729997.201    22730000.643   -55552155.389 8  69896998.030 7
  20196077.756    20196080.354   -42139783.699 8  36184346.185 8
  22016398.610    22016402.263   -43522871.340 9  61163558.670 9
  20180715.230    20180718.065   -18165822.191 9 -15531060.124 7
 90  2 22  7 24 29.0800000  0  4G 3G12G11G13
  22723337.978    22723342.169   -55587148.355 9  69869730.787 8
  20192645.712    20192647.444   -42157823.194 9  36170289.435 8
  22021670.188    22021673.512   -43495175.960 9  61185139.486 9
  20180745.257    20180747.520   -18165668.391 9 -15530940.294 7
 90  2 22  7 24 44.0800000  0  4G 3G12G11G13
  22716690.548    22716694.283   -55622081.493 9  69842510.163 8
  20189240.353    20189242.958   -42175712.961 9  36156349.366 8
  22026942.024    22026945.648   -43467470.397 8  61206728.217 9
  20180787.714    20180790.076   -18165444.757 9 -15530766.021 8
 90  2 22  7 24 59.0800000  0  4G 3G12G11G13
  22710055.519    22710057.450   -55656954.759 9  69815336.195 8
  20185864.507    20185867.661   -42193452.801 9  36142526.105 8
  22032215.691    22032219.242   -43439754.990 9  61228324.629 9
  20180842.448    20180845.010   -18165151.508 9 -15530537.515 8
 90  2 22  7 25 14.0800000  0  4G 3G12G11G13
  22703429.927    22703433.612   -55691768.021 9  69788209.001 9
  20182517.667    20182521.246   -42211042.237 8  36128820.057 9
  22037491.776    22037494.842   -43412029.527 9  61249928.869 8
  20180911.550    20180914.527   -18164788.729 9 -15530254.833 7
 90  2 22  7 25 29.0800000  0  4G 3G12G11G13
  22696815.439    22696819.752   -55726521.403 9  69761128.444 8
  20179198.182    20179201.567   -42228481.335 9  36115231.148 8
  22042769.322    22042773.132   -43384294.305 9  61271540.728 9
  20180993.993    20180997.081   -18164356.815 9 -15529918.268 7
 90  2 22  7 25 44.0800000  0  4G 3G12G11G13
  22690214.551    22690216.869   -55761214.762 9  69734094.676 8
  20175908.761    20175912.178   -42245769.753 9  36101759.651 9
  22048049.470    22048051.735   -43356549.413 8  61293160.122 9
  20181088.658    20181091.588   -18163855.857 9 -15529527.905 8
 90  2 22  7 25 59.0800000  0  4G 3G12G11G13
  22683623.945    22683627.157   -55795848.317 9  69707107.502 9
  20172646.978    20172651.769   -42262907.419 8  36088405.627 9
  22053330.608    22053333.745   -43328795.128 9  61314786.830 8
  20181197.001    20181200.761   -18163286.192 9 -15529083.996 8
 90  2 22  7 26 14.0800000  0  4G 3G12G11G13
  22677045.416    22677048.328   -55830421.986 9  69680166.987 8
  20169413.873    20169418.609   -42279894.087 8  36075169.258 9
  22058614.720    22058617.672   -43301031.514 8  61336420.794 8
  20181318.600    20181322.322   -18162647.597 9 -15528586.402 8
 90  2 22  7 26 29.0800000  0  4G 3G12G11G13
  22670476.860    22670480.381   -55864935.990 9  69653272.972 9
  20166210.300    20166213.945   -42296729.618 9  36062050.662 8
  22063898.933    22063902.342   -43273258.984 9  61358061.714 9
  20181453.309    20181457.694   -18161940.768 9 -15528035.608 9
 90  2 22  7 26 44.0800000  0  4G 3G12G11G13
  22663920.912    22663924.044   -55899390.401 9  69626425.389 7
  20163036.157    20163039.732   -42313413.969 9  36049049.870 8
  22069185.879    22069188.758   -43245477.657 8  61379709.497 9
  20181599.996    20181604.584   -18161165.900 9 -15527431.812 7
 90  2 22  7 26 59.0800000  0  4G 3G12G11G13
  22657375.572    22657379.307   -55933785.006 9  69599624.413 8
  20159890.367    20159893.589   -42329946.695 9  36036167.216 8
  22074473.298    22074477.580   -43217687.314 9  61401364.309 9
  20181761.371    20181765.270   -18160322.692 9 -15526774.770 8
 90  2 22  7 27 14.0800000  0  4G 3G12G11G13
  22650841.566    22650844.878   -55968119.560 9  69572870.218 8
  20156773.780    20156775.820   -42346327.539 9  36023402.930 7
  22079763.850    22079766.944   -43189887.977 9  61423026.117 8
  20181935.042    20181937.716   -18159411.362 9 -15526064.640 8
 90  2 22  7 27 29.0800000  0  4G 3G12G11G13
  22644319.565    22644323.378   -56002394.544 9  69546162.447 9
  20153685.263    20153687.885   -42362556.605 9  36010756.893 8
  22085054.974    22085058.626   -43162080.212 9  61444694.507 8
  20182121.073    20182124.024   -18158432.359 9 -15525301.769 8
 90  2 22  7 27 44.0800000  0  4G 3G12G11G13
  22637808.233    22637811.967   -56036610.095 9  69519500.994 8
  20150625.078    20150628.198   -42378633.753 9  35998229.256 9
  22090348.646    22090352.055   -43134264.342 8  61466369.193 8
  20182320.371    20182322.817   -18157386.297 9 -15524486.659 8
 90  2 22  7 27 59.0800000  0  4G 3G12G11G13
  22631308.646    22631312.403   -56070766.300 9  69492885.790 9
  20147594.846    20147597.809   -42394558.889 9  35985820.045 8
  22095643.131    22095646.913   -43106440.559 9  61488050.060 8
  20182532.964    20182536.147   -18156273.123 9 -15523619.249 8
 90  2 22  7 28 14.0800000  0  4G 3G12G11G13
  22624820.194    22624823.620   -56104863.239 9  69466316.753 8
  20144593.194    20144596.328   -42410331.913 9  35973529.396 8
  22100939.881    22100942.889   -43078609.138 9  61509736.865 8
  20182757.894    20182759.648   -18155093.211 9 -15522699.845 8
 90  2 22  7 28 29.0800000  0  4G 3G12G11G13
  22618343.668    22618346.086   -56138901.050 8  69439793.815 9
  20141619.915    20141624.349   -42425952.641 8  35961357.394 8
  22106236.613    22106240.494   -43050770.163 9  61531429.570 9
  20182993.810    20182996.458   -18153846.821 9 -15521728.618 8
 90  2 22  7 28 44.0800000  0  4G 3G12G11G13
  22611876.872    22611880.320   -56172879.737 8  69413316.922 7
  20138677.521    20138680.323   -42441420.988 8  35949304.146 9
  22111535.852    22111539.818   -43022923.706 9  61553128.106 9
  20183243.873    20183246.154   -18152533.975 9 -15520705.635 7
 90  2 22  7 28 59.0800000  0  4G 3G12G11G13
  22605421.408    22605425.644   -56206798.907 9  69386886.410 9
  20135762.929    20135766.729   -42456736.487 9  35937369.990 8
  22116836.564    22116839.571   -42995069.633 9  61574832.563 9
  20183506.158    20183508.662   -18151154.943 9 -15519631.054 7
 90  2 22  7 29 14.0800000  0  4G 3G12G11G13
  22598979.353    22598981.422   -56240658.482 9  69360502.344 8
  20132877.381    20132881.087   -42471898.542 9  35925555.396 8
  22122138.448    22122141.443   -42967207.988 9  61596542.931 8
  20183779.886    20183785.676   -18149709.447 9 -15518504.701 8
 90  2 22  7 29 29.0800000  0  4G 3G12G11G13
  22592547.358    22592550.491   -56274458.890 8  69334164.374 8
  20130021.464    20130025.667   -42486907.487 9  35913860.107 8
  22127442.078    22127445.087   -42939339.222 9  61618258.854 8
  20184067.812    20184072.525   -18148197.981 9 -15517326.918 7
 90  2 22  7 29 44.0800000  0  4G 3G12G11G13
  22586127.161    22586129.478   -56308200.429 8  69307872.288 8
  20127194.930    20127198.322   -42501763.529 9  35902283.975 8
  22132746.954    22132750.076   -42911463.796 8  61639979.963 9
  20184368.635    20184371.796   -18146621.069 9 -15516098.146 7
 90  2 22  7 29 59.0800000  0  4G 3G12G11G13
  22579716.313    22579719.998   -56341882.917 9  69281626.202 9
  20124396.983    20124400.093   -42516466.227 8  35890827.316 8
  22138052.201    22138055.811   -42883581.728 9  61661706.236 9
  20184681.887    20184684.856   -18144978.840 9 -15514818.482 8
 90  2 22  7 30 14.0800000  0  4G 3G12G11G13
  22573317.471    22573321.599   -56375505.954 9  69255426.447 7
  20121629.278    20121631.783   -42531014.955 8  35879490.648 7
  22143359.939    22143362.032   -42855692.630 9  61683438.006 9
  20185007.259    20185009.166   -18143271.121 8 -15513487.788 8
 90  2 22  7 30 29.0800000  0  4G 3G12G11G13
  22566930.469    22566935.000   -56409069.477 8  69229273.058 8
  20118889.562    20118892.717   -42545409.500 8  35868274.109 9
  22148667.732    22148671.973   -42827796.494 9  61705175.243 9
  20185344.081    20185346.296   -18141497.883 9 -15512106.034 7
 90  2 22  7 30 44.0800000  0  4G 3G12G11G13
  22560555.097    22560559.217   -56442573.838 9  69203165.778 9
  20116179.060    20116182.950   -42559650.091 9  35857177.549 8
  22153977.961    22153980.997   -42799893.976 9  61726917.455 9
  20185693.809    20185696.780   -18139659.760 9 -15510673.724 8
 90  2 22  7 30 59.0800000  0  4G 3G12G11G13
  22554190.568    22554194.884   -56476019.653 8  69177104.124 8
  20113499.052    20113502.418   -42573737.073 9  35846200.665 8
  22159288.030    22159291.482   -42771985.525 9  61748664.301 9
  20186055.944    20186058.700   -18137757.515 9 -15509191.455 9
 90  2 22  7 31 14.0800000  0  4G 3G12G11G13
  22547838.152    22547841.135   -56509406.742 8  69151088.227 9
  20110847.738    20110850.538   -42587669.981 8  35835343.853 7
  22164599.488    22164604.314   -42744071.032 9  61770415.840 9
  20186430.455    20186433.458   -18135790.929 8 -15507659.037 8
 90  2 22  7 31 29.0800000  0  4G 3G12G11G13
  22541494.874    22541498.773   -56542735.204 8  69125118.009 8
  20108225.329    20108228.555   -42601448.942 9  35824606.999 8
  22169912.503    22169915.657   -42716151.029 9  61792171.683 9
  20186816.695    20186818.833   -18133760.356 9 -15506076.786 7
 90  2 22  7 31 44.0800000  0  4G 3G12G11G13
  22535164.752    22535168.588   -56576005.165 9  69099193.368 8
  20105632.890    20105636.403   -42615073.852 9  35813990.184 7
  22175227.153    22175230.692   -42688225.582 9  61813931.777 9
  20187215.543    20187217.038   -18131666.205 8 -15504444.987 8
 90  2 22  7 31 59.0800000  0  4G 3G12G11G13
  22528844.692    22528847.572   -56609216.333 9  69073314.560 7
  20103068.404    20103072.229   -42628544.184 8  35803493.833 8
  22180541.889    22180545.756   -42660294.537 8  61835696.213 9
  20187625.409    20187628.463   -18129508.286 9 -15502763.482 7
 90  2 22  7 32 14.0800000  0  4G 3G12G11G13
  22522535.567    22522538.951   -56642368.981 8  69047481.342 8
  20100535.137    20100537.367   -42641859.943 9  35793117.910 8
  22185858.011    22185861.648   -42632358.042 9  61857464.911 9
  20188047.284    20188051.458   -18127286.828 9 -15501032.478 8
 90  2 22  7 32 29.0800000  0  4G 3G12G11G13
  22516238.013    22516243.087   -56675463.038 8  69021693.789 8
  20098030.697    20098033.735   -42655021.120 9  35782862.447 8
  22191174.391    22191179.803   -42604416.475 8  61879237.559 9
  20188481.532    20188486.260   -18125002.187 9 -15499252.234 7
 90  2 22  7 32 44.0800000  0  4G 3G12G11G13
  22509952.738    22509955.863   -56708498.525 8  68995951.859 8
  20095556.190    20095560.059   -42668027.348 9  35772727.720 8
  22196492.803    22196496.727   -42576469.911 8  61901014.084 9
  20188928.435    20188932.367   -18122654.579 9 -15497422.909 7
 90  2 22  7 32 59.0800000  0  4G 3G12G11G13
  22503675.931    22503679.164   -56741475.552 9  68970255.495 8
  20093110.487    20093114.226   -42680878.294 9  35762713.994 8
  22201812.488    22201816.741   -42548518.309 9  61922794.553 9
  20189388.024    20189390.995   -18120243.935 9 -15495544.473 8
 90  2 22  7 33 14.0800000  0  4G 3G12G11G13
  22497412.011    22497416.483   -56774393.809 9  68944604.915 9
  20090694.262    20090697.193   -42693573.690 8  35752821.466 8
  22207132.031    22207136.470   -42520561.586 9  61944579.007 9
  20189858.772    20189862.076   -18117770.480 9 -15493617.094 8
 90  2 22  7 33 29.0800000  0  4G 3G12G11G13
  22491160.182    22491163.114   -56807253.318 9  68919000.120 9
  20088308.527    20088312.787   -42706113.347 9  35743050.304 9
  22212452.988    22212457.086   -42492599.745 9  61966367.452 9
  20190340.959    20190344.070   -18115234.182 9 -15491640.766 8
 90  2 22  7 33 44.0800000  0  4G 3G12G11G13
  22484918.842    22484922.026   -56840053.848 8  68893441.286 9
  20085952.204    20085954.894   -42718496.955 9  35733400.737 8
  22217774.020    22217778.960   -42464632.780 9  61988159.897 9
  20190836.216    20190838.878   -18112634.939 9 -15489615.373 7
 90  2 22  7 33 59.0800000  0  4G 3G12G11G13
  22478686.902    22478690.867   -56872795.908 8  68867928.009 9
  20083625.463    20083629.288   -42730724.854 9  35723872.504 8
  22223097.340    22223101.522   -42436661.230 8  62009955.904 8
  20191341.982    20191346.946   -18109973.482 9 -15487541.508 8
 90  2 22  7 34 14.0800000  0  4G 3G12G11G13
  22472466.939    22472471.540   -56905480.327 9  68842459.659 9
  20081328.244    20081330.140   -42742797.780 9  35714465.038 9
  22228420.460    22228425.400   -42408686.177 9  62031754.619 9
  20191860.027    20191864.030   -18107250.807 9 -15485419.943 8
 90  2 22  7 34 29.0800000  0  4G 3G12G11G13
  22466258.139    22466263.098   -56938107.643 9  68817035.794 8
  20079059.944    20079062.664   -42754715.788 9  35705178.273 8
  22233746.171    22233749.334   -42380708.062 8  62053555.739 9
  20192391.070    20192392.948   -18104467.420 9 -15483251.060 8
 90  2 22  7 34 44.0800000  0  4G 3G12G11G13
  22460060.793    22460064.876   -56970677.062 9  68791657.057 8
  20076821.494    20076824.579   -42766478.115 9  35696012.819 8
  22239069.618    22239074.587   -42352726.337 8  62075359.666 8
  20192931.969    20192936.068   -18101623.147 9 -15481034.734 7
 90  2 22  7 34 59.0800000  0  4G 3G12G11G13
  22453874.092    22453878.170   -57003188.488 9  68766323.490 9
  20074612.074    20074616.333   -42778084.488 8  35686968.900 8
  22244396.030    22244399.466   -42324740.902 8  62097166.481 9
  20193483.764    20193487.439   -18098717.867 9 -15478770.872 8
 90  2 22  7 35 14.0800000  0  4G 3G12G11G13
  22447698.338    22447702.301   -57035642.107 9  68741034.987 8
  20072433.299    20072437.617   -42789534.940 9  35678046.462 8
  22249722.067    22249725.920   -42296752.032 8  62118975.998 9
  20194049.314    20194052.789   -18095751.725 9 -15476459.593 8
 90  2 22  7 35 29.0800000  0  4G 3G12G11G13
  22441534.038    22441537.092   -57068037.925 9  68715791.504 9
  20070284.334    20070287.959   -42800829.169 8  35669245.760 8
  22255047.476    22255052.746   -42268759.746 8  62140788.152 9
  20194625.768    20194627.576   -18092725.056 9 -15474101.142 7
 90  2 22  7 35 44.0800000  0  4G 3G12G11G13
  22435380.542    22435383.418   -57100375.812 9  68690593.158 8
  20068164.749    20068168.663   -42811966.872 9  35660567.036 7
  22260376.249    22260379.743   -42240764.048 8  62162602.971 9
  20195212.255    20195214.488   -18089637.674 8 -15471695.395 9
 90  2 22  7 35 59.0800000  0  4G 3G12G11G13
  22429238.028    22429240.754   -57132655.853 9  68665439.882 9
  20066076.629    20066078.610   -42822947.947 9  35652010.340 7
  22265702.630    22265707.943   -42212765.061 8  62184420.360 8
  20195811.020    20195813.969   -18086489.666 9 -15469242.392 9
 90  2 22  7 36 14.0800000  0  4G 3G12G11G13
  22423106.075    22423109.357   -57164877.671 9  68640331.972 8
  20064016.803    20064019.462   -42833771.969 9  35643576.034 9
  22271032.234    22271035.885   -42184762.508 7  62206240.515 8
  20196421.980    20196424.817   -18083281.209 9 -15466742.290 7
 90  2 22  7 36 29.0800000  0  4G 3G12G11G13
  22416985.046    22416988.430   -57197041.204 9  68615269.496 9
  20061986.859    20061989.717   -42844438.660 8  35635264.327 8
  22276361.048    22276365.257   -42156756.337 8  62228063.497 9
  20197043.889    20197048.070   -18080012.350 9 -15464195.135 8
 90  2 22  7 36 44.0800000  0  4G 3G12G11G13
  22410875.515    22410878.456   -57229146.974 9  68590252.010 8
  20059986.553    20059989.265   -42854948.392 9  35627074.934 9
  22281692.652    22281696.090   -42128747.356 8  62249888.675 9
  20197676.027    20197680.254   -18076683.610 9 -15461601.313 8
 90  2 22  7 36 59.0800000  0  4G 3G12G11G13
  22404776.500    22404781.316   -57261195.382 9  68565279.242 9
  20058015.493    20058018.702   -42865301.436 9  35619007.617 8
  22287021.682    22287025.492   -42100735.758 8  62271715.890 9
  20198321.640    20198324.521   -18073295.332 9 -15458961.093 8
 90  2 22  7 37 14.0800000  0  4G 3G12G11G13
  22398689.286    22398692.754   -57293186.148 9  68540351.407 8
  20056076.030    20056078.908   -42875497.712 9  35611062.472 8
  22292352.857    22292357.354   -42072721.716 8  62293545.006 9
  20198977.935    20198982.231   -18069847.908 9 -15456274.780 8
 90  2 22  7 37 29.0800000  0  4G 3G12G11G13
  22392612.601    22392615.177   -57325119.521 8  68515468.291 8
  20054164.198    20054167.880   -42885536.828 8  35603239.779 8
  22297683.660    22297688.444   -42044705.279 8  62315375.977 8
  20199645.025    20199649.399   -18066341.460 9 -15453542.476 7
 90  2 22  7 37 44.0800000  0  4G 3G12G11G13
  22386546.126    22386550.204   -57356995.410 9  68490629.955 7
  20052285.385    20052288.774   -42895418.591 9  35595539.702 8
  22303015.695    22303020.364   -42016686.482 9  62337208.815 8
  20200323.723    20200327.873   -18062776.127 9 -15450764.283 8
 90  2 22  7 37 59.0800000  0  4G 3G12G11G13
  22380492.414    22380495.277   -57388813.747 9  68465836.452 8
  20050434.137    20050436.866   -42905142.878 9  35587962.324 9
  22308347.759    22308351.940   -41988665.244 8  62359043.543 9
  20201013.615    20201015.824   -18059151.745 9 -15447940.076 7
 90  2 22  7 38 14.0800000  0  4G 3G12G11G13
  22374448.113    22374450.952   -57420574.539 9  68441087.792 8
  20048613.601    20048617.169   -42914709.410 9  35580507.880 8
  22313681.481    22313684.892   -41960641.780 9  62380880.007 8
  20201714.576    20201718.978   -18055468.517 9 -15445070.034 7
 90  2 22  7 38 29.0800000  0  4G 3G12G11G13
  22368415.465    22368418.934   -57452278.050 8  68416383.766 7
  20046824.073    20046826.909   -42924118.327 8  35573176.257 9
  22319014.831    22319017.697   -41932616.319 8  62402718.012 9
  20202427.711    20202429.640   -18051727.005 9 -15442154.576 8
 90  2 22  7 38 44.0800000  0  4G 3G12G11G13
  22362392.683    22362396.268   -57483924.077 9  68391724.525 7
  20045063.162    20045067.016   -42933369.551 8  35565967.503 7
  22324348.898    22324351.248   -41904588.955 9  62424557.521 9
  20203150.121    20203152.123   -18047927.318 9 -15439193.769 8
 90  2 22  7 38 59.0800000  0  4G 3G12G11G13
  22356381.599    22356385.948   -57515513.171 8  68367109.656 8
  20043331.836    20043334.291   -42942463.184 9  35558881.549 8
  22329682.492    22329685.114   -41876560.163 9  62446398.141 8
  20203883.768    20203886.655   -18044069.995 9 -15436188.067 8
 90  2 22  7 39 14.0800000  0  4G 3G12G11G13
  22350380.411    22350385.039   -57547045.532 9  68342539.006 8
  20041631.565    20041635.773   -42951399.304 9  35551918.336 8
  22335016.086    22335019.180   -41848530.213 9  62468239.660 8
  20204628.155    20204632.370   -18040155.369 9 -15433137.702 8
 90  2 22  7 39 29.0800000  0  4G 3G12G11G13
  22344391.146    22344394.825   -57578521.263 9  68318012.473 8
  20039961.282    20039963.988   -42960177.816 9  35545077.931 8
  22340350.024    22340353.304   -41820499.114 9  62490082.065 9
  20205383.508    20205388.989   -18036183.327 9 -15430042.611 7
 90  2 22  7 39 44.0800000  0  4G 3G12G11G13
  22338412.982    22338416.115   -57609940.037 8  68293530.317 8
  20038321.256    20038323.293   -42968798.427 8  35538360.562 8
  22345684.948    22345687.512   -41792466.786 9  62511925.442 9
  20206150.091    20206153.939   -18032154.264 9 -15426903.074 8
 90  2 22  7 39 59.0800000  0  4G 3G12G11G13
  22332444.997    22332448.682   -57641301.856 9  68269092.547 9
  20036711.237    20036714.774   -42977260.960 9  35531766.378 7
  22351018.799    22351022.294   -41764433.378 9  62533769.664 9
  20206928.487    20206931.266   -18028068.326 9 -15423719.220 7
 90  2 22  7 40 14.0800000  0  4G 3G12G11G13
  22326488.639    22326491.057   -57672607.225 9  68244698.762 9
  20035132.054    20035133.404   -42985565.496 9  35525295.312 8
  22356354.454    22356357.047   -41736399.298 9  62555614.395 9
  20207717.124    20207720.697   -18023925.797 8 -15420491.278 8
 90  2 22  7 40 29.0800000  0  4G 3G12G11G13
  22320541.925    22320545.502   -57703855.793 9  68220349.239 9
  20033581.526    20033582.695   -42993711.696 9  35518947.635 8
  22361688.091    22361692.201   -41708364.392 9  62577459.773 9
  20208515.841    20208518.759   -18019726.499 9 -15417219.097 6
 90  2 22  7 40 44.0800000  0  4G 3G12G11G13
  22314605.878    22314608.711   -57735047.351 9  68196044.144 8
  20032060.716    20032062.764   -43001699.276 9  35512723.533 8
  22367023.717    22367027.441   -41680328.523 9  62599305.919 8
  20209325.911    20209329.028   -18015470.333 8 -15413902.597 7
 90  2 22  7 40 59.0800000  0  4G 3G12G11G13
  22308681.329    22308684.634   -57766182.193 9  68171783.237 9
  20030570.915    20030574.259   -43009528.280 9  35506623.021 8
  22372358.457    22372362.195   -41652291.768 9  62621152.732 8
  20210145.827    20210149.037   -18011157.867 9 -15410542.224 7
 90  2 22  7 41 14.0800000  0  4G 3G12G11G13
  22302766.274    22302770.173   -57797260.481 9  68147566.405 9
  20029111.187    20029113.262   -43017198.880 9  35500645.924 7
  22377693.780    22377697.490   -41624254.436 9  62643000.001 8
  20210977.055    20210980.254   -18006789.397 9 -15407138.222 8
 90  2 22  7 41 29.0800000  0  4G 3G12G11G13
  22296863.110    22296867.238   -57828282.109 9  68123393.722 8
  20027680.997    20027684.815   -43024710.818 9  35494792.464 8
  22383030.051    22383033.045   -41596216.536 9  62664847.714 8
  20211819.653    20211823.209   -18002364.998 9 -15403690.628 7
 90  2 22  7 41 44.0800000  0  4G 3G12G11G13
  22290970.521    22290974.298   -57859247.049 8  68099265.205 8
  20026281.849    20026285.061   -43032063.722 8  35489062.913 7
  22388365.463    22388368.750   -41568178.082 9  62686695.858 9
  20212672.291    20212675.817   -17997884.538 9 -15400199.364 8
 90  2 22  7 41 59.0800000  0  4G 3G12G11G13
  22285088.312    22285093.421   -57890155.553 9  68075180.689 7
  20024912.985    20024915.843   -43039257.923 9  35483457.038 7
  22393700.345    22393703.302   -41540139.424 9  62708544.164 9
  20213535.017    20213538.175   -17993348.627 9 -15396664.876 8
 90  2 22  7 42 14.0800000  0  4G 3G12G11G13
  22279218.081    22279222.246   -57921007.835 9  68051139.964 8
  20023574.329    20023578.041   -43046293.570 8  35477974.704 8
  22399036.636    22399039.529   -41512100.889 9  62730392.370 8
  20214409.302    20214412.676   -17988757.675 9 -15393087.524 7
 90  2 22  7 42 29.0800000  0  4G 3G12G11G13
  22273358.467    22273361.774   -57951803.777 8  68027143.134 8
  20022266.486    20022268.660   -43053170.311 9  35472616.211 8
  22404372.340    22404374.941   -41484062.276 9  62752240.648 8
  20215293.168    20215296.729   -17984111.787 9 -15389467.327 8
 90  2 22  7 42 44.0800000  0  4G 3G12G11G13
  22267508.856    22267510.945   -57982543.441 8  68003190.159 9
  20020987.543    20020990.241   -43059887.862 9  35467381.742 9
  22409707.680    22409710.881   -41456023.740 8  62774088.844 9
  20216187.985    20216190.405   -17979411.015 8 -15385804.394 7
 90  2 22  7 42 59.0800000  0  4G 3G12G11G13
  22261670.047    22261672.851   -58013227.015 9  67979280.884 9
  20019740.365    20019742.689   -43066446.459 9  35462271.143 8
  22415043.564    22415045.663   -41427985.492 9  62795936.823 9
  20217092.713    20217095.100   -17974655.576 9 -15382098.850 8
 90  2 22  7 43 14.0800000  0  4G 3G12G11G13
  22255841.986    22255845.576   -58043854.638 9  67955415.199 8
  20018522.124    20018524.729   -43072846.075 9  35457284.436 8
  22420377.336    22420381.810   -41399947.747 8  62817784.414 9
  20218007.883    20218010.565   -17969845.827 9 -15378351.000 9
 90  2 22  7 43 29.0800000  0  4G 3G12G11G13
  22250024.656    22250027.030   -58074426.125 9  67931593.275 9
  20017334.978    20017336.750   -43079086.285 9  35452421.928 8
  22425713.019    22425716.965   -41371910.366 8  62839631.722 9
  20218932.732    20218936.297   -17964981.704 9 -15374560.774 8
 90  2 22  7 43 44.0800000  0  4G 3G12G11G13
  22244217.856    22244220.532   -58104941.231 8  67907815.279 8
  20016177.583    20016180.950   -43085166.890 9  35447683.792 8
  22431049.152    22431052.914   -41343873.257 9  62861478.809 9
  20219870.132    20219872.736   -17960063.049 9 -15370728.062 8
 90  2 22  7 43 59.0800000  0  4G 3G12G11G13
  22238420.529    22238425.453   -58135400.223 9  67884081.036 9
  20015050.466    20015053.811   -43091088.013 9  35443069.915 7
  22436384.385    22436388.124   -41315836.724 9  62883325.459 9
  20220816.084    20220820.621   -17955090.527 9 -15366853.360 8
 90  2 22  7 44 14.0800000  0  4G 3G12G11G13
  22232635.152    22232639.302   -58165803.215 8  67860390.405 9
  20013954.153    20013957.170   -43096849.631 9  35438580.343 7
  22441719.510    22441724.079   -41287800.842 8  62905171.581 9
  20221773.087    20221775.632   -17950064.065 9 -15362936.627 7
 90  2 22  7 44 29.0800000  0  4G 3G12G11G13
  22226860.535    22226864.111   -58196150.361 8  67836743.294 8
  20012888.030    20012890.647   -43102451.764 9  35434215.037 8
  22447053.533    22447058.360   -41259765.713 9  62927017.120 9
  20222739.336    20222741.395   -17944983.990 9 -15358978.130 7
 90  2 22  7 44 44.0800000  0  4G 3G12G11G13
  22221096.993    22221100.055   -58226442.138 9  67813139.343 9
  20011852.254    20011855.936   -43107894.749 9  35429973.736 8
  22452388.902    22452392.569   -41231731.977 9  62948861.597 9
  20223714.915    20223718.871   -17939851.094 9 -15354978.471 8
 90  2 22  7 44 59.0800000  0  4G 3G12G11G13
  22215342.236    22215345.642   -58256678.828 9  67789578.286 8
  20010847.424    20010850.418   -43113178.752 9  35425856.336 9
  22457723.340    22457726.607   -41203699.902 9  62970704.756 8
  20224702.859    20224704.300   -17934665.636 9 -15350937.851 7
 90  2 22  7 45 14.0800000  0  4G 3G12G11G13
  22209598.900    22209601.817   -58286860.387 8  67766060.189 8
  20009871.373    20009875.254   -43118303.692 9  35421862.872 8
  22463057.185    22463060.664   -41175669.589 9  62992546.559 9
  20225699.479    20225701.670   -17929427.797 8 -15346856.393 7
 90  2 22  7 45 29.0800000  0  4G 3G12G11G13
  22203866.523    22203867.867   -58316986.735 9  67742585.131 7
  20008926.021    20008930.494   -43123269.364 9  35417993.519 8
  22468389.670    22468395.053   -41147640.885 8  63014387.101 9
  20226706.054    20226709.711   -17924137.530 9 -15342734.113 7
 90  2 22  7 45 44.0800000  0  4G 3G12G11G13
  22198144.248    22198146.653   -58347058.004 9  67719152.989 8
  20008010.733    20008015.580   -43128075.622 8  35414248.383 7
  22473724.987    22473727.810   -41119613.990 8  63036226.229 9
  20227722.579    20227724.741   -17918794.972 9 -15338571.063 7
 90  2 22  7 45 59.0800000  0  4G 3G12G11G13
  22192431.289    22192433.964   -58377074.010 9  67695763.896 8
  20007126.542    20007129.889   -43132722.225 9  35410627.663 8
  22479056.720    22479060.911   -41091588.833 8  63058064.003 9
  20228749.210    20228751.461   -17913400.181 9 -15334367.340 7
 90  2 22  7 46 14.0800000  0  4G 3G12G11G13
  22186731.052    22186733.755   -58407034.645 9  67672417.968 8
  20006273.848    20006277.208   -43137208.999 9  35407131.460 8
  22484390.487    22484393.990   -41063565.404 8  63079900.436 9
  20229785.625    20229787.002   -17907953.464 9 -15330123.152 7
 90  2 22  7 46 29.0800000  0  4G 3G12G11G13
  22181040.815    22181042.877   -58436940.197 9  67649114.948 8
  20005451.674    20005453.292   -43141536.072 9  35403759.713 7
  22489722.121    22489726.217   -41035543.707 8  63101735.511 9
  20230832.228    20230834.414   -17902454.971 9 -15325838.599 8
 90  2 22  7 46 44.0800000  0  4G 3G12G11G13
  22175359.594    22175363.215   -58466790.549 8  67625854.972 8
  20004657.604    20004660.586   -43145703.179 9  35400512.613 8
  22495054.003    22495058.201   -41007523.807 8  63123569.181 9
  20231887.846    20231891.558   -17896904.695 8 -15321513.720 7
 90  2 22  7 46 59.0800000  0  4G 3G12G11G13
  22169689.405    22169692.624   -58496585.648 9  67602638.020 8
  20003894.302    20003897.927   -43149710.368 8  35397390.124 7
  22500385.243    22500389.786   -40979505.880 8  63145401.318 9
  20232954.206    20232955.571   -17891303.029 9 -15317148.771 8
 90  2 22  7 47 14.0800000  0  4G 3G12G11G13
  22164029.691    22164033.882   -58526325.939 8  67579463.775 8
  20003161.966    20003166.836   -43153557.719 9  35394392.198 8
  22505716.986    22505720.695   -40951490.105 9  63167231.776 9
  20234030.099    20234032.707   -17885650.223 9 -15312743.972 8
 90  2 22  7 47 29.0800000  0  4G 3G12G11G13
  22158380.336    22158384.701   -58556011.215 9  67556332.412 8
  20002460.812    20002463.616   -43157245.024 9  35391518.968 8
  22511047.675    22511052.135   -40923476.543 9  63189060.526 9
  20235115.367    20235117.645   -17879946.236 9 -15308299.313 8
 90  2 22  7 47 44.0800000  0  4G 3G12G11G13
  22152742.800    22152745.333   -58585641.535 9  67533243.859 7
  20001789.107    20001793.144   -43160772.312 9  35388770.427 8
  22516378.506    22516381.766   -40895465.151 8  63210887.572 9
  20236209.809    20236212.823   -17874191.254 9 -15303814.910 8
 90  2 22  7 47 59.0800000  0  4G 3G12G11G13
  22147115.239    22147116.581   -58615217.524 9  67510197.641 8
  20001148.844    20001151.888   -43164139.933 9  35386146.291 8
  22521707.980    22521711.925   -40867456.484 8  63232712.504 9
  20237315.474    20237317.311   -17868385.950 9 -15299291.281 8
 90  2 22  7 48 14.0800000  0  4G 3G12G11G13
  22141497.078    22141498.681   -58644738.944 9  67487193.930 7
  20000538.336    20000541.436   -43167347.722 8  35383646.715 8
  22527037.404    22527041.593   -40839450.578 9  63254535.270 9
  20238428.771    20238432.217   -17862530.363 9 -15294728.504 7
 90  2 22  7 48 29.0800000  0  4G 3G12G11G13
  22135891.181    22135892.056   -58674205.544 8  67464232.966 8
  19999958.732    19999962.661   -43170395.458 8  35381271.848 8
  22532364.651    22532370.365   -40811447.128 8  63276356.135 9
  20239552.247    20239555.965   -17856624.206 9 -15290126.280 8
 90  2 22  7 48 44.0800000  0  4G 3G12G11G13
  22130293.310    22130295.958   -58703617.698 9  67441314.409 8
  19999409.483    19999412.751   -43173283.104 9  35379021.718 8
  22537694.647    22537699.724   -40783446.436 8  63298174.846 9
  20240685.973    20240689.629   -17850667.923 9 -15285485.021 7
 90  2 22  7 48 59.0800000  0  4G 3G12G11G13
  22124706.472    22124709.590   -58732975.750 9  67418438.011 8
  19998890.041    19998893.723   -43176011.043 9  35376896.054 8
  22543020.778    22543026.690   -40755448.991 9  63319991.018 9
  20241828.992    20241831.063   -17844662.305 8 -15280805.320 8
 90  2 22  7 49 14.0800000  0  4G 3G12G11G13
  22119130.409    22119132.584   -58762279.551 9  67395603.888 7
  19998400.718    19998404.902   -43178578.984 8  35374895.062 7
  22548349.543    22548353.630   -40727454.652 9  63341804.772 9
  20242981.351    20242983.586   -17838607.119 8 -15276086.983 7
 90  2 22  7 49 29.0800000  0  4G 3G12G11G13
  22113563.647    22113567.226   -58791529.080 9  67372812.074 8
  19997942.140    19997946.016   -43180986.668 9  35373018.940 8
  22553676.112    22553680.057   -40699463.309 9  63363616.198 9
  20244142.204    20244147.239   -17832502.326 8 -15271330.004 7
 90  2 22  7 49 44.0800000  0  4G 3G12G11G13
  22108007.932    22108010.822   -58820724.292 9  67350062.580 8
  19997515.728    19997518.611   -43183234.287 9  35371267.549 8
  22559001.928    22559006.296   -40671475.192 9  63385425.127 8
  20245314.563    20245317.498   -17826348.246 9 -15266534.607 8
 90  2 22  7 49 59.0800000  0  4G 3G12G11G13
  22102463.564    22102464.606   -58849865.529 9  67327355.126 8
  19997118.094    19997120.677   -43185321.915 9  35369640.821 8
  22564327.251    22564330.990   -40643490.387 9  63407231.459 9
  20246494.504    20246497.636   -17820145.146 9 -15261701.019 7
 90  2 22  7 50 14.0800000  0  4G 3G12G11G13
  22096927.509    22096929.497   -58878952.752 9  67304689.747 7
  19996750.434    19996754.512   -43187249.454 8  35368138.830 8
  22569651.908    22569655.892   -40615508.887 9  63429035.210 9
  20247684.711    20247688.285   -17813893.394 9 -15256829.514 7
 90  2 22  7 50 29.0800000  0  4G 3G12G11G13
  22091402.344    22091405.177   -58907986.036 9  67282066.424 7
  19996413.886    19996418.265   -43189017.103 9  35366761.449 8
  22574975.621    22574979.261   -40587531.007 9  63450836.150 9
  20248882.565    20248888.342   -17807593.071 9 -15251920.167 8
 90  2 22  7 50 44.0800000  0  4G 3G12G11G13
  22085887.252    22085891.217   -58936965.832 9  67259484.769 8
  19996108.486    19996112.604   -43190624.868 9  35365508.638 8
  22580298.334    22580303.274   -40559556.993 9  63472634.070 9
  20250091.095    20250095.122   -17801244.489 9 -15246973.219 7
 90  2 22  7 50 59.0800000  0  4G 3G12G11G13
  22080383.193    22080386.011   -58965891.948 9  67236944.956 7
  19995833.286    19995837.421   -43192072.562 9  35364380.554 8
  22585621.769    22585625.629   -40531586.702 8  63494429.079 9
  20251308.818    20251311.642   -17794847.689 9 -15241988.696 8
 90  2 22  7 51 14.0800000  0  4G 3G12G11G13
  22074889.165    22074892.714   -58994764.097 9  67214447.198 9
  19995589.171    19995593.535   -43193360.005 9  35363377.357 8
  22590943.522    22590947.545   -40503620.102 8  63516221.235 9
  20252535.167    20252538.115   -17788402.758 8 -15236966.671 8
 90  2 22  7 51 29.0800000  0  4G 3G12G11G13
  22069406.183    22069408.859   -59023582.490 9  67191991.325 9
  19995374.112    19995377.052   -43194487.138 8  35362499.070 7
  22596264.044    22596268.599   -40475657.147 9  63538010.554 8
  20253771.234    20253773.876   -17781909.698 9 -15231907.147 7
 90  2 22  7 51 44.0800000  0  4G 3G12G11G13
  22063932.345    22063934.821   -59052347.329 9  67169577.184 7
  19995189.141    19995193.116   -43195454.050 9  35361745.619 7
  22601585.268    22601589.779   -40447697.980 9  63559796.901 8
  20255015.229    20255018.439   -17775368.746 9 -15226810.295 7
 90  2 22  7 51 59.0800000  0  4G 3G12G11G13
  22058468.724    22058470.483   -59081058.442 9  67147204.891 8
  19995035.848    19995039.676   -43196260.804 8  35361116.990 8
  22606904.589    22606909.437   -40419742.725 8  63581580.217 9
  20256268.761    20256272.592   -17768780.149 9 -15221676.326 7
 90  2 22  7 52 14.0800000  0  4G 3G12G11G13
  22053015.192    22053018.023   -59109716.323 9  67124874.074 8
  19994912.918    19994915.825   -43196907.553 9  35360613.025 7
  22612223.938    22612228.556   -40391791.658 9  63603360.251 9
  20257531.866    20257534.996   -17762144.287 9 -15216505.536 7
 90  2 22  7 52 29.0800000  0  4G 3G12G11G13
  22047571.931    22047574.978   -59138320.833 9  67102584.846 8
  19994820.839    19994824.146   -43197394.052 8  35360233.933 8
  22617541.670    22617545.337   -40363844.811 8  63625137.008 9
  20258803.691    20258806.845   -17755461.237 9 -15211297.945 7
 90  2 22  7 52 44.0800000  0  4G 3G12G11G13
  22042139.046    22042141.263   -59166871.900 9  67080337.278 9
  19994758.134    19994762.526   -43197720.203 9  35359979.772 8
  22622859.388    22622863.232   -40335902.128 9  63646910.508 9
  20260084.665    20260087.889   -17748730.933 9 -15206053.547 8
 90  2 22  7 52 59.0800000  0  4G 3G12G11G13
  22036715.648    22036719.054   -59195369.584 9  67058131.307 9
  19994726.693    19994731.144   -43197886.014 9  35359850.567 8
  22628175.632    22628179.562   -40307963.694 9  63668680.716 8
  20261374.142    20261377.026   -17741953.723 9 -15200772.605 9
 90  2 22  7 53 14.0800000  0  4G 3G12G11G13
  22031302.924    22031306.229   -59223814.043 9  67035966.815 8
  19994725.753    19994728.333   -43197891.468 7  35359846.308 8
  22633491.640    22633495.005   -40280029.648 9  63690447.502 9
  20262672.718    20262675.242   -17735129.912 9 -15195455.340 7
 90  2 22  7 53 29.0800000  0  4G 3G12G11G13
  22025900.503    22025903.280   -59252205.993 9  67013843.234 9
  19994754.741    19994759.257   -43197737.357 9  35359966.387 7
  22638806.495    22638810.385   -40252100.608 8  63712210.384 9
  20263980.457    20263983.083   -17728260.524 9 -15190102.576 7
 90  2 22  7 53 44.0800000  0  4G 3G12G11G13
  22020507.225    22020511.031   -59280545.179 8  66991760.773 8
  19994814.314    19994818.443   -43197423.516 8  35360210.926 8
  22644121.467    22644124.225   -40224176.436 8  63733969.470 9
  20265295.226    20265298.555   -17721344.955 8 -15184713.813 8
 90  2 22  7 53 59.0800000  0  4G 3G12G11G13
  22015124.308    22015127.371   -59308831.774 9  66969719.280 8
  19994904.516    19994908.870   -43196949.829 9  35360580.023 8
  22649433.654    22649436.870   -40196257.197 9  63755724.715 9
  20266620.609    20266623.554   -17714383.501 9 -15179289.313 8
 90  2 22  7 54 14.0800000  0  4G 3G12G11G13
  22009751.621    22009754.613   -59337065.667 9  66947718.851 9
  19995025.980    19995029.387   -43196316.222 9  35361073.754 7
  22654745.563    22654748.213   -40168342.898 9  63777476.114 8
  20267954.501    20267957.840   -17707376.407 9 -15173829.234 8
 90  2 22  7 54 29.0800000  0  4G 3G12G11G13
  22004388.779    22004391.728   -59365247.072 9  66925759.319 9
  19995177.025    19995179.442   -43195522.944 8  35361691.900 7
  22660056.126    22660059.664   -40140433.864 9  63799223.405 8
  20269296.320    20269300.107   -17700324.054 9 -15168333.893 8
 90  2 22  7 54 44.0800000  0  4G 3G12G11G13
  21999036.341    21999039.345   -59393376.165 9  66903840.558 7
  19995357.108    19995361.687   -43194569.778 8  35362434.621 8
  22665365.515    22665369.583   -40112529.948 9  63820966.709 9
  20270646.725    20270650.326   -17693226.511 9 -15162803.330 8
 90  2 22  7 54 59.0800000  0  4G 3G12G11G13
  21993693.260    21993695.092   -59421452.701 9  66881962.739 9
  19995570.218    19995572.988   -43193456.564 8  35363302.062 8
  22670675.128    22670678.895   -40084631.095 9  63842706.051 9
  20272005.845    20272009.664   -17686083.687 9 -15157237.501 8
 90  2 22  7 55 14.0800000  0  4G 3G12G11G13
  21988360.640    21988362.513   -59449476.839 9  66860125.755 8
  19995812.441    19995816.228   -43192183.487 9  35364294.064 8
  22675982.699    22675986.948   -40056737.398 9  63864441.401 8
  20273374.037    20273376.478   -17678895.902 9 -15151636.627 8
 90  2 22  7 55 29.0800000  0  4G 3G12G11G13
  21983037.434    21983041.098   -59477448.851 9  66838329.382 8
  19996084.675    19996088.363   -43190750.649 9  35365410.556 8
  22681289.815    22681293.867   -40028849.110 9  63886172.512 8
  20274750.570    20274752.858   -17671663.316 9 -15146000.841 8
 90  2 22  7 55 44.0800000  0  4G 3G12G11G13
  21977725.232    21977728.323   -59505368.339 9  66816573.941 8
  19996388.825    19996392.104   -43189157.877 8  35366651.665 7
  22686595.263    22686599.272   -40000966.119 8  63907899.509 8
  20276134.727    20276138.457   -17664386.009 9 -15140330.208 9
 90  2 22  7 55 59.0800000  0  4G 3G12G11G13
  21972420.987    21972425.166   -59533235.546 9  66794859.246 8
  19996721.478    19996725.316   -43187405.101 9  35368017.452 8
  22691899.515    22691904.807   -39973088.271 9  63929622.497 9
  20277527.269    20277531.578   -17657064.162 9 -15134624.855 7
 90  2 22  7 56 14.0800000  0  4G 3G12G11G13
  21967127.746    21967131.766   -59561051.025 9  66773184.869 8
  19997085.004    19997088.754   -43185492.761 8  35369507.580 8
  22697204.970    22697208.137   -39945216.153 9  63951341.033 9
  20278929.163    20278933.615   -17649698.302 9 -15128885.235 8
 90  2 22  7 56 29.0800000  0  4G 3G12G11G13
  21961845.177    21961847.725   -59588814.733 9  66751550.814 8
  19997478.998    19997483.832   -43183421.043 8  35371121.898 8
  22702507.444    22702511.479   -39917349.991 8  63973054.924 8
  20280339.116    20280344.212   -17642288.798 9 -15123111.583 7
 90  2 22  7 56 44.0800000  0  4G 3G12G11G13
  21956571.955    21956573.787   -59616526.807 9  66729957.019 8
  19997903.510    19997908.056   -43181189.726 8  35372860.577 8
  22707809.470    22707813.215   -39889489.792 8  63994764.158 8
  20281758.090    20281762.892   -17634835.527 9 -15117303.856 8
 90  2 22  7 56 59.0800000  0  4G 3G12G11G13
  21951308.018    21951311.611   -59644187.109 9  66708403.526 8
  19998358.600    19998362.879   -43178798.782 8  35374723.661 9
  22713110.311    22713113.634   -39861635.509 8  64016468.783 8
  20283184.692    20283187.642   -17627338.457 9 -15111461.962 8
 90  2 22  7 57 14.0800000  0  4G 3G12G11G13
  21946054.828    21946057.302   -59671795.644 9  66686890.383 7
  19998844.763    19998847.338   -43176248.163 8  35376711.151 8
  22718408.624    22718413.508   -39833787.006 8  64038168.903 8
  20284619.310    20284622.978   -17619797.999 9 -15105586.298 9
 90  2 22  7 57 29.0800000  0  4G 3G12G11G13
  21940810.695    21940813.443   -59699352.373 9  66665417.604 8
  19999360.185    19999363.944   -43173537.708 9  35378823.189 8
  22723706.094    22723712.200   -39805944.100 8  64059864.656 8
  20286062.843    20286065.363   -17612213.840 9 -15099676.560 8
 90  2 22  7 57 44.0800000  0  4G 3G12G11G13
  21935577.295    21935579.656   -59726857.115 9  66643985.324 8
  19999907.054    19999909.185   -43170667.253 9  35381059.917 8
  22729003.980    22729008.864   -39778106.745 8  64081556.084 9
  20287514.951    20287517.464   -17604586.106 9 -15093732.870 8
 90  2 22  7 57 59.0800000  0  4G 3G12G11G13
  21930352.422    21930356.657   -59754310.104 8  66622593.390 8
  20000485.078    20000486.989   -43167637.083 8  35383421.083 8
  22734300.678    22734304.460   -39750275.261 8  64103242.936 9
  20288974.059    20288976.762   -17596915.092 9 -15087755.453 8
 90  2 22  7 58 14.0800000  0  4G 3G12G11G13
  21925138.567    21925141.758   -59781711.885 9  66601241.378 8
  20001091.288    20001093.460   -43164447.490 9  35385906.471 7
  22739595.903    22739600.628   -39722450.089 8  64124924.865 8
  20290441.588    20290445.070   -17589201.538 8 -15081744.880 8
 90  2 22  7 58 29.0800000  0  4G 3G12G11G13
  21919932.985    21919937.475   -59809062.533 9  66579929.211 8
  20001727.120    20001731.168   -43161098.568 9  35388516.003 8
  22744888.163    22744893.719   -39694631.131 8  64146601.967 9
  20291917.641    20291920.577   -17581445.571 8 -15075701.270 8
 90  2 22  7 58 44.0800000  0  4G 3G12G11G13
  21914738.518    21914742.755   -59836361.962 9  66558656.943 9
  20002395.024    20002398.247   -43157590.520 9  35391249.549 7
  22750181.907    22750186.547   -39666818.565 9  64168274.086 8
  20293401.182    20293405.254   -17573647.339 8 -15069624.724 8
 90  2 22  7 58 59.0800000  0  4G 3G12G11G13
  21909553.755    21909556.960   -59863610.061 9  66537424.681 7
  20003093.499    20003097.207   -43153923.041 9  35394107.310 8
  22755473.031    22755477.600   -39639012.153 8  64189941.423 9
  20294893.072    20294897.152   -17565806.435 8 -15063514.941 8
 90  2 22  7 59 14.0800000  0  4G 3G12G11G13
  21904376.903    21904381.154   -59890806.943 9  66516232.319 8
  20003821.853    20003824.805   -43150096.086 9  35397089.335 8
  22760763.483    22760767.850   -39611212.029 8  64211603.846 9
  20296393.466    20296397.124   -17557923.252 9 -15057372.191 7
 90  2 22  7 59 29.0800000  0  4G 3G12G11G13
  21899211.600    21899215.478   -59917952.960 9  66495079.583 7
  20004580.888    20004583.675   -43146109.914 9  35400195.439 8
  22766052.625    22766056.392   -39583418.321 9  64233261.259 9
  20297902.616    20297905.138   -17549998.328 9 -15051196.924 8
 90  2 22  7 59 44.0800000  0  4G 3G12G11G13
  21894055.383    21894059.076   -59945048.225 9  66473966.379 9
  20005368.921    20005372.489   -43141964.702 9  35403425.460 8
  22771340.658    22771344.741   -39555631.242 8  64254913.532 9
  20299418.794    20299420.545   -17542031.844 8 -15044989.274 7
 90  2 22  7 59 59.0800000  0  4G 3G12G11G13
  21888907.938    21888912.860   -59972092.596 8  66452892.859 9
  20006188.304    20006191.196   -43137660.367 9  35406779.488 9
  22776626.653    22776631.108   -39527850.781 9  64276560.623 9
  20300942.406    20300944.171   -17534023.675 9 -15038749.132 8
 90  2 22  8  0 14.0800000  0  4G 3G12G11G13
  21883771.639    21883775.889   -59999086.213 9  66431858.869 9
  20007036.688    20007040.814   -43133197.013 9  35410257.419 8
  22781912.147    22781916.571   -39500076.961 9  64298202.544 9
  20302473.193    20302477.709   -17525974.112 9 -15032476.753 8
 90  2 22  8  0 29.0800000  0  4G 3G12G11G13
  21878644.713    21878649.106   -60026029.389 9  66410864.210 8
  20007916.664    20007920.367   -43128574.918 8  35413859.036 8
  22787195.851    22787199.460   -39472310.035 8  64319839.097 9
  20304012.886    20304015.663   -17517883.640 9 -15026172.477 8
 90  2 22  8  0 44.0800000  0  4G 3G12G11G13
  21873528.576    21873531.682   -60052922.244 9  66389908.758 9
  20008826.494    20008830.266   -43123793.971 9  35417584.458 8
  22792478.205    22792481.935   -39444550.004 9  64341470.284 9
  20305560.286    20305564.101   -17509752.209 9 -15019836.309 8
 90  2 22  8  0 59.0800000  0  4G 3G12G11G13
  21868419.908    21868423.900   -60079764.446 9  66368992.791 9
  20009766.723    20009768.645   -43118854.161 9  35421433.650 8
  22797760.036    22797763.995   -39416796.944 9  64363096.023 9
  20307115.535    20307119.040   -17501580.039 9 -15013468.375 9
 90  2 22  8  1 14.0800000  0  4G 3G12G11G13
  21863322.746    21863326.223   -60106556.498 9  66348115.871 7
  20010736.951    20010740.268   -43113755.819 9  35425406.383 7
  22803039.805    22803044.109   -39389051.060 9  64384716.190 9
  20308678.174    20308683.155   -17493367.433 9 -15007068.961 7
 90  2 22  8  1 29.0800000  0  4G 3G12G11G13
  21858233.253    21858236.501   -60133298.517 9  66327277.945 8
  20011737.371    20011740.030   -43108498.841 9  35429502.731 9
  22808317.972    22808322.947   -39361312.264 8  64406330.827 9
  20310248.319    20310252.842   -17485114.452 9 -15000638.048 8
 90  2 22  8  1 44.0800000  0  4G 3G12G11G13
  21853153.461    21853156.937   -60159990.328 8  66306479.119 9
  20012767.810    20012771.634   -43103083.256 9  35433722.651 8
  22813595.138    22813599.662   -39333580.609 9  64427939.904 9
  20311827.946    20311831.225   -17476821.217 9 -14994175.793 9
 90  2 22  8  1 59.0800000  0  4G 3G12G11G13
  21848083.256    21848086.848   -60186632.194 9  66285719.221 8
  20013827.871    20013832.176   -43097509.297 8  35438065.988 7
  22818871.258    22818874.833   -39305856.356 8  64449543.224 9
  20313413.690    20313415.707   -17468488.101 9 -14987682.446 8
 90  2 22  8  2 14.0800000  0  4G 3G12G11G13
  21843022.740    21843026.030   -60213224.502 9  66264997.960 8
  20014918.952    20014922.897   -43091777.245 9  35442532.513 8
  22824145.082    22824149.094   -39278139.771 8  64471140.543 9
  20315006.572    20315009.951   -17460115.189 9 -14981158.104 8
 90  2 22  8  2 29.0800000  0  4G 3G12G11G13
  21837972.109    21837976.517   -60239766.769 8  66244315.695 8
  20016039.039    20016043.154   -43085886.789 8  35447122.469 7
  22829418.643    22829422.068   -39250430.535 9  64492732.143 9
  20316607.650    20316609.782   -17451702.534 9 -14974602.783 8
 90  2 22  8  2 44.0800000  0  4G 3G12G11G13
  21832930.423    21832935.103   -60266259.067 8  66223672.369 8
  20017191.035    20017195.069   -43079837.840 9  35451835.931 8
  22834690.300    22834693.051   -39222728.485 9  64514318.152 9
  20318215.895    20318218.638   -17443250.125 9 -14968016.501 8
 90  2 22  8  2 59.0800000  0  4G 3G12G11G13
  21827899.326    21827902.817   -60292701.364 9  66203067.988 8
  20018371.382    20018375.959   -43073630.664 9  35456672.686 8
  22839961.033    22839963.434   -39195033.765 9  64535898.440 8
  20319831.277    20319834.553   -17434758.351 9 -14961399.531 7
 90  2 22  8  3 14.0800000  0  4G 3G12G11G13
  21822877.443    21822880.921   -60319093.925 9  66182502.368 9
  20019582.947    20019585.931   -43067265.303 9  35461632.718 8
  22845228.670    22845232.766   -39167346.281 9  64557473.096 9
  20321455.765    20321458.375   -17426227.275 9 -14954751.935 9
 90  2 22  8  3 29.0800000  0  4G 3G12G11G13
  21817864.719    21817867.867   -60345436.496 9  66161975.679 9
  20020824.544    20020827.948   -43060741.602 8  35466716.107 8
  22850495.145    22850500.087   -39139665.993 8  64579042.145 9
  20323086.172    20323089.016   -17417656.802 9 -14948073.650 8
 90  2 22  8  3 44.0800000  0  4G 3G12G11G13
  21812861.253    21812863.658   -60371729.533 9  66141487.607 8
  20022097.045    20022099.421   -43054059.683 9  35471922.786 8
  22855762.015    22855765.431   -39111993.072 8  64600605.441 9
  20324724.693    20324727.514   -17409047.097 9 -14941364.783 7
 90  2 22  8  3 59.0800000  0  4G 3G12G11G13
  21807866.759    21807870.866   -60397973.341 9  66121037.896 9
  20023398.039    20023401.124   -43047219.786 8  35477252.579 8
  22861026.303    22861030.821   -39084327.748 9  64622162.824 9
  20326370.175    20326372.435   -17400398.434 9 -14934625.562 7
 90  2 22  8  4 14.0800000  0  4G 3G12G11G13
  21802881.677    21802885.887   -60424167.448 9  66100626.922 8
  20024729.366    20024732.524   -43040221.968 9  35482705.404 7
  22866289.668    22866293.378   -39056669.917 9  64643714.366 9
  20328022.927    20328027.872   -17391711.019 9 -14927856.147 8
 90  2 22  8  4 29.0800000  0  4G 3G12G11G13
  21797907.017    21797910.895   -60450312.304 9  66080254.324 9
  20026091.833    20026095.085   -43033066.298 8  35488281.253 7
  22871551.093    22871554.967   -39029019.690 9  64665259.983 9
  20329683.083    20329686.647   -17382984.993 9 -14921056.653 8
 90  2 22  8  4 44.0800000  0  4G 3G12G11G13
  21792940.783    21792944.146   -60476407.821 8  66059920.169 8
  20027483.259    20027485.779   -43025752.803 8  35493980.074 7
  22876812.368    22876816.122   -39001377.164 9  64686799.611 9
  20331351.856    20331355.379   -17374220.677 9 -14914227.316 8
 90  2 22  8  4 59.0800000  0  4G 3G12G11G13
  21787984.680    21787988.215   -60502454.134 9  66039624.364 9
  20028905.308    20028907.326   -43018281.673 9  35499801.722 8
  22882070.510    22882074.621   -38973742.315 9  64708333.254 9
  20333026.501    20333029.443   -17365418.274 9 -14907368.302 9
 90  2 22  8  5 14.0800000  0  4G 3G12G11G13
  21783038.852    21783041.927   -60528451.259 9  66019366.865 8
  20030356.294    20030359.070   -43010652.842 8  35505746.264 7
  22887327.857    22887332.004   -38946115.104 8  64729860.936 9
  20334710.085    20334711.879   -17356577.902 9 -14900479.708 8
 90  2 22  8  5 29.0800000  0  4G 3G12G11G13
  21778100.191    21778102.766   -60554399.464 9  65999147.495 8
  20031838.050    20031841.033   -43002866.641 9  35511813.421 7
  22892583.868    22892587.491   -38918495.707 8  64751382.527 9
  20336398.152    20336400.872   -17347699.681 9 -14893561.616 8
 90  2 22  8  5 44.0800000  0  4G 3G12G11G13
  21773171.477    21773174.939   -60580298.911 9  65978966.111 8
  20033349.795    20033352.838   -42994923.163 8  35518003.152 8
  22897837.372    22897842.084   -38890884.378 9  64772897.839 9
  20338095.160    20338097.914   -17338783.896 9 -14886614.251 8
 90  2 22  8  5 59.0800000  0  4G 3G12G11G13
  21768252.420    21768255.268   -60606149.535 9  65958822.772 8
  20034891.249    20034893.854   -42986822.546 8  35524315.308 8
  22903090.442    22903094.745   -38863281.058 8  64794406.913 9
  20339798.355    20339802.209   -17329830.714 9 -14879637.736 8
 90  2 22  8  6 14.0800000  0  4G 3G12G11G13
  21763341.447    21763345.927   -60631951.655 9  65938717.229 8
  20036462.973    20036466.478   -42978564.935 9  35530749.801 9
  22908341.950    22908345.989   -38835685.913 8  64815909.617 9
  20341509.498    20341512.621   -17320840.277 9 -14872632.219 7
 90  2 22  8  6 29.0800000  0  4G 3G12G11G13
  21758440.836    21758444.799   -60657705.509 9  65918649.302 8
  20038064.179    20038066.956   -42970150.730 8  35537306.322 7
  22913590.291    22913595.839   -38808099.151 9  64837405.777 9
  20343227.768    20343229.333   -17311813.063 9 -14865598.019 9
 90  2 22  8  6 44.0800000  0  4G 3G12G11G13
  21753549.326    21753552.259   -60683411.366 9  65898618.774 8
  20039695.596    20039698.734   -42961580.142 9  35543984.689 8
  22918838.215    22918843.405   -38780521.101 8  64858895.163 9
  20344952.130    20344955.727   -17302749.434 9 -14858535.451 8
 90  2 22  8  6 59.0800000  0  4G 3G12G11G13
  21748667.343    21748669.532   -60709069.225 8  65878625.648 8
  20041355.280    20041359.312   -42952853.083 9  35550784.988 7
  22924085.410    22924089.878   -38752951.498 8  64880377.958 9
  20346683.502    20346686.736   -17293649.337 9 -14851444.467 8
 90  2 22  8  7 14.0800000  0  4G 3G12G11G13
  21743794.605    21743797.340   -60734679.010 9  65858669.979 7
  20043045.708    20043050.244   -42943969.633 8  35557707.158 8
  22929330.710    22929334.528   -38725390.377 8  64901854.157 9
  20348422.800    20348425.249   -17284512.908 9 -14844325.181 8
 90  2 22  8  7 29.0800000  0  4G 3G12G11G13
  21738929.624    21738933.559   -60760241.298 9  65838751.329 8
  20044766.531    20044770.425   -42934930.309 9  35564750.776 8
  22934572.273    22934576.836   -38697838.195 9  64923323.370 9
  20350167.857    20350170.201   -17275340.427 9 -14837177.799 7
 90  2 22  8  7 44.0800000  0  4G 3G12G11G13
  21734074.086    21734077.936   -60785756.024 9  65818869.740 9
  20046516.272    20046519.420   -42925735.430 9  35571915.611 7
  22939813.595    22939818.414   -38670295.276 8  64944785.381 9
  20351919.370    20351921.999   -17266132.635 9 -14830002.897 8
 90  2 22  8  7 59.0800000  0  4G 3G12G11G13
  21729227.791    21729231.641   -60811223.667 9  65799024.836 8
  20048295.560    20048298.813   -42916385.119 9  35579201.558 8
  22945053.056    22945058.589   -38642761.491 9  64966240.263 9
  20353679.572    20353681.193   -17256889.676 9 -14822800.591 8
 90  2 22  8  8 14.0800000  0  4G 3G12G11G13
  21724391.728    21724393.103   -60836643.976 9  65779216.809 8
  20050104.986    20050107.094   -42906879.293 9  35586608.695 7
  22950290.701    22950296.099   -38615236.759 8  64987688.091 8
  20355445.097    20355447.522   -17247611.356 9 -14815570.729 7
 90  2 22  8  8 29.0800000  0  4G 3G12G11G13
  21719562.719    21719565.782   -60862017.050 9  65759445.590 8
  20051943.636    20051945.877   -42897218.146 9  35594136.862 9
  22955527.843    22955531.960   -38587720.985 8  65009128.932 9
  20357216.102    20357220.009   -17238297.804 9 -14808313.422 9
 90  2 22  8  8 44.0800000  0  4G 3G12G11G13
  21714743.326    21714746.790   -60887343.344 9  65739710.812 8
  20053811.137    20053813.663   -42887401.920 8  35601785.860 8
  22960761.881    22960765.683   -38560214.647 6  65030562.415 9
  20358995.105    20358998.949   -17228949.488 9 -14801029.023 7
 90  2 22  8  8 59.0800000  0  4G 3G12G11G13
  21709932.448    21709935.496   -60912622.526 9  65720012.755 8
  20055708.457    20055711.671   -42877430.580 9  35609555.718 8
  22965994.765    22965998.225   -38532717.573 8  65051988.719 9
  20360781.057    20360784.835   -17219566.315 8 -14793717.465 7
 90  2 22  8  9 14.0800000  0  4G 3G12G11G13
  21705131.328    21705135.506   -60937854.546 8  65700351.449 9
  20057635.330    20057638.190   -42867304.046 8  35617446.523 8
  22971226.350    22971229.307   -38505229.487 7  65073407.995 9
  20362573.483    20362574.816   -17210148.132 9 -14786378.623 8
 90  2 22  8  9 29.0800000  0  4G 3G12G11G13
  21700338.836    21700342.527   -60963039.397 9  65680726.914 9
  20059591.238    20059595.540   -42857022.134 9  35625458.392 8
  22976454.849    22976458.167   -38477750.201 8  65094820.408 9
  20364371.982    20364373.972   -17200695.151 9 -14779012.663 7
 90  2 22  8  9 44.0800000  0  4G 3G12G11G13
  21695555.216    21695558.507   -60988177.113 9  65661139.097 9
  20061576.745    20061581.153   -42846585.101 8  35633591.134 9
  22981681.755    22981685.799   -38450279.975 8  65116225.765 8
  20366177.014    20366180.292   -17191207.521 9 -14771619.709 8
 90  2 22  8  9 59.0800000  0  4G 3G12G11G13
  21690780.396    21690784.417   -61013267.724 9  65641587.985 9
  20063593.040    20063597.545   -42835993.011 8  35641844.713 7
  22986907.815    22986911.381   -38422818.723 8  65137624.137 9
  20367990.138    20367992.967   -17181685.023 9 -14764199.596 8
 90  2 22  8 10 14.0800000  0  4G 3G12G11G13
  21686014.834    21686018.283   -61038311.701 9  65622073.218 8
  20065638.346    20065641.924   -42825246.236 9  35650218.811 8
  22992131.686    22992135.609   -38395366.830 7  65159015.210 8
  20369808.588    20369811.655   -17172128.409 8 -14756752.893 7
 90  2 22  8 10 29.0800000  0  4G 3G12G11G13
  21681258.259    21681260.591   -61063308.926 9  65602594.866 9
  20067713.134    20067716.927   -42814344.826 9  35658713.408 8
  22997353.926    22997358.329   -38367924.116 8  65180399.141 8
  20371633.617    20371637.102   -17162537.715 9 -14749279.628 7
 90  2 22  8 10 44.0800000  0  4G 3G12G11G13
  21676509.654    21676513.030   -61088259.124 9  65583153.158 8
  20069817.111    20069820.264   -42803288.651 9  35667328.600 9
  23002573.719    23002578.108   -38340490.408 8  65201776.043 7
  20373465.942    20373467.676   -17152912.805 9 -14741779.688 8
 90  2 22  8 10 59.0800000  0  4G 3G12G11G13
  21671770.020    21671774.342   -61113162.623 9  65563747.832 8
  20071950.716    20071953.980   -42792077.974 9  35676064.181 8
  23007793.282    23007796.276   -38313065.814 7  65223145.849 9
  20375303.267    20375305.898   -17143253.860 9 -14734253.238 7
 90  2 22  8 11 14.0800000  0  3G 3G12G13
  21667038.756    21667043.115   -61138019.744 9  65544378.652 8
  20074112.965    20074116.286   -42780713.255 8  35684919.806 8
  20377147.147    20377151.396   -17133561.267 9 -14726700.567 8
 90  2 22  8 11 29.0800000  0  3G 3G12G13
  21662317.711    21662322.293   -61162830.590 9  65525045.545 8
  20076305.577    20076308.899   -42769194.452 8  35693895.481 8
  20378998.312    20379000.365   -17123835.134 9 -14719121.756 8
 90  2 22  8 11 44.0800000  0  4G 3G12G19G13
  21657605.924    21657608.673   -61187594.846 9  65505748.741 9
  20078526.038    20078529.035   -42757521.486 9  35702991.292 8
                  22453587.673   -73182059.511 7
  20380855.735    20380858.761   -17114075.587 9 -14711516.929 8
 90  2 22  8 11 59.0800000  0  4G 3G12G19G13
  21652903.350    21652905.987   -61212312.634 8  65486488.142 8
  20080777.443    20080780.991   -42745694.587 9  35712207.053 8
  22447850.007    22447850.315   -73211944.352 9  92947370.852 9
  20382719.468    20382721.368   -17104282.581 9 -14703885.992 7
 90  2 22  8 12 14.0800000  0  4G 3G12G19G13
  21648208.893    21648212.201   -61236984.250 9  65467263.504 7
  20083056.723    20083060.955   -42733713.981 9  35721542.594 7
  22442185.979    22442187.303   -73241707.927 9  92924178.963 8
  20384589.221    20384592.013   -17094456.268 9 -14696229.138 7
 90  2 22  8 12 29.0800000  0  4G 3G12G19G13
  21643522.502    21643526.455   -61261609.541 9  65448074.976 8
  20085365.168    20085369.653   -42721579.706 9  35730997.859 8
  22436546.048    22436547.621   -73271350.156 9  92901081.123 8
  20386466.136    20386468.501   -17084596.899 9 -14688546.505 7
 90  2 22  8 12 44.0800000  0  4G 3G12G19G13
  21638845.043    21638847.950   -61286188.950 9  65428922.197 8
  20087704.018    20087708.412   -42709292.115 9  35740572.599 9
  22430927.086    22430929.231   -73300871.008 9  92878077.854 8
  20388346.529    20388351.301   -17074704.702 9 -14680838.314 7
 90  2 22  8 12 59.0800000  0  4G 3G12G19G13
  21634174.837    21634179.261   -61310722.603 9  65409805.075 8
  20090071.291    20090076.023   -42696851.311 9  35750266.723 8
  22425332.063    22425335.527   -73330270.450 9  92855169.199 9
  20390236.198    20390237.736   -17064779.896 9 -14673104.684 8
 90  2 22  8 13 14.0800000  0  4G 3G12G19G13
  21629515.393    21629519.188   -61335210.357 9  65390723.743 7
  20092467.709    20092472.181   -42684257.371 9  35760080.175 9
  22419761.495    22419763.864   -73359548.147 9  92832355.411 9
  20392131.064    20392133.215   -17054822.521 9 -14665345.709 8
 90  2 22  8 13 29.0800000  0  4G 3G12G19G13
  21624865.134    21624867.899   -61359652.527 9  65371677.900 8
  20094893.827    20094897.210   -42671510.630 9  35770012.692 9
  22414212.019    22414215.796   -73388703.982 9  92809636.566 9
  20394031.833    20394034.758   -17044832.877 9 -14657561.553 7
 90  2 22  8 13 44.0800000  0  4G 3G12G19G13
  21620223.634    21620225.423   -61384049.199 9  65352667.512 9
  20097349.261    20097352.012   -42658611.303 9  35780064.104 8
  22408687.320    22408691.426   -73417738.160 9  92787012.535 8
  20395938.905    20395941.587   -17034811.300 9 -14649752.525 7
 90  2 22  8 13 59.0800000  0  4G 3G12G19G13
  21615589.401    21615591.964   -61408400.472 9  65333692.488 9
  20099832.946    20099836.193   -42645559.480 9  35790234.351 8
  22403186.272    22403188.819   -73446650.050 9  92764483.788 9
  20397852.576    20397854.142   -17024757.669 9 -14641918.547 8
 90  2 22  8 14 14.0800000  0  4G 3G12G19G13
  21610963.425    21610967.091   -61432706.127 9  65314753.014 9
  20102345.016    20102349.164   -42632355.128 9  35800523.448 9
  22397708.321    22397710.309   -73475439.318 9  92742050.589 9
  20399771.085    20399774.549   -17014671.901 9 -14634059.517 8
 90  2 22  8 14 29.0800000  0  4G 3G12G19G13
  21606346.794    21606351.203   -61456966.369 9  65295848.943 9
  20104886.347    20104889.847   -42618998.411 9  35810931.271 7
  22392252.656    22392254.444   -73504106.003 9  92719712.919 8
  20401696.534    20401700.003   -17004554.309 9 -14626175.675 7
 90  2 22  8 14 44.0800000  0  4G 3G12G19G13
  21601738.889    21601743.243   -61481181.496 9  65276980.018 8
  20107456.886    20107460.358   -42605489.706 9  35821457.523 8
  22386821.139    22386823.370   -73532649.930 8  92697470.896 9
  20403628.379    20403630.819   -16994405.315 9 -14618267.375 7
 90  2 22  8 14 59.0800000  0  4G 3G12G19G13
  21597138.556    21597143.382   -61505351.484 9  65258146.278 7
  20110056.778    20110061.273   -42591828.985 9  35832102.235 8
  22381412.392    22381415.411   -73561070.632 9  92675324.897 9
  20405565.511    20405568.197   -16984224.765 9 -14610334.481 8
 90  2 22  8 15 14.0800000  0  4G 3G12G19G13
  21592549.156    21592552.677   -61529476.293 8  65239347.744 8
  20112685.579    20112688.784   -42578016.367 9  35842865.313 8
  22376027.572    22376029.610   -73589368.050 9  92653274.977 8
  20407507.959    20407511.166   -16974012.973 9 -14602377.244 7
 90  2 22  8 15 29.0800000  0  4G 3G12G19G13
  21587966.223    21587969.988   -61553555.966 9  65220584.376 9
  20115342.109    20115346.017   -42564052.068 9  35853746.575 8
  22370665.760    22370669.114   -73617542.261 9  92631321.043 8
  20409456.739    20409460.269   -16963769.828 9 -14594395.558 7
 90  2 22  8 15 44.0800000  0  4G 3G12G19G13
  21583393.032    21583395.482   -61577590.737 9  65201855.992 9
  20118027.830    20118031.877   -42549936.326 9  35864745.848 7
  22365327.910    22365331.437   -73645592.931 9  92609463.379 8
  20411412.823    20411416.223   -16953495.307 9 -14586389.430 7
 90  2 22  8 15 59.0800000  0  4G 3G12G19G13
  21578827.500    21578831.593   -61601580.953 9  65183162.326 8
  20120743.384    20120746.117   -42535669.495 9  35875862.852 8
  22360013.491    22360017.655   -73673519.714 9  92587702.250 9
  20413373.892    20413376.406   -16943189.902 9 -14578359.243 7
 90  2 22  8 16 14.0800000  0  4G 3G12G19G13
  21574270.050    21574273.774   -61625526.576 9  65164503.414 9
  20123486.399    20123490.004   -42521251.758 8  35887097.443 8
  22354723.863    22354726.560   -73701322.768 8  92566037.529 9
  20415341.559    20415344.329   -16932854.102 9 -14570305.380 8
 90  2 22  8 16 29.0800000  0  4G 3G12G19G13
  21569722.090    21569725.912   -61649427.714 8  65145879.163 9
  20126259.567    20126262.939   -42506683.239 9  35898449.524 8
  22349456.242    22349459.990   -73729001.673 9  92544469.544 8
  20417312.908    20417316.530   -16922488.033 9 -14562227.934 7
 90  2 22  8 16 44.0800000  0  4G 3G12G19G13
  21565182.355    21565186.349   -61673284.700 9  65127289.314 9
  20129060.570    20129063.463   -42491964.328 9  35909918.797 8
  22344213.096    22344216.545   -73756556.751 8  92522998.075 8
  20419292.123    20419294.032   -16912091.798 9 -14554126.965 8
 90  2 22  8 16 59.0800000  0  4G 3G12G19G13
  21560650.991    21560655.402   -61697097.608 9  65108733.827 8
  20131889.523    20131892.640   -42477095.103 9  35921505.202 8
  22338992.324    22338996.073   -73783987.812 8  92501623.220 8
  20421276.235    20421277.595   -16901665.378 9 -14546002.486 7
 90  2 22  8 17 14.0800000  0  4G 3G12G19G13
  21556128.930    21556131.665   -61720866.121 9  65090212.911 9
  20134748.026    20134750.823   -42462075.376 9  35933208.875 8
  22333797.258    22333799.569   -73811294.118 8  92480345.590 9
  20423266.109    20423267.145   -16891208.497 9 -14537854.260 7
 90  2 22  8 17 29.0800000  0  4G 3G12G19G13
  21551614.108    21551616.571   -61744590.481 9  65071726.408 8
  20137634.970    20137636.843   -42446905.558 9  35945029.518 9
  22328624.092    22328627.226   -73838475.660 9  92459165.170 9
  20425262.521    20425264.784   -16880721.541 9 -14529682.620 7
 90  2 22  8 17 44.0800000  0  4G 3G12G19G13
  21547107.656    21547110.778   -61768270.992 9  65053274.067 8
  20140549.206    20140552.423   -42431586.010 9  35956966.814 8
  22323474.593    22323477.957   -73865532.670 9  92438081.798 9
  20427263.228    20427265.221   -16870204.917 9 -14521487.855 8
 90  2 22  8 17 59.0800000  0  4G 3G12G19G13
  21542608.718    21542612.827   -61791907.815 9  65034855.771 9
  20143493.190    20143496.979   -42416116.995 9  35969020.576 7
  22318350.201    22318353.070   -73892464.993 8  92417095.567 9
  20429269.147    20429271.707   -16859658.924 9 -14513270.190 8
 90  2 22  8 18 14.0800000  0  4G 3G12G19G13
  21538120.411    21538123.777   -61815500.672 9  65016471.741 8
  20146465.204    20146469.344   -42400498.363 9  35981190.934 8
  22313247.427    22313251.329   -73919271.921 8  92396207.055 9
  20431281.331    20431283.363   -16849083.510 9 -14505029.610 8
 90  2 22  8 18 29.0800000  0  4G 3G12G19G13
  21533638.816    21533642.023   -61839049.645 9  64998121.912 8
  20149466.395    20149470.673   -42384730.356 9  35993477.678 7
  22308170.236    22308174.699   -73945953.474 8  92375416.245 9
  20433299.371    20433303.064   -16838478.569 9 -14496766.010 7
 90  2 22  8 18 44.0800000  0  4G 3G12G19G13
  21529166.033    21529169.427   -61862554.970 9  64979806.087 8
  20152495.521    20152498.263   -42368813.308 9  36005880.569 7
  22303117.910    22303120.780   -73972509.560 8  92354723.210 8
  20435323.796    20435325.296   -16827844.683 9 -14488479.868 7
 90  2 22  8 18 59.0800000  0  4G 3G12G19G13
  21524701.909    21524704.989   -61886016.553 9  64961524.333 8
  20155553.127    20155556.285   -42352747.214 9  36018399.575 8
  22298088.931    22298090.998   -73998939.962 9  92334128.095 8
  20437353.141    20437355.587   -16817181.693 9 -14480171.053 7
 90  2 22  8 19 14.0800000  0  4G 3G12G19G13
  21520245.026    21520248.163   -61909434.693 9  64943276.440 8
  20158638.179    20158642.041   -42336532.353 9  36031034.537 7
  22293083.110    22293086.330   -74025244.170 9  92313631.306 8
  20439387.215    20439388.580   -16806489.863 9 -14471839.755 7
 90  2 22  8 19 29.0800000  0  4G 3G12G19G13
  21515796.942    21515800.608   -61932809.687 9  64925062.178 7
  20161752.486    20161755.916   -42320169.009 9  36043785.183 7
  22288101.974    22288104.242   -74051422.640 9  92293232.501 8
  20441427.519    20441429.980   -16795769.457 9 -14463486.200 8
 90  2 22  8 19 44.0800000  0  4G 3G12G19G13
  21511357.186    21511359.692   -61956141.237 9  64906881.747 8
  20164894.285    20164897.352   -42303657.135 8  36056651.571 7
  22283145.149    22283147.072   -74077474.757 9  92272932.149 8
  20443473.744    20443474.181   -16785020.273 9 -14455110.205 9
 90  2 22  8 19 59.0800000  0  4G 3G12G19G13
  21506925.086    21506927.219   -61979429.508 9  64888735.048 8
  20168063.453    20168067.626   -42286996.996 9  36069633.494 8
  22278210.480    22278214.037   -74103400.708 9  92252730.108 8
  20445523.822    20445526.437   -16774242.224 9 -14446711.729 8
 90  2 22  8 20 14.0800000  0  4G 3G12G19G13
  21502501.857    21502503.993   -62002674.465 9  64870622.091 8
  20171261.701    20171266.622   -42270188.804 8  36082730.768 8
  22273300.568    22273304.211   -74129200.100 8  92232626.694 9
  20447579.674    20447582.729   -16763435.652 9 -14438291.034 7
 90  2 22  8 20 29.0800000  0  4G 3G12G19G13
  21498086.184    21498089.748   -62025876.574 9  64852542.521 8
  20174488.020    20174493.295   -42253232.788 9  36095943.225 8
  22268416.192    22268418.730   -74154872.896 9  92212621.911 8
  20449640.953    20449644.152   -16752600.970 9 -14429848.423 8
 90  2 22  8 20 44.0800000  0  4G 3G12G19G13
  21493680.298    21493683.119   -62049035.699 9  64834496.461 8
  20177742.661    20177748.207   -42236129.284 9  36109270.621 8
  22263554.487    22263557.550   -74180418.898 9  92192715.923 8
  20451708.442    20451711.614   -16741738.202 9 -14421383.927 8
 90  2 22  8 20 59.0800000  0  4G 3G12G19G13
  21489281.323    21489284.989   -62072151.716 9  64816483.993 9
  20181026.907    20181030.702   -42218878.077 9  36122713.130 9
  22258717.250    22258720.491   -74205837.578 9  92172909.155 9
  20453781.421    20453783.756   -16730847.235 9 -14412897.452 7
 90  2 22  8 21 14.0800000  0  4G 3G12G19G13
  21484890.733    21484892.781   -62095224.905 9  64798504.867 8
  20184336.989    20184340.965   -42201479.482 9  36136270.456 8
  22253904.655    22253907.222   -74231128.867 9  92153201.660 8
  20455859.195    20455861.123   -16719928.102 8 -14404389.053 8
 90  2 22  8 21 29.0800000  0  4G 3G12G19G13
  21480507.700    21480512.252   -62118255.326 9  64780559.097 8
  20187675.904    20187680.395   -42183934.105 8  36149942.174 8
  22249115.799    22249119.024   -74256293.068 7  92133593.197 8
  20457942.578    20457945.318   -16708981.381 8 -14395859.140 8
 90  2 22  8 21 44.0800000  0  4G 3G12G19G13
  21476133.438    21476136.216   -62141243.335 9  64762646.366 9
  20191043.258    20191047.848   -42166241.938 9  36163728.274 8
  22244351.538    22244354.543   -74281329.760 8  92114084.102 8
  20460031.373    20460033.591   -16698007.130 9 -14387307.760 7
 90  2 22  8 21 59.0800000  0  4G 3G12G19G13
  21471766.387    21471771.140   -62164188.609 9  64744766.954 8
  20194438.776    20194441.139   -42148402.975 9  36177628.745 8
  22239611.318    22239614.216   -74306238.550 9  92094674.663 8
  20462123.484    20462125.984   -16687005.026 9 -14378734.698 7
 90  2 22  8 22 14.0800000  0  4G 3G12G19G13
  21467407.506    21467411.901   -62187091.165 9  64726920.829 8
  20197860.588    20197863.341   -42130417.386 9  36191643.499 8
  22234896.010    22234898.881   -74331019.116 9  92075365.122 8
  20464223.213    20464225.685   -16675975.346 9 -14370140.154 8
 90  2 22  8 22 29.0800000  0  4G 3G12G19G13
  21463058.140    21463061.908   -62209951.342 9  64709107.735 8
  20201311.065    20201314.371   -42112285.664 9  36205772.095 8
  22230204.485    22230207.484   -74355671.821 9  92056155.219 8
  20466326.752    20466329.582   -16664918.589 9 -14361524.489 7
 90  2 22  8 22 44.0800000  0  4G 3G12G19G13
  21458717.104    21458719.525   -62232769.588 9  64691327.287 8
  20204788.409    20204793.048   -42094008.243 9  36220014.238 8
  22225537.972    22225540.476   -74380197.055 9  92037044.643 7
  20468436.768    20468439.075   -16653834.884 9 -14352887.839 9
 90  2 22  8 22 59.0800000  0  4G 3G12G19G13
  21454383.237    21454384.841   -62255545.542 9  64673579.792 8
  20208295.111    20208298.194   -42075585.167 9  36234369.879 8
  22220894.712    22220897.874   -74404594.220 9  92018033.869 8
  20470550.612    20470553.728   -16642723.994 9 -14344230.021 8
 90  2 22  8 23 14.0800000  0  4G 3G12G19G13
  21450056.037    21450059.344   -62278279.413 9  64655865.078 8
  20211828.253    20211832.246   -42057016.613 9  36248838.880 8
  22216277.329    22216280.119   -74428863.172 8  91999122.986 8
  20472670.017    20472672.647   -16631586.197 9 -14335551.204 8
 90  2 22  8 23 29.0800000  0  4G 3G12G19G13
  21445737.750    21445741.461   -62300971.651 9  64638182.819 8
  20215389.577    20215392.712   -42038303.043 9  36263420.873 8
  22211683.528    22211685.654   -74453003.698 9  91980312.193 8
  20474794.443    20474796.973   -16620421.822 9 -14326851.688 8
 90  2 22  8 23 44.0800000  0  4G 3G12G19G13
  21441427.252    21441430.645   -62323622.315 9  64620532.957 9
  20218977.196    20218982.318   -42019444.839 9  36278115.563 8
  22207113.438    22207117.000   -74477015.997 9  91961601.308 9
  20476924.226    20476927.465   -16609231.190 8 -14318131.723 8
 90  2 22  8 23 59.0800000  0  4G 3G12G19G13
  21437125.665    21437129.502   -62346231.409 9  64602915.501 9
  20222594.335    20222596.683   -42000442.008 9  36292922.956 7
  22202568.016    22202572.260   -74500899.732 9  91942990.602 8
  20479058.686    20479060.979   -16598014.122 8 -14309391.143 7
 90  2 22  8 24 14.0800000  0  4G 3G12G19G13
  21432830.490    21432834.828   -62368798.772 9  64585330.563 8
  20226237.760    20226241.308   -41981294.592 9  36307843.019 8
  22198047.906    22198051.555   -74524654.570 9  91924480.341 8
  20481198.465    20481200.950   -16586770.615 9 -14300629.983 8
 90  2 22  8 24 29.0800000  0  4G 3G12G19G13
  21428544.484    21428547.852   -62391324.592 9  64567777.994 7
  20229909.486    20229912.614   -41962002.849 8  36322875.543 8
  22193552.789    22193555.752   -74548280.263 9  91906070.716 9
  20483343.448    20483345.932   -16575500.716 9 -14291848.226 7
 90  2 22  8 24 44.0800000  0  4G 3G12G19G13
  21424265.322    21424269.174   -62413808.780 9  64550257.854 9
  20233607.938    20233610.726   -41942567.005 8  36338020.348 7
  22189082.548    22189084.023   -74571776.810 9  91887761.730 7
  20485491.989    20485496.010   -16564204.672 9 -14283046.118 8
 90  2 22  8 24 59.0800000  0  4G 3G12G19G13
  21419994.457    21419996.649   -62436251.666 9  64532769.896 8
  20237332.956    20237336.668   -41922987.312 9  36353277.245 8
  22184635.295    22184637.777   -74595144.065 9  91869553.480 8
  20487645.866    20487649.730   -16552882.919 8 -14274223.978 7
 90  2 22  8 25 14.0800000  0  4G 3G12G19G13
  21415732.108    21415733.968   -62458652.991 9  64515314.320 8
  20241086.322    20241090.103   -41903263.760 9  36368646.230 8
  22180212.231    22180215.128   -74618381.855 9  91851446.120 8
  20489805.642    20489808.600   -16541535.041 9 -14265381.490 8
 90  2 22  8 25 29.0800000  0  4G 3G12G19G13
  21411476.940    21411479.533   -62481012.918 9  64497890.995 8
  20244866.798    20244871.495   -41883396.432 9  36384127.260 8
  22175815.204    22175818.837   -74641489.817 9  91833439.910 8
  20491970.711    20491973.613   -16530161.105 8 -14256518.671 7
 90  2 22  8 25 44.0800000  0  4G 3G12G19G13
  21407230.430    21407232.078   -62503331.562 8  64480499.836 7
  20248675.384    20248678.601   -41863385.718 9  36399720.004 8
  22171442.744    22171446.113   -74664467.892 9  91815534.910 8
  20494139.760    20494142.664   -16518761.393 9 -14247635.779 7
 90  2 22  8 25 59.0800000  0  4G 3G12G19G13
  21402991.160    21402994.238   -62525609.200 8  64463140.648 8
  20252509.449    20252513.260   -41843232.195 9  36415424.058 8
  22167094.975    22167099.302   -74687316.105 9  91797731.106 9
  20496313.047    20496317.873   -16507336.276 9 -14238733.103 7
 90  2 22  8 26 14.0800000  0  4G 3G12G19G13
  21398759.474    21398762.409   -62547846.174 9  64445813.151 8
  20256371.708    20256375.388   -41822936.309 9  36431239.019 8
  22162772.240    22162775.338   -74710034.822 9  91780028.212 8
  20498492.896    20498494.890   -16495886.177 9 -14229810.942 8
 90  2 22  8 26 29.0800000  0  4G 3G12G19G13
  21394535.186    21394538.080   -62570042.422 9  64428517.384 8
  20260261.828    20260265.338   -41802498.128 9  36447164.867 8
  22158473.702    22158476.921   -74732623.474 9  91762426.663 8
  20500676.439    20500679.074   -16484410.803 9 -14220869.090 8
 90  2 22  8 26 44.0800000  0  4G 3G12G19G13
  21390318.625    21390323.221   -62592197.862 9  64411253.413 8
  20264178.465    20264181.121   -41781917.795 9  36463201.486 8
  22154200.191    22154203.482   -74755081.904 9  91744926.583 9
  20502865.363    20502867.886   -16472910.205 9 -14211907.589 7
 90  2 22  8 26 59.0800000  0  4G 3G12G19G13
  21386110.936    21386113.628   -62614312.393 9  64394021.310 9
  20268121.235    20268125.130   -41761195.437 9  36479348.769 8
  22149950.698    22149954.325   -74777410.126 9  91727527.968 8
  20505058.411    20505061.123   -16461384.445 9 -14202926.472 8
 90  2 22  8 27 14.0800000  0  4G 3G12G19G13
  21381910.587    21381913.050   -62636386.319 9  64376820.859 8
  20272090.937    20272095.158   -41740331.166 9  36495606.634 7
  22145726.940    22145730.074   -74799607.558 9  91710231.268 8
  20507256.876    20507258.755   -16449833.801 9 -14193925.978 9
 90  2 22  8 27 29.0800000  0  4G 3G12G19G13
  21377716.820    21377721.059   -62658419.426 9  64359652.204 8
  20276089.245    20276091.162   -41719325.177 9  36511974.936 8
  22141527.442    22141530.699   -74821674.326 9  91693036.378 9
  20509459.089    20509461.705   -16438258.126 9 -14184905.965 8
 90  2 22  8 27 44.0800000  0  4G 3G12G19G13
  21373532.571    21373535.992   -62680411.727 8  64342515.361 8
  20280113.917    20280116.637   -41698177.618 9  36528453.543 9
  22137353.323    22137356.744   -74843610.110 9  91675943.552 9
  20511666.647    20511670.278   -16426657.442 9 -14175866.469 9
 90  2 22  8 27 59.0800000  0  4G 3G12G19G13
  21369354.974    21369358.166   -62702363.463 9  64325410.116 8
  20284164.425    20284167.510   -41676888.826 9  36545042.213 8
  22133203.638    22133207.293   -74865414.743 9  91658952.933 8
  20513878.872    20513882.022   -16415031.993 9 -14166807.702 7
 90  2 22  8 28 14.0800000  0  4G 3G12G19G13
  21365186.305    21365189.469   -62724275.241 8  64308336.009 8
  20288241.301    20288246.071   -41655459.413 9  36561740.453 8
  22129079.328    22129082.326   -74887088.685 9  91642064.151 8
  20516095.256    20516099.861   -16403382.301 9 -14157730.012 8
 90  2 22  8 28 29.0800000  0  4G 3G12G19G13
  21361023.375    21361025.636   -62746147.046 9  64291293.033 8
  20292346.228    20292351.300   -41633889.792 9  36578547.928 8
  22124980.131    22124983.021   -74908631.884 9  91625277.242 9
  20518316.300    20518320.698   -16391708.597 9 -14148633.615 7
 90  2 22  8 28 44.0800000  0  4G 3G12G19G13
  21356869.917    21356871.679   -62767978.940 9  64274281.172 8
  20296477.991    20296481.557   -41612180.084 8  36595464.595 8
  22120905.324    22120908.086   -74930044.120 9  91608592.389 7
  20520542.800    20520545.237   -16380010.876 9 -14139518.504 8
 90  2 22  8 28 59.0800000  0  4G 3G12G19G13
  21352722.497    21352724.731   -62789771.371 9  64257300.070 8
  20300635.256    20300638.513   -41590330.742 9  36612490.050 7
  22116856.524    22116858.721   -74951325.340 9  91592009.613 8
  20522772.905    20522775.817   -16368289.462 9 -14130384.926 8
 90  2 22  8 29 14.0800000  0  4G 3G12G19G13
  21348582.848    21348586.686   -62811524.406 8  64240349.663 7
  20304820.005    20304823.106   -41568342.202 9  36629623.959 7
  22112831.664    22112833.990   -74972475.679 9  91575528.834 9
  20525009.086    20525011.462   -16356544.546 9 -14121233.044 7
 90  2 22  8 29 29.0800000  0  4G 3G12G19G13
  21344450.769    21344454.392   -62833238.245 9  64223429.797 8
  20309030.270    20309033.767   -41546214.709 8  36646866.146 8
  22108831.609    22108834.707   -74993495.283 9  91559149.917 9
  20527248.349    20527250.219   -16344776.344 9 -14112063.014 8
 90  2 22  8 29 44.0800000  0  4G 3G12G19G13
  21340326.030    21340329.796   -62854912.576 9  64206540.712 8
  20313268.085    20313270.223   -41523948.179 9  36664216.686 8
  22104856.825    22104859.149   -75014383.358 9  91542873.499 8
  20529492.266    20529495.332   -16332984.528 9 -14102874.570 8
 90  2 22  8 29 59.0800000  0  4G 3G12G19G13
  21336210.592    21336212.040   -62876547.298 9  64189682.502 8
  20317531.485    20317534.767   -41501542.553 9  36681675.614 8
  22100906.228    22100909.863   -75035139.830 9  91526699.618 9
  20531740.245    20531743.607   -16321169.003 9 -14093667.682 9
 90  2 22  8 30 14.0800000  0  4G 3G12G19G13
  21332099.991    21332102.841   -62898142.477 9  64172855.083 8
  20321821.438    20321826.054   -41478998.314 9  36699242.536 7
  22096982.369    22096984.717   -75055764.409 9  91510628.522 8
  20533993.187    20533996.618   -16309329.891 9 -14084442.413 8
 90  2 22  8 30 29.0800000  0  4G 3G12G19G13
  21327997.490    21328001.167   -62919698.235 9  64156058.401 8
  20326137.553    20326142.215   -41456315.670 9  36716917.322 7
  22093082.915    22093085.562   -75076257.029 9  91494660.249 8
  20536250.559    20536253.696   -16297467.223 9 -14075198.782 8
 90  2 22  8 30 44.0800000  0  4G 3G12G19G13
  21323903.343    21323906.908   -62941214.492 9  64139292.483 8
  20330481.171    20330483.833   -41433494.741 9  36734699.858 8
  22089207.743    22089210.318   -75096617.612 9  91478794.859 8
  20538512.499    20538516.106   -16285581.163 9 -14065936.916 7
 90  2 22  8 30 59.0800000  0  4G 3G12G19G13
  21319816.480    21319819.888   -62962691.636 9  64122557.057 8
  20334849.309    20334852.923   -41410536.003 9  36752589.772 8
  22085358.269    22085361.311   -75116846.186 9  91463032.337 8
  20540778.839    20540781.582   -16273671.917 9 -14056656.985 8
 90  2 22  8 31 14.0800000  0  4G 3G12G19G13
  21315736.586    21315740.309   -62984129.813 9  64105851.989 8
  20339244.528    20339248.110   -41387439.885 9  36770586.732 8
  22081534.089    22081537.216   -75136942.395 9  91447372.953 9
  20543048.878    20543052.928   -16261739.909 9 -14047359.322 7
 90  2 22  8 31 29.0800000  0  4G 3G12G19G13
  21311664.533    21311668.371   -63005529.100 9  64089177.212 8
  20343665.228    20343669.330   -41364206.493 9  36788690.664 8
  22077735.128    22077736.516   -75156906.682 9  91431816.371 8
  20545323.886    20545326.869   -16249785.082 9 -14038043.876 7
 90  2 22  8 31 44.0800000  0  4G 3G12G19G13
  21307599.606    21307603.559   -63026889.578 9  64072532.707 8
  20348112.991    20348116.699   -41340836.263 9  36806901.227 8
  22073961.208    22073964.262   -75176738.767 9  91416362.798 8
  20547603.534    20547607.305   -16237807.486 8 -14028710.663 8
 90  2 22  8 31 59.0800000  0  4G 3G12G19G13
  21303543.295    21303545.243   -63048211.345 9  64055918.345 9
  20352585.992    20352590.074   -41317329.425 9  36825218.239 7
  22070212.651    22070216.328   -75196438.325 9  91401012.492 8
  20549887.768    20549889.605   -16225807.320 9 -14019359.883 8
 90  2 22  8 32 14.0800000  0  4G 3G12G19G13
  21299492.935    21299494.397   -63069494.631 9  64039333.959 9
  20357085.775    20357088.603   -41293686.314 9  36843641.424 9
  22066489.400    22066491.904   -75216005.583 9  91385765.286 8
  20552175.360    20552178.612   -16213784.837 9 -14009991.716 7
 90  2 22  8 32 29.0800000  0  4G 3G12G19G13
  21295449.672    21295452.193   -63090739.396 9  64022779.606 8
  20361610.424    20361613.749   -41269907.139 9  36862170.646 8
  22062791.820    22062793.515   -75235440.627 9  91370621.090 8
  20554467.686    20554469.631   -16201740.205 9 -14000606.297 7
 90  2 22  8 32 44.0800000  0  4G 3G12G19G13
  21291414.954    21291417.116   -63111945.947 9  64006255.015 8
  20366161.005    20366164.679   -41245992.416 9  36880805.491 7
  22059118.142    22059120.940   -75254742.901 9  91355580.352 8
  20556763.414    20556766.068   -16189673.434 9 -13991203.617 8
 90  2 22  8 32 59.0800000  0  4G 3G12G19G13
  21287386.429    21287388.563   -63133114.502 9  63989760.044 8
  20370738.567    20370741.643   -41221942.454 9  36899545.704 8
  22055470.651    22055471.782   -75273912.814 9  91340642.768 8
  20559064.257    20559067.384   -16177584.616 9 -13981783.764 7
 90  2 22  8 33 14.0800000  0  4G 3G12G19G13
  21283365.302    21283368.165   -63154245.078 9  63973294.667 8
  20375339.964    20375343.191   -41197757.721 9  36918390.954 6
  22051847.836    22051849.488   -75292950.293 9  91325808.358 9
  20561368.627    20561371.482   -16165474.195 9 -13972347.074 7
 90  2 22  8 33 29.0800000  0  4G 3G12G19G13
  21279351.946    21279354.638   -63175337.585 9  63956858.964 9
  20379968.144    20379971.810   -41173438.092 9  36937341.313 8
  22048250.148    22048252.301   -75311855.206 8  91311077.247 8
  20563677.575    20563679.622   -16153342.026 9 -13962893.447 7
 90  2 22  8 33 44.0800000  0  4G 3G12G19G13
  21275345.301    21275348.035   -63196392.409 9  63940452.613 8
  20384621.816    20384625.201   -41148983.984 9  36956396.452 8
  22044678.267    22044679.576   -75330627.448 9  91296449.515 8
  20565990.227    20565993.351   -16141188.053 9 -13953422.830 7
 90  2 22  8 33 59.0800000  0  4G 3G12G19G13
  21271346.054    21271348.817   -63217409.474 9  63924075.675 8
  20389300.646    20389304.391   -41124395.656 8  36975556.173 8
  22041130.275    22041133.858   -75349266.745 9  91281925.370 9
  20568307.559    20568308.499   -16129012.582 9 -13943935.457 7
 90  2 22  8 34 14.0800000  0  4G 3G12G19G13
  21267352.946    21267356.868   -63238388.831 9  63907728.144 7
  20394004.330    20394009.397   -41099673.541 8  36994820.148 9
  22037607.889    22037611.401   -75367773.198 9  91267504.754 8
  20570628.494    20570630.159   -16116815.749 9 -13934431.418 8
 90  2 22  8 34 29.0800000  0  4G 3G12G19G13
  21263369.052    21263370.442   -63259330.677 9  63891409.844 8
  20398734.935    20398738.535   -41074817.888 8  37014188.169 8
  22034112.440    22034115.029   -75386146.646 9  91253187.785 9
  20572953.296    20572955.968   -16104597.491 9 -13924910.705 7
 90  2 22  8 34 44.0800000  0  4G 3G12G19G13
  21259390.323    21259391.913   -63280234.962 8  63875120.772 8
  20403489.948    20403493.655   -41049828.945 8  37033660.069 8
  22030641.173    22030644.185   -75404386.921 9  91238974.575 8
  20575281.630    20575284.516   -16092358.010 9 -13915373.440 8
 90  2 22  8 34 59.0800000  0  4G 3G12G19G13
  21255419.580    21255421.572   -63301101.760 9  63858860.932 8
  20408269.816    20408275.017   -41024706.859 9  37053235.695 8
  22027195.521    22027197.537   -75422494.004 9  91224865.168 8
  20577614.790    20577619.842   -16080097.311 9 -13905819.656 7
 90  2 22  8 35 14.0800000  0  4G 3G12G19G13
  21251456.436    21251459.013   -63321931.071 9  63842630.308 9
  20413076.432    20413080.007   -40999452.029 9  37072914.773 8
  22023775.960    22023777.492   -75440467.965 8  91210859.476 8
  20579952.096    20579955.017   -16067815.578 8 -13896249.482 8
 90  2 22  8 35 29.0800000  0  4G 3G12G19G13
  21247499.471    21247502.294   -63342723.479 9  63826428.424 7
  20417906.979    20417911.325   -40974065.035 9  37092696.833 8
  22020380.640    22020382.579   -75458308.623 9  91196957.666 8
  20582293.736    20582296.179   -16055513.132 8 -13886663.175 8
 90  2 22  8 35 44.0800000  0  4G 3G12G19G13
  21243550.149    21243552.984   -63363478.745 9  63810255.506 7
  20422762.984    20422767.905   -40948546.040 9  37112581.741 8
  22017011.156    22017013.022   -75476015.995 9  91183159.702 7
  20584637.896    20584641.163   -16043190.094 9 -13877060.793 7
 90  2 22  8 35 59.0800000  0  4G 3G12G19G13
  21239607.938    21239610.602   -63384196.845 9  63794111.527 8
  20427644.175    20427648.970   -40922895.114 9  37132569.465 8
  22013666.017    22013669.508   -75493589.748 9  91169465.863 8
  20586987.842    20586991.044   -16030846.323 9 -13867442.278 7
 90  2 22  8 36 14.0800000  0  4G 3G12G19G13
  21235672.296    21235674.802   -63404878.034 9  63777996.333 9
  20432550.397    20432554.778   -40897112.656 8  37152659.685 8
  22010347.588    22010350.901   -75511030.033 9  91155876.040 8
  20589340.720    20589342.092   -16018481.913 8 -13857807.671 8
 90  2 22  8 36 29.0800000  0  4G 3G12G19G13
  21231744.150    21231746.042   -63425522.265 9  63761909.930 8
  20437481.133    20437485.321   -40871198.974 9  37172852.151 8
  22007054.793    22007057.632   -75528337.034 9  91142390.064 9
  20591697.523    20591699.837   -16006096.920 9 -13848157.026 8
 90  2 22  8 36 44.0800000  0  4G 3G12G19G13
  21227821.614    21227824.750   -63446129.765 9  63745852.138 8
  20442438.561    20442441.665   -40845154.279 8  37193146.720 8
  22003787.398    22003789.450   -75545510.266 9  91129008.329 8
  20594058.592    20594059.858   -15993691.457 9 -13838490.436 8
 90  2 22  8 36 59.0800000  0  4G 3G12G19G13
  21223907.522    21223909.183   -63466700.674 9  63729822.871 8
  20447419.177    20447423.332   -40818978.965 9  37213543.058 7
  22000544.913    22000546.372   -75562549.760 9  91115730.805 8
  20596422.311    20596425.161   -15981265.740 9 -13828808.056 8
 90  2 22  8 37 14.0800000  0  4G 3G12G19G13
  21219999.308    21220001.772   -63487234.823 9  63713822.232 8
  20452425.524    20452429.206   -40792673.231 9  37234041.028 8
  21997327.663    21997329.560   -75579455.418 9  91102557.566 8
  20598790.325    20598793.950   -15968819.555 8 -13819109.734 8
 90  2 22  8 37 29.0800000  0  4G 3G12G19G13
  21216099.066    21216102.832   -63507732.275 9  63697850.199 7
  20457455.399    20457458.527   -40766237.226 9  37254640.494 8
  21994135.146    21994137.744   -75596227.041 9  91089488.776 9
  20601162.195    20601165.574   -15956353.052 9 -13809395.570 8
 90  2 22  8 37 44.0800000  0  4G 3G12G19G13
  21212205.722    21212208.212   -63528193.070 9  63681906.727 8
  20462511.006    20462513.797   -40739671.403 8  37275341.129 7
  21990970.105    21990972.709   -75612864.463 9  91076524.539 9
  20603538.822    20603541.027   -15943866.323 9 -13799665.667 8
 90  2 22  8 37 59.0800000  0  4G 3G12G19G13
  21208318.215    21208321.265   -63548617.139 9  63665991.882 8
  20467591.266    20467594.960   -40712975.778 9  37296142.912 8
  21987829.080    21987832.465   -75629367.411 9  91063665.095 8
  20605919.365    20605922.671   -15931359.029 9 -13789919.723 7
 90  2 22  8 38 14.0800000  0  4G 3G12G19G13
  21204438.793    21204442.387   -63569004.677 9  63650105.495 8
  20472695.209    20472699.147   -40686150.776 9  37317045.506 7
  21984713.861    21984717.527   -75645736.077 9  91050910.290 8
  20608303.213    20608305.651   -15918831.547 9 -13780158.045 8
 90  2 22  8 38 29.0800000  0  4G 3G12G19G13
  21200566.253    21200568.802   -63589355.865 9  63634247.441 9
  20477824.451    20477827.904   -40659196.874 9  37338048.523 8
  21981624.573    21981628.495   -75661970.820 9  91038259.834 8
  20610690.521    20610692.850   -15906284.189 9 -13770380.895 7
 90  2 22  8 38 44.0800000  0  4G 3G12G19G13
  21196700.311    21196702.944   -63609670.877 9  63618417.567 8
  20482978.468    20482981.744   -40632114.402 9  37359151.748 9
  21978560.310    21978564.351   -75678071.236 9  91025714.056 9
  20613081.534    20613084.854   -15893717.003 8 -13760588.280 7
 90  2 22  8 38 59.0800000  0  4G 3G12G19G13
  21192842.023    21192845.274   -63629949.680 9  63602615.904 8
  20488156.361    20488160.032   -40604903.464 8  37380355.077 8
  21975523.313    21975526.390   -75694037.109 9  91013273.110 9
  20615477.534    20615480.009   -15881130.014 9 -13750780.239 8
 90  2 22  8 39 14.0800000  0  4G 3G12G19G13
  21188989.488    21188992.354   -63650192.163 9  63586842.546 9
  20493358.512    20493363.175   -40577564.274 9  37401658.329 8
  21972511.344    21972513.305   -75709868.468 9  91000936.995 8
  20617876.952    20617880.233   -15868523.503 8 -13740956.979 8
 90  2 22  8 39 29.0800000  0  4G 3G12G19G13
  21185143.978    21185147.157   -63670398.995 9  63571096.967 7
  20498585.288    20498589.850   -40550097.508 9  37423060.995 7
  21969524.022    21969525.109   -75725565.404 9  90988705.615 9
  20620279.859    20620282.750   -15855897.640 9 -13731118.640 8
 90  2 22  8 39 44.0800000  0  4G 3G12G19G13
  21181306.969    21181307.772   -63690570.095 9  63555379.232 8
  20503837.166    20503840.856   -40522503.489 9  37444562.818 7
  21966562.492    21966564.459   -75741127.755 9  90976579.110 9
  20622685.932    20622688.783   -15843252.209 9 -13721265.061 8
 90  2 22  8 39 59.0800000  0  4G 3G12G19G13
  21177474.209    21177477.830   -63710705.281 9  63539689.476 8
  20509111.842    20509115.121   -40494782.357 9  37466163.691 8
  21963626.146    21963628.685   -75756555.544 9  90964557.447 8
  20625095.211    20625098.409   -15830587.227 9 -13711396.244 8
 90  2 22  8 40 14.0800000  0  4G 3G12G19G13
  21173650.321    21173652.526   -63730804.802 9  63524027.514 8
  20514411.160    20514414.097   -40466934.155 9  37487863.587 7
  21960715.664    21960718.832   -75771848.507 9  90952640.857 8
  20627509.171    20627512.835   -15817902.788 9 -13701512.278 7
 90  2 22  8 40 29.0800000  0  4G 3G12G19G13
  21169831.483    21169834.576   -63750868.428 9  63508393.522 7
  20519734.148    20519738.445   -40438959.470 9  37509662.032 9
  21957830.237    21957834.652   -75787006.675 9  90940829.288 9
  20629926.802    20629929.803   -15805199.192 9 -13691613.379 8
 90  2 22  8 40 44.0800000  0  4G 3G12G19G13
  21166020.974    21166023.523   -63770896.414 9  63492787.292 8
  20525082.630    20525085.237   -40410858.524 9  37531558.871 7
  21954972.162    21954975.660   -75802030.056 9  90929122.755 8
  20632348.558    20632350.330   -15792476.413 9 -13681699.531 7
 90  2 22  8 40 59.0800000  0  4G 3G12G19G13
  21162216.203    21162218.852   -63790888.417 9  63477209.120 8
  20530453.723    20530457.156   -40382631.389 9  37553554.034 7
  21952139.115    21952142.270   -75816918.283 9  90917521.535 8
  20634773.259    20634775.633   -15779734.421 9 -13671770.698 8
 90  2 22  8 41 14.0800000  0  4G 3G12G19G13
  21158418.100    21158421.852   -63810844.996 9  63461658.552 8
  20535848.832    20535852.530   -40354278.868 9  37575646.888 8
  21949332.231    21949334.786   -75831671.589 9  90906025.459 8
  20637201.370    20637203.622   -15766973.459 9 -13661827.090 8
 90  2 22  8 41 29.0800000  0  4G 3G12G19G13
  21154627.480    21154629.973   -63830766.336 9  63446135.443 8
  20541268.353    20541271.177   -40325801.233 9  37597837.249 7
  21946550.067    21946553.444   -75846290.153 9  90894634.374 9
  20639632.553    20639635.350   -15754193.403 9 -13651868.618 7
 90  2 22  8 41 44.0800000  0  4G 3G12G19G13
  21150842.800    21150846.280   -63850652.347 9  63430639.854 8
  20546711.491    20546714.405   -40297198.775 9  37620124.855 7
  21943794.655    21943797.845   -75860773.873 9  90883348.351 9
  20642067.973    20642071.118   -15741394.640 9 -13641895.547 8
 90  2 22  8 41 59.0800000  0  4G 3G12G19G13
  21147066.089    21147068.853   -63870502.927 9  63415171.874 8
  20552177.079    20552180.897   -40268471.542 9  37642509.711 8
  21941063.430    21941066.271   -75875122.203 9  90872167.828 9
  20644507.541    20644511.480   -15728576.678 9 -13631907.545 8
 90  2 22  8 42 14.0800000  0  4G 3G12G19G13
  21143295.088    21143297.981   -63890318.254 9  63399731.381 8
  20557667.119    20557671.240   -40239619.956 9  37664991.460 8
  21938358.443    21938362.028   -75889335.433 9  90861092.575 8
  20646950.320    20646953.557   -15715739.761 9 -13621904.756 8
 90  2 22  8 42 29.0800000  0  4G 3G12G19G13
  21139531.198    21139533.776   -63910098.586 9  63384318.149 8
  20563180.822    20563184.967   -40210644.549 9  37687569.695 8
  21935679.756    21935682.532   -75903413.568 9  90850122.588 8
  20649396.494    20649399.328   -15702884.358 9 -13611887.568 9
 90  2 22  8 42 44.0800000  0  4G 3G12G19G13
  21135773.935    21135775.237   -63929844.048 9  63368932.075 7
  20568718.768    20568723.203   -40181545.406 9  37710244.338 8
  21933026.203    21933029.229   -75917356.422 9  90839258.021 8
  20651846.593    20651849.466   -15690010.357 9 -13601855.882 7
 90  2 22  8 42 59.0800000  0  4G 3G12G19G13
  21132023.079    21132024.999   -63949554.411 9  63353573.369 8
  20574278.976    20574283.531   -40152322.852 9  37733015.160 7
  21930398.835    21930401.353   -75931164.176 9  90828498.741 9
  20654299.446    20654301.842   -15677117.895 9 -13591809.795 8
 90  2 22  8 43 14.0800000  0  4G 3G12G19G13
  21128278.521    21128281.171   -63969230.135 9  63338241.640 9
  20579863.011    20579867.491   -40122977.513 8  37755881.632 8
  21927797.053    21927799.361   -75944837.115 9  90817844.502 7
  20656756.506    20656759.525   -15664207.181 9 -13581749.487 8
 90  2 22  8 43 29.0800000  0  4G 3G12G19G13
  21124541.303    21124544.525   -63988871.257 9  63322936.876 9
  20585471.184    20585474.537   -40093509.723 9  37778843.539 8
  21925221.756    21925224.089   -75958374.846 9  90807295.625 8
  20659216.382    20659220.824   -15651278.268 9 -13571675.036 8
 90  2 22  8 43 44.0800000  0  4G 3G12G19G13
  21120810.582    21120813.404   -64008477.489 9  63307659.289 8
  20591102.067    20591107.240   -40063919.438 9  37801900.882 8
  21922670.973    21922672.875   -75971777.167 9  90796852.261 9
  20661681.261    20661682.740   -15638330.914 9 -13561586.188 8
 90  2 22  8 43 59.0800000  0  4G 3G12G19G13
  21117086.057    21117089.265   -64028049.067 9  63292408.721 9
  20596756.230    20596760.804   -40034207.182 9  37825053.277 8
  21920145.837    21920149.248   -75985043.977 9  90786514.488 8
  20664148.205    20664151.319   -15625365.202 9 -13551483.042 8
 90  2 22  8 44 14.0800000  0  4G 3G12G19G13
  21113367.929    21113370.965   -64047586.215 9  63277184.975 8
  20602433.324    20602437.277   -40004373.389 9  37848300.383 8
  21917646.815    21917650.106   -75998175.580 9  90776282.069 9
  20666618.641    20666621.658   -15612381.408 9 -13541365.806 7
 90  2 22  8 44 29.0800000  0  4G 3G12G19G13
  21109657.583    21109659.360   -64067088.905 9  63261988.086 9
  20608133.809    20608137.865   -39974418.344 9  37871641.980 7
  21915174.323    21915176.619   -76011171.852 9  90766155.089 7
  20669092.018    20669095.337   -15599379.889 9 -13531234.748 8
 90  2 22  8 44 44.0800000  0  4G 3G12G19G13
  21105952.147    21105952.392   -64086557.634 9  63246817.645 8
  20613858.056    20613860.995   -39944342.391 9  37895077.773 8
  21912726.093    21912729.113   -76024032.936 9  90756133.465 9
  20671570.223    20671572.613   -15586360.559 8 -13521089.825 8
 90  2 22  8 44 59.0800000  0  4G 3G12G19G13
  21102253.250    21102256.530   -64105992.241 9  63231673.800 8
  20619603.680    20619607.001   -39914146.081 9  37918607.363 9
  21910305.008    21910308.420   -76036758.724 9  90746217.251 8
  20674051.637    20674054.794   -15573323.797 9 -13510931.320 8
 90  2 22  8 45 14.0800000  0  4G 3G12G19G13
  21098561.722    21098564.959   -64125392.786 9  63216556.479 8
  20625373.287    20625376.540   -39883829.671 9  37942230.542 8
  21907909.541    21907912.824   -76049349.383 8  90736406.349 9
  20676536.169    20676538.193   -15560269.317 9 -13500758.999 8
 90  2 22  8 45 29.0800000  0  4G 3G12G19G13
  21094876.505    21094877.851   -64144759.176 9  63201465.795 8
  20631165.351    20631168.851   -39853393.129 9  37965947.315 9
  21905539.081    21905541.715   -76061804.488 9  90726701.064 8
  20679022.820    20679026.834   -15547196.948 9 -13490572.734 7
 90  2 22  8 45 44.0800000  0  4G 3G12G19G13
  21091196.923    21091200.646   -64164091.701 9  63186401.493 8
  20636978.793    20636982.791   -39822837.069 8  37989757.226 8
  21903194.778    21903197.812   -76074124.286 9  90717101.231 8
  20681513.628    20681516.011   -15534106.937 9 -13480372.725 8
 90  2 22  8 45 59.0800000  0  4G 3G12G19G13
  21087525.128    21087529.308   -64183390.459 9  63171363.500 7
  20642816.269    20642820.495   -39792162.082 9  38013659.780 9
  21900876.410    21900878.814   -76086308.980 9  90707606.661 8
  20684008.017    20684011.709   -15520999.752 9 -13470159.349 7
 90  2 22  8 46 14.0800000  0  4G 3G12G19G13
  21083858.427    21083862.235   -64202655.829 9  63156351.540 8
  20648676.565    20648680.088   -39761368.583 9  38037654.695 8
  21898583.350    21898586.004   -76098358.489 9  90698217.438 8
  20686504.681    20686508.488   -15507875.546 8 -13459932.697 8
 90  2 22  8 46 29.0800000  0  4G 3G12G19G13
  21080198.407    21080203.032   -64221887.567 9  63141365.780 8
  20654558.843    20654563.393   -39730456.627 9  38061741.919 9
  21896315.915    21896318.506   -76110272.756 9  90688933.582 8
  20689006.222    20689009.327   -15494733.936 9 -13449692.484 8
 90  2 22  8 46 44.0800000  0  4G 3G12G19G13
  21076545.356    21076548.378   -64241085.594 9  63126406.276 8
  20660463.375    20660468.518   -39699426.397 9  38085921.317 8
  21894074.002    21894077.915   -76122051.684 8  90679755.186 7
  20691510.331    20691514.066   -15481574.897 9 -13439438.672 8
 90  2 22  8 46 59.0800000  0  4G 3G12G19G13
  21072899.017    21072901.507   -64260249.959 9  63111473.004 6
  20666390.372    20666395.614   -39668278.274 9  38110192.563 9
  21891857.852    21891861.772   -76133695.199 9  90670682.324 9
  20694017.022    20694021.507   -15468398.764 9 -13429171.570 8
 90  2 22  8 47 14.0800000  0  4G 3G12G19G13
  21069259.073    21069260.276   -64279380.913 9  63096565.786 7
  20672340.206    20672344.648   -39637012.729 9  38134555.316 8
  21889668.345    21889672.044   -76145203.262 9  90661714.993 8
  20696527.565    20696532.042   -15455205.427 8 -13418891.046 8
 90  2 22  8 47 29.0800000  0  4G 3G12G19G13
  21065624.667    21065626.687   -64298478.519 9  63081684.534 9
  20678312.580    20678316.122   -39605630.297 9  38159009.151 9
  21887505.146    21887507.759   -76156575.842 9  90652853.245 8
  20699041.820    20699044.850   -15441995.104 9 -13408597.298 8
 90  2 22  8 47 44.0800000  0  4G 3G12G19G13
  21061996.929    21061999.794   -64317542.934 9  63066829.156 8
  20684306.394    20684310.263   -39574131.325 9  38183553.783 9
  21885366.295    21885368.162   -76167813.039 9  90644096.995 9
  20701559.465    20701561.904   -15428767.840 9 -13398290.334 8
 90  2 22  8 47 59.0800000  0  4G 3G12G19G13
  21058375.330    21058378.309   -64336574.213 9  63051999.592 8
  20690322.261    20690326.167   -39542516.103 9  38208189.024 8
  21883253.593    21883255.711   -76178915.098 9  90635446.042 8
  20704080.545    20704082.644   -15415523.897 9 -13387970.389 7
 90  2 22  8 48 14.0800000  0  4G 3G12G19G13
  21054760.255    21054762.347   -64355572.404 9  63037195.815 8
  20696360.966    20696364.563   -39510784.758 9  38232914.737 9
  21881166.240    21881169.231   -76189881.383 9  90626900.869 8
  20706602.672    20706604.543   -15402262.874 9 -13377637.117 7
 90  2 22  8 48 29.0800000  0  4G 3G12G19G13
  21051150.820    21051153.512   -64374537.132 9  63022418.108 7
  20702420.943    20702424.216   -39478937.410 9  38257730.835 8
  21879104.866    21879109.181   -76200712.088 9  90618461.358 8
  20709128.147    20709132.243   -15388984.612 8 -13367290.439 8
 90  2 22  8 48 44.0800000  0  4G 3G12G19G13
  21047549.297    21047550.543   -64393468.778 9  63007666.197 8
  20708504.095    20708507.281   -39446974.610 9  38282636.901 8
  21877069.929    21877073.907   -76211407.373 8  90610127.384 7
  20711658.286    20711663.408   -15375689.542 9 -13356930.663 8
 90  2 22  8 48 59.0800000  0  4G 3G12G19G13
  21043952.395    21043954.500   -64412367.364 9  62992940.030 8
  20714607.860    20714611.705   -39414896.860 9  38307632.547 8
  21875060.818    21875063.458   -76221967.113 9  90601899.005 9
  20714191.306    20714195.601   -15362377.885 8 -13346557.955 9
 90  2 22  8 49 14.0800000  0  4G 3G12G19G13
  21040362.219    21040365.212   -64431232.998 9  62978239.548 8
  20720733.204    20720737.494   -39382704.277 9  38332717.659 8
  21873078.372    21873079.820   -76232391.068 9  90593776.442 7
  20716728.307    20716732.163   -15349049.487 9 -13336172.183 8
 90  2 22  8 49 29.0800000  0  4G 3G12G19G13
  21036778.024    21036781.217   -64450065.650 9  62963564.765 8
  20726881.739    20726886.019   -39350397.281 9  38357891.928 8
  21871119.925    21871123.353   -76242679.494 9  90585759.483 8
  20719268.178    20719270.833   -15335704.488 9 -13325773.474 9
 90  2 22  8 49 44.0800000  0  4G 3G12G19G13
  21033200.926    21033202.774   -64468865.796 9  62948915.290 7
  20733051.498    20733055.107   -39317976.665 9  38383154.743 8
  21869188.221    21869189.717   -76252832.769 9  90577847.837 8
  20721810.142    20721814.321   -15322343.128 8 -13315362.025 8
 90  2 22  8 49 59.0800000  0  4G 3G12G19G13
  21029629.595    21029630.454   -64487633.632 9  62934291.012 8
  20739241.530    20739246.057   -39285442.599 9  38408505.948 8
  21867281.084    21867283.373   -76262850.888 9  90570041.509 8
  20724356.073    20724360.403   -15308965.415 8 -13304937.851 7
 90  2 22  8 50 14.0800000  0  4G 3G12G19G13
  21026064.245    21026066.380   -64506368.608 9  62919692.329 7
  20745454.682    20745457.983   -39252795.119 9  38433945.525 8
  21865400.915    21865403.039   -76272733.150 9  90562341.046 8
  20726905.040    20726908.930   -15295571.336 9 -13294500.909 8
 90  2 22  8 50 29.0800000  0  4G 3G12G19G13
  21022505.063    21022508.198   -64525070.915 9  62905119.107 7
  20751688.883    20751692.315   -39220034.623 9  38459473.171 7
  21863545.178    21863548.267   -76282479.675 9  90554746.338 7
  20729457.719    20729459.986   -15282160.783 9 -13284051.130 8
 90  2 22  8 50 44.0800000  0  4G 3G12G19G13
  21018952.749    21018955.398   -64543741.018 9  62890570.980 7
  20757944.032    20757947.765   -39187162.001 9  38485088.192 8
  21861716.484    21861719.140   -76292091.286 8  90547256.770 8
  20732013.391    20732016.526   -15268734.307 9 -13273588.933 7
 90  2 22  8 50 59.0800000  0  4G 3G12G19G13
  21015405.858    21015408.320   -64562379.149 9  62876047.764 8
  20764220.813    20764224.504   -39154177.617 9  38510790.303 9
  21859913.140    21859916.597   -76301567.950 9  90539872.358 8
  20734571.295    20734573.477   -15255291.698 9 -13263114.167 8
 90  2 22  8 51 14.0800000  0  4G 3G12G19G13
  21011865.306    21011867.568   -64580985.284 9  62861549.490 7
  20770518.991    20770523.080   -39121081.725 9  38536579.298 8
  21858136.971    21858138.545   -76310909.434 9  90532593.271 8
  20737130.816    20737134.877   -15241833.240 8 -13252627.075 7
 90  2 22  8 51 29.0800000  0  4G 3G12G19G13
  21008330.736    21008332.856   -64599559.399 9  62847076.159 8
  20776838.341    20776842.096   -39087874.448 9  38562455.102 9
  21856383.951    21856386.849   -76320115.486 9  90525419.733 8
  20739694.141    20739699.176   -15228358.767 9 -13242127.494 8
 90  2 22  8 51 44.0800000  0  4G 3G12G19G13
  21004802.260    21004804.839   -64618101.616 9  62832627.700 8
  20783178.320    20783181.581   -39054556.382 9  38588417.219 8
  21854657.413    21854660.796   -76329186.621 9  90518351.314 8
  20742262.218    20742266.690   -15214868.584 8 -13231615.670 7
 90  2 22  8 51 59.0800000  0  4G 3G12G19G13
  21001279.666    21001282.345   -64636612.187 9  62818203.882 8
  20789538.813    20789543.038   -39021128.127 9  38614465.203 8
  21852958.118    21852960.185   -76338122.948 9  90511387.954 8
  20744832.985    20744835.572   -15201362.852 9 -13221091.718 8
 90  2 22  8 52 14.0800000  0  4G 3G12G19G13
  20997763.197    20997765.545   -64655091.216 9  62803804.641 7
  20795921.844    20795926.006   -38987590.054 9  38640598.763 8
  21851282.605    21851285.796   -76346924.565 9  90504529.553 8
  20747406.784    20747409.601   -15187841.676 9 -13210555.743 8
